[[{"header":{"parameterUnit":"m.s-1","parameterCategory":1,"la1":30.6,"la2":28.766,"lo1":-90.7593,"lo2":-88.6598,"dy":0.0162,"dx":0.0183,"nx":116,"ny":114,"refTime":"2024-03-22T12:00:00:Z","depth":0,"parameterNumber":2,"parameterNumberName":"U-component_of_WINDS"},"data":[0.0,0.0,0.0,0.0,0.0,0.0,0.0,0.0,0.0,0.0,0.0,0.0,0.0,0.0,0.0,0.0,0.0,0.0,0.0,0.0,0.0,0.0,0.0,0.0,0.0,0.0,0.0,0.0,0.0,0.0,0.0,0.0,0.0,0.0,0.0,0.0,0.0,0.0,0.0,0.0,0.0,0.0,0.0,0.0,0.0,0.0,0.0,0.0,0.0,0.0,0.0,0.0,0.0,0.0,0.0,0.0,0.0,0.0,0.0,0.0,0.0,0.0,0.0,0.0,0.0,0.0,0.0,0.0,0.0,0.0,0.0,0.0,0.0,0.0,0.0,0.0,0.0,0.0,0.0,0.0,0.0,0.0,0.0,0.0,0.0,0.0,0.0,0.0,0.0,0.0,0.0,0.0,0.0,0.0,0.0,0.0,0.0,0.0,0.0,0.0,0.0,0.0,0.0,0.0,0.0,0.0,0.0,0.0,0.0,0.0,0.0,0.0,0.0,0.0,0.0,0.0,0.0,0.0,0.0,0.0,0.0,0.0,0.0,0.0,0.0,0.0,0.0,0.0,0.0,0.0,0.0,0.0,0.0,0.0,0.0,0.0,0.0,0.0,0.0,0.0,0.0,0.0,0.0,0.0,0.0,0.0,0.0,0.0,0.0,0.0,0.0,0.0,0.0,0.0,0.0,0.0,0.0,0.0,0.0,0.0,0.0,0.0,0.0,0.0,0.0,0.0,0.0,0.0,0.0,0.0,0.0,0.0,0.0,0.0,0.0,0.0,0.0,0.0,0.0,0.0,0.0,0.0,0.0,0.0,0.0,0.0,0.0,0.0,0.0,0.0,0.0,0.0,0.0,0.0,0.0,0.0,0.0,0.0,0.0,0.0,0.0,0.0,0.0,0.0,0.0,0.0,0.0,0.0,0.0,0.0,0.0,0.0,0.0,0.0,0.0,0.0,0.0,0.0,0.0,0.0,0.0,0.0,0.0,0.0,0.0,0.0,0.0,0.0,0.0,0.0,0.0,0.0,0.0,0.0,0.0,0.0,0.0,0.0,0.0,0.0,0.0,0.0,0.0,0.0,0.0,0.0,0.0,0.0,0.0,0.0,0.0,0.0,0.0,0.0,0.0,0.0,0.0,0.0,0.0,0.0,0.0,0.0,0.0,0.0,0.0,0.0,0.0,0.0,0.0,0.0,0.0,0.0,0.0,0.0,0.0,0.0,0.0,0.0,0.0,0.0,0.0,0.0,0.0,0.0,0.0,0.0,0.0,0.0,0.0,0.0,0.0,0.0,0.0,0.0,0.0,0.0,0.0,0.0,0.0,0.0,0.0,0.0,0.0,0.0,0.0,0.0,0.0,0.0,0.0,0.0,0.0,0.0,0.0,0.0,0.0,0.0,0.0,0.0,0.0,0.0,0.0,0.0,0.0,0.0,0.0,0.0,0.0,0.0,0.0,0.0,0.0,0.0,0.0,0.0,0.0,0.0,0.0,0.0,0.0,0.0,0.0,0.0,0.0,0.0,0.0,0.0,0.0,0.0,0.0,0.0,0.0,0.0,0.0,0.0,0.0,0.0,0.0,0.0,0.0,0.0,0.0,0.0,0.0,0.0,0.0,0.0,0.0,0.0,0.0,0.0,0.0,0.0,0.0,0.0,0.0,0.0,0.0,0.0,0.0,0.0,0.0,0.0,0.0,0.0,0.0,0.0,0.0,0.0,0.0,0.0,0.0,0.0,0.0,0.0,0.0,0.0,0.0,0.0,0.0,0.0,0.0,0.0,0.0,0.0,0.0,0.0,0.0,0.0,0.0,0.0,0.0,0.0,0.0,0.0,0.0,0.0,0.0,0.0,0.0,0.0,0.0,0.0,0.0,0.0,0.0,0.0,0.0,0.0,0.0,0.0,0.0,0.0,0.0,0.0,0.0,0.0,0.0,0.0,0.0,0.0,0.0,0.0,0.0,0.0,0.0,0.0,0.0,0.0,0.0,0.0,0.0,0.0,0.0,0.0,0.0,0.0,0.0,0.0,0.0,0.0,0.0,0.0,0.0,0.0,0.0,0.0,0.0,0.0,0.0,0.0,0.0,0.0,0.0,0.0,0.0,0.0,0.0,0.0,0.0,0.0,0.0,0.0,0.0,0.0,0.0,0.0,0.0,0.0,0.0,0.0,0.0,0.0,0.0,0.0,0.0,0.0,0.0,0.0,0.0,0.0,0.0,0.0,0.0,0.0,0.0,0.0,0.0,0.0,0.0,0.0,0.0,0.0,0.0,0.0,0.0,0.0,0.0,0.0,0.0,0.0,0.0,0.0,0.0,0.0,0.0,0.0,0.0,0.0,0.0,0.0,0.0,0.0,0.0,0.0,0.0,0.0,0.0,0.0,0.0,0.0,0.0,0.0,0.0,0.0,0.0,0.0,0.0,0.0,0.0,0.0,0.0,0.0,0.0,0.0,0.0,0.0,0.0,0.0,0.0,0.0,0.0,0.0,0.0,0.0,0.0,0.0,0.0,0.0,0.0,0.0,0.0,0.0,0.0,0.0,0.0,0.0,0.0,0.0,0.0,0.0,0.0,0.0,0.0,0.0,0.0,0.0,0.0,0.0,0.0,0.0,0.0,0.0,0.0,0.0,0.0,0.0,0.0,0.0,0.0,0.0,0.0,0.0,0.0,0.0,0.0,0.0,0.0,0.0,0.0,0.0,0.0,0.0,0.0,0.0,0.0,0.0,0.0,0.0,0.0,0.0,0.0,0.0,0.0,0.0,0.0,0.0,0.0,0.0,0.0,0.0,0.0,0.0,0.0,0.0,0.0,0.0,0.0,0.0,0.0,0.0,0.0,0.0,0.0,0.0,0.0,0.0,0.0,0.0,0.0,0.0,0.0,0.0,0.0,0.0,0.0,0.0,0.0,0.0,0.0,0.0,0.0,0.0,0.0,0.0,0.0,0.0,0.0,0.0,0.0,0.0,0.0,0.0,0.0,0.0,0.0,0.0,0.0,0.0,0.0,0.0,0.0,0.0,0.0,0.0,0.0,0.0,0.0,0.0,0.0,0.0,0.0,0.0,0.0,0.0,0.0,0.0,0.0,0.0,0.0,0.0,0.0,0.0,0.0,0.0,0.0,0.0,0.0,0.0,0.0,0.0,0.0,0.0,0.0,0.0,0.0,0.0,0.0,0.0,0.0,0.0,0.0,0.0,0.0,0.0,0.0,0.0,0.0,0.0,0.0,0.0,0.0,0.0,0.0,0.0,0.0,0.0,0.0,0.0,0.0,0.0,0.0,0.0,0.0,0.0,0.0,0.0,0.0,0.0,0.0,0.0,0.0,0.0,0.0,0.0,0.0,0.0,0.0,0.0,0.0,0.0,0.0,0.0,0.0,0.0,0.0,0.0,0.0,0.0,0.0,0.0,0.0,0.0,0.0,0.0,0.0,0.0,0.0,0.0,0.0,0.0,0.0,0.0,0.0,0.0,0.0,0.0,0.0,0.0,0.0,0.0,0.0,0.0,0.0,0.0,0.0,0.0,0.0,0.0,0.0,0.0,0.0,0.0,0.0,0.0,0.0,0.0,0.0,0.0,0.0,0.0,0.0,0.0,0.0,0.0,0.0,0.0,0.0,0.0,0.0,0.0,0.0,0.0,0.0,0.0,0.0,0.0,0.0,0.0,0.0,0.0,0.0,0.0,0.0,0.0,0.0,0.0,0.0,0.0,0.0,0.0,0.0,0.0,0.0,0.0,0.0,0.0,0.0,0.0,0.0,0.0,0.0,0.0,0.0,0.0,0.0,0.0,0.0,0.0,0.0,0.0,0.0,0.0,0.0,0.0,0.0,0.0,0.0,0.0,0.0,0.0,0.0,0.0,0.0,0.0,0.0,0.0,0.0,0.0,0.0,0.0,0.0,0.0,0.0,0.0,0.0,0.0,0.0,0.0,0.0,0.0,0.0,0.0,0.0,0.0,0.0,0.0,0.0,0.0,0.0,0.0,0.0,0.0,0.0,0.0,0.0,0.0,0.0,0.0,0.0,0.0,0.0,0.0,0.0,0.0,0.0,0.0,0.0,0.0,0.0,0.0,0.0,0.0,0.0,0.0,0.0,0.0,0.0,0.0,0.0,0.0,0.0,0.0,0.0,0.0,0.0,0.0,0.0,0.0,0.0,0.0,0.0,0.0,0.0,0.0,0.0,0.0,0.0,0.0,0.0,0.0,0.0,0.0,0.0,0.0,0.0,0.0,0.0,0.0,0.0,0.0,0.0,0.0,0.0,0.0,0.0,0.0,0.0,0.0,0.0,0.0,0.0,0.0,0.0,0.0,0.0,0.0,0.0,0.0,0.0,0.0,0.0,0.0,0.0,0.0,0.0,0.0,0.0,0.0,0.0,0.0,0.0,0.0,0.0,0.0,0.0,0.0,0.0,0.0,0.0,0.0,0.0,0.0,0.0,0.0,0.0,0.0,0.0,0.0,0.0,0.0,0.0,0.0,0.0,0.0,0.0,0.0,0.0,0.0,0.0,0.0,0.0,0.0,0.0,0.0,0.0,0.0,0.0,0.0,0.0,0.0,0.0,0.0,0.0,0.0,0.0,0.0,0.0,0.0,0.0,0.0,0.0,0.0,0.0,0.0,0.0,0.0,0.0,0.0,0.0,0.0,0.0,0.0,0.0,0.0,0.0,0.0,0.0,0.0,0.0,0.0,0.0,0.0,0.0,0.0,0.0,0.0,0.0,0.0,0.0,0.0,0.0,0.0,0.0,0.0,0.0,0.0,0.0,0.0,0.0,0.0,0.0,0.0,0.0,0.0,0.0,0.0,0.0,0.0,0.0,0.0,0.0,0.0,0.0,0.0,0.0,0.0,0.0,0.0,0.0,0.0,0.0,0.0,0.0,0.0,0.0,0.0,0.0,0.0,0.0,0.0,0.0,0.0,0.0,0.0,0.0,0.0,0.0,0.0,0.0,0.0,0.0,0.0,0.0,0.0,0.0,0.0,0.0,0.0,0.0,0.0,0.0,0.0,0.0,0.0,0.0,0.0,0.0,0.0,0.0,0.0,0.0,0.0,0.0,0.0,0.0,0.0,0.0,0.0,0.0,0.0,0.0,0.0,0.0,0.0,0.0,0.0,0.0,0.0,0.0,0.0,0.0,0.0,0.0,0.0,0.0,0.0,0.0,0.0,0.0,0.0,0.0,0.0,0.0,0.0,0.0,0.0,0.0,0.0,0.0,0.0,0.0,0.0,0.0,0.0,0.0,0.0,0.0,0.0,0.0,0.0,0.0,0.0,0.0,0.0,0.0,0.0,0.0,0.0,0.0,0.0,0.0,0.0,0.0,0.0,0.0,0.0,0.0,0.0,0.0,0.0,0.0,0.0,0.0,0.0,0.0,0.0,0.0,0.0,0.0,0.0,0.0,0.0,0.0,0.0,0.0,0.0,0.0,0.0,0.0,0.0,0.0,0.0,0.0,0.0,0.0,0.0,0.0,0.0,0.0,0.0,0.0,0.0,0.0,0.0,0.0,0.0,0.0,0.0,0.0,0.0,0.0,0.0,0.0,0.0,0.0,0.0,0.0,0.0,0.0,0.0,0.0,0.0,0.0,0.0,0.0,0.0,0.0,0.0,0.0,0.0,0.0,0.0,0.0,0.0,0.0,0.0,0.0,0.0,0.0,0.0,0.0,0.0,0.0,0.0,0.0,0.0,0.0,0.0,0.0,0.0,0.0,0.0,0.0,0.0,0.0,0.0,0.0,0.0,0.0,0.0,0.0,0.0,0.0,0.0,0.0,0.0,0.0,0.0,0.0,0.0,0.0,0.0,0.0,0.0,0.0,0.0,0.0,0.0,0.0,0.0,0.0,0.0,0.0,0.0,0.0,0.0,0.0,0.0,0.0,0.0,0.0,0.0,0.0,0.0,0.0,0.0,0.0,0.0,0.0,0.0,0.0,0.0,0.0,0.0,0.0,0.0,0.0,0.0,0.0,0.0,0.0,0.0,0.0,0.0,0.0,0.0,0.0,0.0,0.0,0.0,0.0,0.0,0.0,0.0,0.0,0.0,0.0,0.0,0.0,0.0,0.0,0.0,0.0,0.0,0.0,0.0,0.0,0.0,0.0,0.0,6.5445,0.0,0.0,0.0,0.0,0.0,0.0,0.0,0.0,0.0,0.0,0.0,0.0,0.0,0.0,0.0,0.0,0.0,0.0,0.0,0.0,0.0,0.0,0.0,0.0,0.0,0.0,0.0,0.0,0.0,0.0,0.0,0.0,0.0,0.0,0.0,0.0,0.0,5.6931,5.8513,5.7302,5.7186,5.8112,5.8291,5.8491,0.0,0.0,0.0,0.0,0.0,0.0,0.0,0.0,0.0,0.0,0.0,0.0,0.0,0.0,0.0,0.0,0.0,0.0,0.0,0.0,0.0,0.0,0.0,0.0,0.0,0.0,0.0,0.0,0.0,0.0,0.0,0.0,0.0,0.0,0.0,0.0,0.0,0.0,0.0,0.0,0.0,0.0,0.0,0.0,0.0,0.0,0.0,0.0,0.0,0.0,0.0,0.0,0.0,0.0,0.0,0.0,0.0,0.0,0.0,0.0,0.0,0.0,0.0,0.0,0.0,0.0,0.0,0.0,0.0,0.0,0.0,0.0,6.529,0.0,0.0,0.0,0.0,0.0,0.0,0.0,0.0,0.0,0.0,0.0,0.0,0.0,0.0,0.0,0.0,0.0,0.0,0.0,0.0,0.0,0.0,0.0,5.6287,5.6869,5.8557,5.7412,5.7257,5.8738,5.793,5.7738,5.8505,5.8335,5.8141,5.8067,5.7328,5.7557,5.8852,5.7736,5.8016,5.9681,5.9832,0.0,0.0,0.0,0.0,0.0,0.0,0.0,0.0,0.0,0.0,0.0,0.0,0.0,0.0,0.0,0.0,0.0,0.0,0.0,0.0,0.0,0.0,0.0,0.0,0.0,0.0,0.0,0.0,0.0,0.0,0.0,0.0,0.0,0.0,0.0,0.0,0.0,0.0,0.0,0.0,0.0,0.0,0.0,0.0,0.0,0.0,0.0,0.0,0.0,0.0,0.0,0.0,0.0,0.0,0.0,0.0,0.0,0.0,0.0,0.0,0.0,0.0,0.0,0.0,0.0,0.0,6.8158,6.7768,6.7818,6.7486,6.6916,6.6189,6.5727,6.5346,6.4999,6.3685,0.0,0.0,0.0,0.0,0.0,0.0,0.0,0.0,0.0,0.0,0.0,0.0,0.0,0.0,0.0,0.0,0.0,0.0,0.0,0.0,0.0,5.6597,5.6854,5.8467,5.8389,5.8699,5.9648,5.8741,5.8564,5.9493,5.8665,5.8141,5.8017,5.7877,5.7901,5.7995,5.8642,5.9473,6.0457,6.065,6.0702,6.0569,5.994,0.0,0.0,0.0,0.0,0.0,0.0,0.0,0.0,0.0,0.0,0.0,0.0,0.0,0.0,0.0,0.0,0.0,0.0,0.0,0.0,0.0,0.0,0.0,0.0,0.0,0.0,0.0,0.0,0.0,0.0,0.0,0.0,0.0,0.0,0.0,0.0,0.0,0.0,0.0,0.0,0.0,0.0,0.0,6.1184,6.1479,0.0,0.0,0.0,0.0,0.0,0.0,0.0,0.0,0.0,0.0,0.0,0.0,0.0,6.5018,6.609,6.7586,6.8828,6.9821,6.9009,6.8944,6.9509,6.805,6.7224,6.6974,6.7639,0.0,6.5913,6.6411,0.0,0.0,0.0,0.0,0.0,0.0,0.0,0.0,0.0,0.0,0.0,0.0,0.0,0.0,0.0,0.0,0.0,0.0,0.0,0.0,0.0,5.6785,5.7544,5.9198,5.8906,5.9215,6.0536,5.9263,5.9031,6.038,5.9365,5.8987,5.946,5.8803,5.8491,5.8463,5.9496,6.0188,6.0571,6.1146,6.1219,6.0781,6.0927,6.08,6.0421,5.9592,0.0,0.0,0.0,0.0,0.0,0.0,0.0,0.0,0.0,0.0,0.0,0.0,0.0,0.0,0.0,0.0,0.0,0.0,0.0,0.0,0.0,0.0,0.0,0.0,0.0,0.0,0.0,0.0,0.0,0.0,0.0,0.0,0.0,0.0,0.0,0.0,0.0,0.0,0.0,6.1785,6.2623,6.3176,6.2347,6.2099,0.0,0.0,0.0,0.0,0.0,0.0,0.0,0.0,0.0,6.4743,6.4691,6.5341,6.6746,6.7525,6.8613,6.9976,6.9628,6.9601,6.9871,6.9147,6.815,6.709,6.7449,6.7204,6.655,6.6506,6.5611,6.4289,0.0,0.0,0.0,0.0,6.4135,6.4347,0.0,0.0,0.0,0.0,0.0,0.0,0.0,0.0,0.0,0.0,0.0,0.0,5.6233,5.7008,5.8054,5.974,5.9349,5.9636,6.1095,5.9687,5.9573,6.1208,5.9969,5.9625,6.0533,5.9474,5.9054,5.9369,6.0119,6.048,6.0518,6.1454,6.1543,6.1006,6.1851,6.1757,6.0938,6.0029,5.9318,0.0,0.0,0.0,0.0,0.0,0.0,0.0,0.0,0.0,0.0,0.0,0.0,0.0,0.0,0.0,0.0,0.0,0.0,0.0,0.0,0.0,0.0,0.0,0.0,0.0,0.0,0.0,0.0,0.0,0.0,0.0,0.0,0.0,0.0,0.0,0.0,0.0,0.0,6.3176,6.3829,6.4508,6.3932,6.3642,0.0,0.0,0.0,0.0,0.0,0.0,6.6653,6.4949,6.4526,6.5859,6.5449,6.5986,6.7595,6.7826,6.8745,7.0324,7.0092,7.0049,7.0189,6.9957,6.8935,6.7372,6.7513,6.723,6.6556,6.5997,6.5449,6.5003,6.4928,6.4851,6.4817,6.4987,6.5142,6.5234,0.0,0.0,0.0,0.0,0.0,0.0,0.0,0.0,0.0,0.0,0.0,5.4529,5.7047,5.7389,5.807,5.9744,5.9856,6.0205,6.1041,6.0191,6.0359,6.1989,6.0301,5.9625,6.0398,5.9474,5.9435,6.0332,6.0453,6.048,6.0518,6.1402,6.1773,6.1773,6.2655,6.2221,6.0834,5.9919,5.9518,5.9447,0.0,0.0,0.0,0.0,0.0,0.0,0.0,0.0,0.0,0.0,0.0,0.0,0.0,0.0,0.0,0.0,0.0,0.0,0.0,0.0,0.0,0.0,0.0,0.0,0.0,0.0,0.0,0.0,0.0,0.0,0.0,0.0,0.0,0.0,0.0,0.0,0.0,0.0,0.0,6.5337,6.5238,0.0,0.0,0.0,0.0,6.5252,6.5427,6.5569,6.5685,6.569,6.5743,6.5897,6.6538,6.7398,6.8521,6.9331,7.0251,7.1214,7.0324,7.0286,7.0999,7.0174,6.9258,6.8356,6.8921,6.7791,6.5562,6.5588,6.5733,6.5846,6.4936,6.4733,6.4889,6.4909,6.545,6.6126,0.0,0.0,0.0,0.0,0.0,0.0,0.0,0.0,5.1595,5.3298,5.3546,5.4514,5.7074,5.7826,5.8639,5.9803,6.0419,6.0807,6.1041,6.0732,6.0766,6.1251,6.052,6.0119,6.0188,6.0008,6.0008,6.0323,6.0905,6.1201,6.1239,6.2672,6.3083,6.2574,6.337,6.3131,6.2183,6.1326,6.0378,5.9388,5.8627,5.7742,0.0,0.0,0.0,0.0,0.0,0.0,0.0,0.0,0.0,0.0,0.0,0.0,0.0,0.0,0.0,0.0,0.0,0.0,0.0,0.0,0.0,0.0,0.0,0.0,0.0,0.0,0.0,0.0,0.0,0.0,0.0,0.0,0.0,0.0,0.0,0.0,0.0,6.6885,6.6793,0.0,6.6379,6.5874,6.5779,6.6185,6.5839,6.5866,6.6469,6.6535,6.6588,6.6667,6.7434,6.8064,6.8525,6.9437,7.0088,7.0413,7.0612,7.0822,7.1023,7.0722,6.9755,6.8279,6.8398,6.7553,6.6097,6.5555,6.5505,6.5663,6.5499,6.5495,6.5543,6.5698,6.5891,6.6052,0.0,0.0,0.0,0.0,0.0,0.0,0.0,0.0,5.1579,5.3298,5.3491,5.4497,5.7035,5.808,5.8952,5.9784,6.0654,6.1099,6.1021,6.0671,6.0817,6.1603,6.1414,6.0886,6.0137,6.0256,6.0408,6.0654,6.1277,6.1717,6.206,6.3473,6.3817,6.335,6.4069,6.3955,6.3176,6.2662,6.1524,6.0035,5.8936,5.8026,5.7205,0.0,0.0,0.0,0.0,0.0,0.0,0.0,0.0,0.0,0.0,0.0,0.0,0.0,0.0,0.0,0.0,0.0,0.0,0.0,0.0,0.0,0.0,0.0,0.0,0.0,0.0,0.0,0.0,0.0,0.0,0.0,0.0,0.0,0.0,0.0,6.6962,6.8041,6.8057,6.7724,6.7189,6.6721,6.6401,6.623,6.6077,6.627,6.6901,6.7198,6.7379,6.7525,6.7983,6.8471,6.8976,6.9554,6.9861,6.9926,7.0761,7.0807,7.0157,7.0435,6.9554,6.7752,6.7592,6.7126,6.6438,6.5831,6.5656,6.5818,6.5767,6.5769,6.5897,6.6013,6.599,6.5933,0.0,0.0,0.0,0.0,0.0,0.0,0.0,5.0846,5.1531,5.3367,5.353,5.4481,5.7108,5.8136,5.8934,5.9746,6.0538,6.1021,6.0997,6.0118,6.0657,6.3041,6.2911,6.1904,6.0137,6.0137,6.0555,6.1355,6.1522,6.201,6.2811,6.365,6.4007,6.3981,6.4818,6.4638,6.3736,6.3698,6.2851,6.137,5.9824,5.8628,5.7695,0.0,0.0,0.0,0.0,0.0,0.0,0.0,0.0,0.0,0.0,0.0,0.0,0.0,0.0,0.0,0.0,0.0,0.0,0.0,0.0,0.0,0.0,0.0,0.0,0.0,0.0,0.0,0.0,0.0,0.0,0.0,0.0,0.0,6.6528,6.6667,6.7126,6.8701,6.8859,6.8144,6.6291,6.6319,6.6112,6.5237,6.6216,6.6795,6.6795,6.7591,6.8139,6.8328,6.8244,6.8761,6.9886,6.9821,6.981,6.9933,7.0614,7.008,6.851,6.9321,6.8616,6.6888,6.6683,6.6501,6.6404,6.6322,6.6311,6.6336,6.5696,6.56,6.5793,6.5795,6.5782,6.5795,0.0,0.0,0.0,0.0,0.0,0.0,0.0,5.0846,5.1531,5.3367,5.36,5.4552,5.7124,5.8114,5.8931,5.9746,6.0538,6.0941,6.085,6.1151,6.153,6.2021,6.1373,6.0722,6.0099,6.0708,6.086,6.0479,6.2399,6.3085,6.268,6.4229,6.4851,6.4719,6.4879,6.4772,6.4363,6.3651,6.2746,6.1684,6.0279,5.8872,5.7596,0.0,0.0,0.0,0.0,0.0,0.0,0.0,0.0,0.0,0.0,0.0,0.0,0.0,0.0,0.0,0.0,0.0,0.0,0.0,0.0,0.0,0.0,0.0,0.0,0.0,0.0,0.0,0.0,0.0,0.0,0.0,6.313,6.3949,6.5685,6.685,6.7807,6.8669,6.9171,6.8793,6.7051,6.7083,6.6654,6.5313,6.6216,6.6795,6.6795,6.8204,6.9029,6.9145,6.9165,6.9309,6.9694,6.914,6.8821,6.877,6.904,6.8937,6.8448,6.8579,6.7944,6.6841,6.6535,6.64,6.633,6.6177,6.6246,6.6311,6.6275,6.6,6.5674,6.5769,6.5795,6.5793,0.0,0.0,0.0,0.0,0.0,0.0,0.0,5.0846,5.1515,5.3344,5.3615,5.4584,5.7172,5.8109,5.891,5.9727,6.0498,6.0894,6.071,6.1428,6.1567,6.101,0.0,6.0517,6.0076,6.0849,6.0969,6.0539,6.2769,6.3638,6.3117,6.4519,6.5061,6.4886,6.4781,6.4596,6.4483,6.3798,6.2818,6.1694,6.0754,5.9231,5.7324,5.6226,5.5576,5.5198,5.4766,5.4459,5.4173,5.3675,0.0,0.0,0.0,0.0,0.0,0.0,0.0,0.0,0.0,0.0,0.0,0.0,0.0,0.0,0.0,0.0,0.0,0.0,0.0,0.0,0.0,0.0,0.0,0.0,6.3808,6.4845,6.6008,6.7178,6.8259,6.9201,6.955,6.9208,6.7922,6.7883,6.7347,6.5851,6.6663,6.7317,6.7424,6.8648,6.9628,7.0064,6.9327,6.9135,6.9605,6.8405,6.7801,6.7782,6.8205,6.7999,6.7247,6.7515,6.7102,6.6064,6.5917,6.6201,6.6747,6.6597,6.6633,0.0,0.0,0.0,0.0,0.0,6.6162,6.6126,0.0,0.0,0.0,0.0,0.0,0.0,0.0,5.0812,5.1421,5.3219,5.3514,5.4536,5.6922,5.8064,5.8871,5.9573,6.0436,6.0819,6.0585,6.1141,6.1048,6.0137,6.0767,6.0849,6.0165,6.0766,6.1149,6.125,6.3057,6.3888,6.3812,6.4544,6.4817,6.467,6.4482,6.4326,6.4244,6.3888,6.2869,6.1453,6.0976,5.9323,5.7003,5.5686,5.5151,5.5102,5.5047,5.4699,5.4282,5.4256,0.0,0.0,0.0,0.0,0.0,0.0,0.0,0.0,0.0,0.0,0.0,0.0,0.0,0.0,0.0,0.0,0.0,0.0,0.0,0.0,0.0,0.0,0.0,0.0,6.4315,6.615,6.7011,6.7591,6.845,6.9995,6.9891,6.936,6.8527,6.8414,6.7881,6.6467,6.7216,6.7916,6.8265,0.0,0.0,0.0,0.0,6.8614,6.9412,6.7535,6.6691,6.6782,6.7368,6.6921,6.5482,6.6211,6.6039,6.5075,6.5073,6.5955,6.7388,6.7279,6.7354,6.7428,6.666,6.6097,6.5877,6.6845,6.694,6.6636,0.0,0.0,0.0,0.0,0.0,0.0,0.0,5.0812,5.1228,5.2405,5.3155,5.4061,5.5253,5.7358,5.8712,5.8761,6.0089,6.0757,6.0491,6.0551,6.0437,6.0045,6.0165,6.0437,6.0866,6.1568,6.1949,6.2159,6.3827,6.4355,6.3672,6.4509,6.4745,6.4444,6.4364,6.4162,6.383,6.3028,6.2041,6.0826,5.9492,5.8036,5.663,5.6329,5.5567,5.4629,5.4692,5.4769,5.4857,5.4874,5.5396,5.6022,5.6129,0.0,0.0,0.0,0.0,0.0,0.0,0.0,0.0,0.0,0.0,0.0,0.0,0.0,0.0,0.0,0.0,0.0,0.0,0.0,0.0,6.3068,6.4193,6.5615,6.7756,6.7965,6.8379,6.9738,6.9739,6.9055,6.7542,6.7468,6.6973,6.5555,6.6401,6.7317,6.8129,6.903,6.9928,7.0686,6.9207,6.8327,6.8234,6.6009,6.4843,6.4764,0.0,0.0,6.447,6.4466,6.4731,6.5065,6.4993,6.5907,6.7464,6.7279,6.7656,6.8187,6.6954,6.6879,6.7638,6.851,6.7914,6.6758,0.0,0.0,0.0,0.0,0.0,0.0,0.0,5.0808,5.1199,5.2172,5.3106,5.3973,5.4854,5.7232,5.8513,5.7949,5.921,6.0099,6.0246,6.0256,6.0197,6.0013,5.988,6.0226,6.1098,6.1689,6.2106,6.2249,6.3949,6.4327,6.3497,6.4329,6.4596,6.4364,6.4162,6.391,6.3654,6.253,6.1532,6.0461,5.9246,5.7818,5.6399,5.5914,5.5361,5.4865,5.4415,5.4397,5.4661,5.4754,5.5413,5.6223,5.634,5.6902,5.7472,0.0,0.0,0.0,0.0,0.0,0.0,0.0,0.0,0.0,0.0,0.0,0.0,0.0,0.0,5.7957,5.8972,0.0,6.2436,6.3394,6.4864,6.6486,6.818,6.8513,6.8967,6.9921,6.9816,6.9246,6.811,6.7997,6.7392,6.6011,6.6467,6.7267,6.8229,6.8743,6.9352,7.0171,6.8985,6.7806,6.6713,6.5039,6.3991,6.3598,6.3141,6.3321,6.4024,6.3943,6.4339,6.5069,6.5437,6.6615,6.8218,6.7997,6.8337,6.8866,6.7498,6.7588,6.8547,6.9005,6.8324,6.7343,0.0,0.0,0.0,0.0,0.0,0.0,0.0,5.1013,5.144,5.2225,5.3275,5.4207,5.4932,5.7275,5.8583,5.8007,5.8889,5.9671,6.0061,5.9946,5.9809,5.9716,5.9555,5.9942,6.1031,6.1655,6.2184,6.2596,6.3991,6.4293,6.3577,6.4219,6.4443,6.4244,6.391,6.3647,6.3391,6.2066,6.1018,6.0176,5.9115,5.785,5.6441,5.5454,5.5087,5.5024,5.4241,5.4093,5.4228,5.4405,5.5178,5.6172,5.6267,5.691,5.7667,5.7548,5.7497,0.0,0.0,0.0,0.0,0.0,0.0,0.0,0.0,0.0,5.6669,5.6328,5.7602,5.8851,5.9188,6.1493,6.3353,6.3483,6.5442,6.732,6.8321,6.8828,6.9398,7.0238,7.0001,6.9475,6.8673,6.8413,6.7656,6.6243,6.6327,6.6978,6.818,6.8347,6.8779,6.9604,6.8717,6.7317,6.5444,6.4322,6.3397,6.2727,6.2413,6.2749,6.3676,6.3617,6.4158,6.511,6.6298,6.7516,6.8635,6.8602,6.8905,6.935,6.7922,6.8106,6.9154,6.9188,6.8579,6.7783,0.0,0.0,0.0,0.0,0.0,0.0,0.0,0.0,5.2152,5.2343,5.3831,5.4905,5.4968,5.7197,5.9177,6.0311,6.043,6.0338,6.0129,5.9414,5.8905,5.8651,5.8618,5.9341,6.0896,6.1656,6.2749,6.4332,6.4521,6.4558,6.4445,6.4406,6.4287,6.4121,6.378,6.3419,6.294,6.1153,6.0212,5.9743,5.8201,5.7375,5.7021,5.6213,5.5304,5.4417,5.4349,5.4195,5.3981,5.4127,5.528,5.6732,5.6873,5.7928,5.902,5.8408,5.7786,5.7308,5.7251,5.7819,5.8353,5.8182,5.8497,5.884,0.0,0.0,5.7865,5.8653,5.8679,5.8856,5.9883,6.1743,6.3182,6.3353,6.4869,6.659,6.8167,6.8301,6.8808,7.0362,7.0209,6.9322,6.7728,6.7043,6.6112,6.4585,6.4666,6.5465,6.7077,6.8019,6.8743,6.9347,6.8655,6.7317,6.5264,6.3695,6.2506,6.1658,6.0691,6.1147,6.2856,6.2731,6.3579,6.5289,6.7673,6.8182,6.7429,6.8186,6.8862,6.9265,6.7728,6.8148,6.9625,6.9814,6.8827,6.7464,0.0,0.0,0.0,0.0,0.0,0.0,0.0,0.0,0.0,5.2395,5.3922,5.5007,5.5019,5.6728,5.847,5.9964,5.9955,5.9917,6.0091,5.9307,5.8729,5.8538,5.8472,5.9163,6.0604,6.1544,6.2748,6.4324,6.4443,6.4481,6.4443,6.4364,6.4203,6.391,6.3647,6.3194,6.2645,6.0884,5.9889,5.9417,5.7738,5.6984,5.6829,5.6312,5.5641,5.4834,5.4117,5.3888,0.0,5.3709,5.4871,5.6405,5.6594,5.7791,5.9025,5.8574,5.7978,5.7411,5.7133,5.7456,5.7867,5.8044,5.835,5.8503,5.7992,5.8025,5.8182,5.8114,5.8503,5.9125,5.983,6.12,6.2322,0.0,6.4026,6.5718,6.7449,6.7975,6.874,7.0335,6.9884,6.9005,6.78,6.7458,6.6467,6.4438,6.4819,6.5727,6.6987,6.7895,6.8503,6.8704,6.8296,6.6688,6.3715,6.2927,6.1907,6.0577,6.0134,6.0887,6.2579,6.2579,6.4095,6.6831,6.8925,6.9395,6.8792,6.9546,6.957,6.9047,6.7926,6.8232,6.9284,6.9657,6.8679,6.7279,0.0,0.0,0.0,0.0,0.0,0.0,0.0,0.0,0.0,0.0,5.4502,5.5925,5.6368,5.7381,5.8548,5.9854,5.9787,5.9791,6.0121,5.9247,5.8559,5.8131,5.8257,5.8909,6.0116,6.1318,6.2519,6.3784,6.3909,6.4026,6.3946,6.3906,6.3701,6.3444,6.3308,6.2744,6.1821,6.0449,5.9631,5.9204,5.7406,5.6904,5.71,5.6395,5.6004,5.5652,5.4122,5.3869,5.4146,5.3396,5.4575,5.6302,5.628,5.7398,5.8693,5.8486,5.7835,5.7111,5.6962,5.7058,5.7356,5.809,5.8315,5.8202,5.7598,5.8141,5.8634,5.8085,5.8753,5.9553,5.9946,6.0836,6.1593,6.1966,6.3207,6.477,6.6602,6.7423,6.8448,6.999,6.9566,6.8831,6.7948,6.7452,6.6311,6.4164,6.4802,6.5727,6.6679,6.7505,6.8059,6.8254,6.7837,6.6039,6.2649,6.252,6.1619,5.9918,6.0405,6.1343,6.2585,6.3397,6.5137,6.7572,6.9531,6.9887,6.9171,7.0032,6.9745,6.8615,6.7972,6.8227,6.8929,6.9021,6.8022,6.6708,0.0,0.0,0.0,0.0,0.0,0.0,0.0,0.0,0.0,0.0,0.0,0.0,0.0,5.9863,6.0094,6.0817,6.0719,6.052,6.0217,5.9153,5.8094,5.7163,5.7783,5.8465,5.9214,6.0903,6.2217,6.2922,6.3006,6.3083,6.312,6.2882,6.2678,6.2544,6.273,6.1775,6.0063,5.9579,5.9313,5.9042,5.719,5.7311,5.8431,5.6617,5.6361,5.6772,5.4706,5.4417,5.4735,5.3308,5.4642,5.6742,5.6098,5.6977,5.8223,5.8179,5.7174,5.6129,5.6594,5.6814,5.7227,5.8651,5.8947,5.8868,5.8486,5.8984,5.9583,5.9597,5.9812,6.0142,6.0602,6.0997,6.1337,6.1715,6.2618,6.3897,6.5667,6.6562,6.762,6.9158,6.9273,6.882,0.0,6.6396,6.4862,6.3344,6.4012,6.491,6.5781,6.665,6.7445,6.8071,6.7343,6.558,6.2718,6.2687,6.178,6.0013,6.1581,6.2515,6.2887,6.5482,6.6659,6.6758,6.9218,6.9163,6.7392,6.8816,6.8795,6.7829,6.7659,6.8137,6.8809,6.795,6.678,6.5602,0.0,0.0,0.0,0.0,0.0,0.0,0.0,0.0,0.0,0.0,0.0,0.0,0.0,0.0,0.0,0.0,6.0104,6.0585,6.0217,5.9178,5.8386,5.7955,5.8681,5.929,5.9846,6.1166,6.2101,6.2715,6.232,6.2101,6.2058,6.1857,6.1608,6.1382,6.114,6.0893,6.0481,5.9475,5.9271,5.9495,5.7375,5.72,5.8072,5.6751,5.6445,5.6599,0.0,5.5133,5.5152,5.4459,5.5332,5.6712,5.6632,5.7376,5.8023,5.7235,5.6246,5.5611,5.664,5.6777,5.7005,5.8452,5.8825,5.8665,5.8006,5.8557,5.9173,5.9127,5.9808,6.033,6.0252,6.0603,6.1017,6.144,6.2399,6.3783,6.5639,6.6512,6.7505,6.9088,6.8646,0.0,0.0,0.0,0.0,6.4029,6.4638,6.5563,6.6535,6.6776,6.7295,6.8148,6.7202,6.5302,6.2525,6.2487,6.1553,5.9688,6.1619,6.3213,6.4581,6.6085,6.7011,6.7496,6.9417,6.9699,6.8903,6.9712,6.9409,6.8343,6.8156,6.8246,6.8357,6.6982,6.556,6.4406,0.0,0.0,0.0,0.0,0.0,0.0,0.0,0.0,0.0,0.0,0.0,0.0,0.0,0.0,0.0,0.0,0.0,6.0572,6.0275,5.9475,5.8722,5.7955,5.8571,5.9065,5.9358,6.026,6.112,6.1778,6.1379,6.112,6.108,6.0916,6.0661,6.0351,6.0188,5.9998,5.9835,5.9202,5.9281,5.9692,5.7846,5.7771,5.8616,5.7254,5.6772,0.0,5.6174,5.583,5.5668,5.5049,5.5764,5.7005,5.7271,5.7997,5.8432,5.7193,5.6309,5.5909,5.6772,5.6867,5.7032,5.8322,5.8619,5.8455,5.7886,5.8611,5.9344,5.931,5.992,6.0433,6.0314,6.0252,6.0146,6.037,6.1371,6.2782,6.4629,6.5493,6.659,6.8569,6.7791,6.7151,0.0,0.0,0.0,6.4314,6.4412,6.5126,6.6446,6.6173,6.65,6.7659,6.6376,6.4628,6.2454,6.2117,6.1451,6.0523,6.2155,6.3753,6.529,6.6841,6.761,6.7783,6.9391,6.974,6.9242,6.9703,6.9245,6.8203,6.821,6.8023,6.7566,6.6199,6.4594,6.3119,0.0,0.0,0.0,0.0,0.0,0.0,0.0,0.0,0.0,0.0,0.0,0.0,0.0,0.0,0.0,0.0,0.0,0.0,6.0321,6.0,5.9025,5.7347,5.7712,5.7941,5.7864,5.8492,5.9275,6.018,6.0105,6.0145,6.0224,6.0017,5.9721,5.9538,5.9761,5.9278,5.832,5.8716,5.9259,5.9681,5.8471,5.8888,5.9931,5.8009,5.7416,5.7436,5.6921,5.6586,5.6223,5.4948,5.5957,5.7704,5.7977,5.8799,5.9341,5.8032,5.7275,5.6906,5.6997,5.7044,5.7322,5.8264,5.8363,5.8238,5.8039,5.8988,5.9956,6.0099,6.0165,6.0295,0.0,0.0,5.9026,5.8639,5.9703,6.1162,6.2959,6.3802,6.5123,0.0,0.0,0.0,0.0,0.0,0.0,6.4123,0.0,6.3817,6.5503,6.4813,6.5092,6.6681,6.4985,6.3535,6.2406,6.1473,6.1448,6.2322,6.3186,6.4086,6.5099,6.7715,6.8365,6.761,6.9171,6.9322,6.8367,6.8784,6.8406,6.7496,6.7926,6.7539,6.6574,6.569,6.3849,6.1771,0.0,0.0,0.0,0.0,0.0,0.0,0.0,0.0,0.0,0.0,0.0,0.0,0.0,0.0,0.0,0.0,0.0,0.0,6.048,6.0129,5.9722,5.9214,5.9131,5.9027,5.8839,5.8351,5.8122,5.8223,5.8346,5.8385,5.8263,5.8859,5.8948,5.8555,5.8322,5.8651,5.9377,5.9023,5.9695,6.0724,5.8923,5.9107,6.0156,5.8324,5.7666,5.7763,5.8334,0.0,0.0,0.0,5.751,5.882,5.8867,5.9286,5.9553,5.8637,5.7608,5.6897,5.7182,5.7042,5.6969,5.8039,5.8179,5.8015,5.7785,5.8202,5.8819,5.9452,5.967,5.9866,6.0332,6.0083,0.0,6.0103,6.1325,0.0,6.4688,6.552,0.0,6.7521,0.0,6.6785,6.6031,6.5235,0.0,0.0,6.3802,6.4335,6.5307,6.4581,6.4581,6.5619,6.4596,6.3144,6.1265,6.0188,6.049,6.2178,6.2971,6.3946,6.5099,6.7607,6.8291,6.761,6.9171,6.9662,6.9275,6.9091,6.8697,6.8171,6.7996,6.7384,6.6345,6.4809,6.3222,6.1744,0.0,0.0,0.0,0.0,0.0,0.0,0.0,0.0,0.0,0.0,0.0,0.0,0.0,0.0,0.0,0.0,0.0,0.0,0.0,5.9712,5.9505,5.9381,5.8845,5.8455,5.8203,5.7192,5.6854,5.7109,5.7228,5.7414,5.767,5.8117,5.8322,5.8312,5.795,5.8543,5.9838,5.8969,5.949,0.0,0.0,5.91,5.9823,5.8879,5.8255,5.8104,5.9062,0.0,0.0,0.0,0.0,5.9795,6.021,6.0186,5.9905,5.935,5.8192,5.7084,5.7347,5.7207,5.7141,5.8006,5.8068,5.7936,5.7752,5.803,5.8609,5.9341,5.9559,5.9735,6.0121,6.0085,5.9852,0.0,0.0,0.0,6.4594,6.5404,6.6383,0.0,6.7275,0.0,6.603,6.4821,6.3763,0.0,6.3204,6.3556,6.4051,6.3937,6.4127,6.4686,6.4165,6.2905,6.0787,5.9328,5.9328,6.0717,6.2372,6.3276,6.3613,6.6976,6.7883,6.6823,6.8034,6.8709,6.8967,6.8503,6.8372,6.842,6.7967,6.6916,6.5513,6.4128,6.2515,6.0896,0.0,0.0,0.0,0.0,0.0,0.0,0.0,0.0,0.0,0.0,0.0,0.0,0.0,0.0,0.0,0.0,0.0,0.0,0.0,0.0,0.0,5.8867,5.799,5.7272,5.6922,5.5993,5.5809,5.6444,5.6631,5.7117,5.7789,5.7786,5.8033,5.8529,5.8334,5.8893,6.004,5.9081,5.9437,6.0464,5.9506,5.9345,5.9643,0.0,0.0,0.0,0.0,0.0,0.0,0.0,6.042,6.0676,6.147,6.1105,6.0286,6.0005,5.8682,5.7326,5.7304,5.7302,5.7449,5.7967,5.801,5.7905,5.7835,5.8033,5.8471,5.9421,5.9276,5.9275,6.0026,5.9758,5.9096,5.7962,0.0,6.1755,6.3606,6.4617,6.6027,6.8485,6.7089,6.5955,6.6023,6.433,6.2898,6.2027,6.2135,6.2243,6.2416,6.3175,6.3736,6.3872,6.3512,6.2511,6.0642,5.8878,5.8236,5.8855,6.1453,6.2245,6.1724,6.5946,6.7198,6.5953,6.6657,6.7443,6.8274,6.7838,6.8017,6.842,6.7715,6.6318,6.4676,6.3603,6.1858,5.991,0.0,0.0,0.0,0.0,0.0,0.0,0.0,0.0,0.0,0.0,5.6475,0.0,0.0,0.0,0.0,0.0,0.0,0.0,0.0,0.0,0.0,0.0,5.8887,5.7937,5.699,5.6772,5.6292,5.551,5.6893,5.764,5.7789,5.8461,5.8713,5.8693,5.9153,5.9825,6.0504,6.0737,6.1251,6.1787,6.0829,6.068,6.0867,0.0,0.0,0.0,0.0,0.0,0.0,0.0,6.1176,6.1361,6.1309,6.1038,6.0539,5.9726,5.8556,5.7438,5.7028,5.6897,5.7015,5.7595,5.7584,5.7544,5.7756,5.6942,0.0,5.9114,5.7745,5.6935,5.9538,5.8659,5.7553,5.7679,5.9508,6.1599,6.3541,6.5538,6.7237,0.0,6.7501,6.6176,6.486,6.365,0.0,0.0,6.1276,6.1691,6.1883,6.286,6.3423,6.3568,6.1994,6.0868,6.0377,5.9086,5.8386,5.8443,6.0395,6.1348,6.1442,6.4495,6.6162,6.6579,6.7443,0.0,6.8847,6.8705,6.8538,6.8198,6.6932,6.6171,6.5478,6.3148,6.1802,6.093,0.0,0.0,0.0,0.0,0.0,0.0,0.0,0.0,0.0,5.4985,5.5891,5.6485,0.0,0.0,0.0,0.0,0.0,0.0,0.0,0.0,0.0,0.0,0.0,0.0,0.0,5.6541,5.5988,5.5397,0.0,5.723,5.723,5.8053,5.8574,5.8862,5.9515,6.0152,6.0692,6.0919,6.1213,6.16,6.0799,6.0682,0.0,0.0,0.0,0.0,0.0,0.0,0.0,0.0,6.1536,6.1792,6.1251,6.0105,5.8896,5.8446,5.756,5.6659,5.6418,5.6544,5.6783,5.7289,5.7386,5.7471,5.7634,5.6712,5.6382,5.8549,5.7485,5.6659,5.8359,5.8128,5.7472,5.685,5.899,6.1204,6.2591,6.5275,6.7462,6.8334,6.7615,6.6517,6.5236,6.3383,6.1724,6.0372,6.0505,6.0543,6.0453,6.1808,6.2937,6.3764,6.2108,6.1012,6.0613,5.872,5.7832,5.8088,5.953,6.0396,6.0929,6.3363,6.4918,6.5746,6.6157,6.7016,6.8128,6.8017,6.8086,6.8047,6.6626,6.597,6.5493,6.2875,6.1806,6.1438,0.0,0.0,0.0,0.0,0.0,0.0,0.0,5.2989,5.3557,5.4002,5.5346,5.6251,5.6397,5.6265,5.6233,0.0,0.0,0.0,0.0,0.0,0.0,0.0,0.0,0.0,0.0,0.0,0.0,5.5613,5.674,0.0,0.0,0.0,0.0,0.0,5.9905,6.0512,6.0921,6.1117,6.136,0.0,0.0,6.0901,0.0,0.0,0.0,0.0,0.0,0.0,0.0,0.0,6.1256,6.1207,6.0501,5.9042,5.7534,5.7335,5.6595,5.5857,5.5887,5.6206,5.6593,5.7005,5.7193,5.7334,5.7537,5.6566,5.6161,5.7782,5.6978,5.6255,5.717,5.7373,5.7149,0.0,5.8122,6.0152,6.1541,6.4289,6.6666,6.8103,6.7347,0.0,6.5576,6.3118,0.0,5.9912,5.9621,5.9584,5.9844,6.1201,6.2553,6.3701,6.2358,6.1255,6.0515,5.8349,5.75,5.7971,5.8647,5.9549,6.0628,6.2392,6.3845,6.4958,6.519,6.6165,6.755,6.7395,6.7617,6.7893,6.6335,6.5694,6.5322,6.2526,6.1751,6.1824,0.0,0.0,0.0,0.0,0.0,0.0,0.0,5.2831,5.3028,5.4741,5.519,5.5589,5.6319,5.629,5.6456,0.0,0.0,0.0,0.0,0.0,0.0,0.0,0.0,0.0,0.0,0.0,0.0,5.5885,5.8119,0.0,0.0,0.0,0.0,0.0,0.0,6.1288,6.1348,6.2575,0.0,0.0,0.0,0.0,0.0,0.0,0.0,0.0,0.0,0.0,0.0,0.0,0.0,5.85,5.8033,5.8131,5.8188,5.7339,0.0,0.0,5.5844,5.6028,5.6319,5.673,5.6814,5.6975,5.7491,5.6045,5.5171,5.692,5.5219,5.4223,5.674,5.5858,5.5119,5.6565,5.6755,5.7813,6.1055,6.2369,6.4299,6.7793,0.0,0.0,6.4512,6.2459,6.0444,5.8757,5.8467,5.9382,6.1797,6.219,6.2426,6.2575,6.1515,6.0441,5.9375,5.828,5.7923,5.8326,5.7972,5.8945,6.1135,6.1679,6.3198,6.5409,6.6359,6.7259,0.0,6.8111,6.8033,6.754,6.5496,6.5185,6.5363,6.18,6.1299,6.2126,0.0,0.0,0.0,0.0,0.0,0.0,0.0,5.2482,5.2783,5.4157,5.484,5.5511,5.6319,5.629,5.6276,0.0,0.0,0.0,0.0,0.0,0.0,0.0,0.0,0.0,0.0,0.0,0.0,5.6635,5.8144,0.0,0.0,0.0,0.0,0.0,0.0,6.1409,6.1267,6.2851,0.0,0.0,0.0,0.0,0.0,0.0,0.0,0.0,0.0,0.0,6.164,6.1272,0.0,0.0,5.8805,5.8774,0.0,0.0,5.5599,5.5329,5.5601,5.5729,5.5883,5.6329,5.6492,5.6595,5.7024,5.5607,5.4603,5.616,5.5014,5.4151,5.5582,5.5426,5.5265,5.5822,5.6446,5.7348,5.872,6.0598,6.2556,6.4599,6.4192,0.0,0.0,0.0,5.9542,5.7597,5.7921,5.8841,6.0184,6.1106,6.1456,6.132,6.0941,6.012,5.8835,5.7886,5.747,5.7438,5.7282,5.8202,6.0033,6.0923,6.2662,6.5071,6.614,6.7141,0.0,6.7952,6.7794,6.7378,6.5202,6.4924,6.5322,6.2119,6.2109,6.3548,0.0,0.0,0.0,0.0,0.0,0.0,5.1669,5.1886,5.2265,5.3263,5.4216,5.5121,5.593,5.6135,5.616,5.6029,0.0,0.0,0.0,0.0,0.0,0.0,0.0,0.0,0.0,0.0,0.0,5.6468,5.7629,5.8094,0.0,0.0,5.9363,5.9703,0.0,0.0,0.0,0.0,0.0,0.0,0.0,0.0,0.0,0.0,0.0,0.0,0.0,0.0,0.0,0.0,0.0,0.0,0.0,5.923,5.897,5.6656,5.5793,5.5619,5.5777,5.5683,5.5671,5.6012,5.6233,5.6348,5.6665,5.5359,5.4307,5.5338,5.4453,5.3724,5.4363,5.4869,5.5341,5.5537,5.6055,5.67,5.7353,5.8677,6.0295,6.2203,0.0,6.1395,0.0,5.9892,5.8332,5.6666,5.7464,5.816,5.8373,5.9659,6.0287,6.0147,6.01,5.9457,5.8159,5.7478,5.7129,5.7119,5.7241,5.8106,5.9581,6.1027,6.2767,6.4731,6.6062,6.7046,0.0,6.7596,6.7323,6.6736,6.4845,6.4347,6.4419,6.2354,6.2573,6.3838,0.0,0.0,0.0,0.0,0.0,0.0,0.0,5.0966,5.1386,5.2368,5.3321,5.4225,5.5034,5.5746,5.616,5.6029,0.0,0.0,0.0,0.0,0.0,0.0,0.0,0.0,0.0,0.0,0.0,0.0,0.0,5.7415,5.7332,5.8065,5.9206,6.0717,0.0,0.0,0.0,0.0,0.0,0.0,0.0,0.0,0.0,0.0,0.0,0.0,0.0,0.0,0.0,0.0,0.0,0.0,0.0,5.9059,5.8609,5.7938,5.7349,5.681,5.6666,5.614,5.5735,5.586,5.6082,5.6294,5.6577,5.5257,5.4044,5.4384,5.3068,5.2253,5.3308,5.4002,5.4819,5.6171,5.5317,5.5337,5.7675,5.6515,5.7106,0.0,0.0,5.9235,6.1056,5.8585,5.6667,5.6038,5.6988,0.0,5.7072,5.8187,5.8872,5.9018,5.8872,5.8224,5.7021,5.6984,5.7261,5.7782,5.7945,5.8826,6.0408,6.2329,6.3599,6.4525,6.6405,6.721,0.0,6.721,6.6567,6.5482,6.436,6.3334,6.251,6.2331,6.2184,6.2223,0.0,0.0,0.0,0.0,0.0,0.0,0.0,5.0937,5.1373,5.2375,5.3312,5.4225,5.4996,5.5746,5.616,5.6062,0.0,0.0,0.0,0.0,0.0,0.0,0.0,0.0,0.0,0.0,0.0,0.0,0.0,0.0,0.0,0.0,5.8974,5.9963,6.1281,6.1917,0.0,0.0,0.0,0.0,0.0,0.0,0.0,0.0,0.0,0.0,0.0,0.0,0.0,0.0,0.0,0.0,0.0,0.0,0.0,6.0367,5.8461,5.6571,5.6786,5.6094,5.5297,5.5062,5.5519,5.5764,5.4759,5.4243,0.0,0.0,0.0,5.3717,5.4054,5.5073,5.5988,5.622,5.625,5.641,5.6942,0.0,0.0,5.8125,5.7081,5.6546,0.0,0.0,5.5009,5.5293,5.62,5.6843,5.6984,5.7543,5.7886,5.7886,5.8432,5.8123,5.7021,5.6881,5.6867,5.683,5.7421,5.8264,5.9337,6.1199,6.2903,6.4354,6.5654,6.6587,6.721,6.7097,6.6453,6.5482,6.4243,6.3633,6.3274,6.1807,6.2188,6.3465,0.0,0.0,0.0,0.0,0.0,0.0,0.0,5.0906,5.1244,5.1886,5.3088,5.4051,5.4557,5.5539,5.616,5.6133,0.0,0.0,0.0,0.0,0.0,0.0,0.0,0.0,0.0,0.0,0.0,0.0,0.0,0.0,0.0,0.0,0.0,0.0,6.1055,0.0,0.0,0.0,0.0,0.0,0.0,0.0,6.3326,0.0,0.0,0.0,0.0,0.0,0.0,0.0,0.0,0.0,0.0,0.0,0.0,0.0,5.93,5.7469,5.7882,5.6972,5.5939,5.5613,5.5588,5.537,5.4277,5.3761,0.0,0.0,0.0,5.4071,5.4517,5.5765,5.6593,5.6325,5.6698,5.6905,5.6639,0.0,0.0,5.513,0.0,0.0,0.0,5.4546,5.4629,5.4907,5.5982,5.6681,5.6776,5.7036,5.7138,5.7087,5.7746,5.7695,5.7021,5.71,5.7084,5.6957,5.8009,5.8702,5.9238,6.1157,6.2767,6.4144,6.5229,6.6256,0.0,6.6961,6.6134,6.4852,6.4375,6.3668,6.2913,6.2337,6.2867,6.3908,0.0,0.0,0.0,0.0,0.0,0.0,0.0,0.0,0.0,5.1062,5.2669,5.3799,5.3807,5.5242,5.617,5.6117,0.0,0.0,0.0,0.0,0.0,0.0,0.0,0.0,0.0,0.0,0.0,5.6483,5.5607,5.5998,5.7506,0.0,0.0,0.0,0.0,0.0,0.0,0.0,0.0,0.0,6.3867,6.3691,0.0,0.0,0.0,0.0,0.0,0.0,0.0,0.0,0.0,0.0,0.0,0.0,0.0,0.0,0.0,0.0,0.0,5.8708,5.7376,5.7105,5.6262,5.5365,5.4775,0.0,0.0,0.0,0.0,0.0,5.4811,5.6041,5.6794,5.643,5.6772,5.6978,5.6722,5.5136,0.0,0.0,5.4309,0.0,5.3097,5.4355,5.5098,5.4813,5.6052,5.674,5.6383,5.6653,5.676,5.66,5.6933,5.7123,5.7093,5.7622,5.7889,5.7889,5.9259,5.9916,5.9951,6.1875,6.3141,0.0,6.5113,6.6062,6.6786,6.6786,6.5586,6.3896,6.4552,6.3574,6.1905,6.3605,6.3867,6.3636,0.0,0.0,0.0,0.0,0.0,0.0,0.0,0.0,0.0,0.0,5.2613,5.3747,5.3786,5.523,5.617,0.0,0.0,0.0,0.0,0.0,0.0,0.0,0.0,0.0,0.0,0.0,0.0,5.732,5.6483,5.6606,5.7506,5.7476,0.0,0.0,0.0,0.0,0.0,0.0,0.0,0.0,6.3873,6.3654,0.0,0.0,0.0,0.0,6.2953,6.2953,0.0,0.0,0.0,0.0,0.0,0.0,0.0,0.0,6.1749,6.1623,6.229,0.0,5.8096,5.687,5.7299,5.7263,0.0,0.0,0.0,0.0,0.0,0.0,0.0,5.6675,5.7425,5.6546,5.7376,5.796,5.7584,0.0,0.0,0.0,5.3471,5.2762,5.247,5.3243,5.3927,5.4439,5.5374,5.606,5.6347,5.6546,5.6653,5.66,5.6707,5.7047,5.7604,5.8374,5.8657,5.8509,5.9452,5.9916,5.9951,6.1875,6.3141,6.3932,6.5113,6.5967,6.6572,6.6572,6.579,6.4624,6.4555,6.4251,6.376,6.2754,6.3172,6.4045,0.0,0.0,0.0,0.0,0.0,0.0,0.0,0.0,0.0,0.0,0.0,0.0,0.0,0.0,0.0,0.0,0.0,0.0,0.0,0.0,0.0,0.0,0.0,0.0,0.0,0.0,0.0,0.0,0.0,5.6768,0.0,0.0,0.0,0.0,0.0,0.0,0.0,0.0,0.0,0.0,6.4,0.0,0.0,0.0,0.0,0.0,6.3194,6.3194,0.0,6.1661,6.2113,6.2862,0.0,0.0,0.0,0.0,6.1745,6.1927,6.3142,6.1678,5.9545,5.857,5.8215,5.7333,5.4597,0.0,0.0,0.0,0.0,0.0,0.0,0.0,5.784,5.7057,5.7773,5.8107,0.0,0.0,0.0,5.4313,5.3086,5.2422,0.0,5.3396,5.4122,5.4957,5.563,5.6116,5.6383,5.6437,5.6492,5.6492,5.6849,5.7173,5.7353,5.8335,5.8852,5.8831,5.9916,6.0451,6.0487,6.2018,6.3141,6.3932,6.5113,6.5908,6.6512,6.6512,6.5776,6.4662,6.4955,6.4444,6.3648,6.396,6.4073,6.4013,0.0,0.0,0.0,0.0,0.0,0.0,0.0,0.0,0.0,0.0,0.0,0.0,0.0,0.0,0.0,0.0,0.0,0.0,0.0,0.0,0.0,0.0,0.0,0.0,0.0,0.0,0.0,0.0,0.0,0.0,0.0,0.0,5.9127,0.0,0.0,0.0,0.0,0.0,0.0,0.0,6.4169,0.0,0.0,0.0,0.0,0.0,0.0,0.0,0.0,6.217,6.2419,6.2878,6.1116,0.0,0.0,0.0,0.0,0.0,6.3185,6.2437,6.1151,6.0944,5.9328,5.7391,5.5848,0.0,0.0,0.0,0.0,0.0,0.0,0.0,0.0,5.7752,5.8068,0.0,5.6942,5.5895,5.4905,5.4044,5.3075,0.0,5.3505,5.4065,5.4756,5.5692,5.617,5.6383,5.6383,5.6525,5.6525,5.6383,5.7168,5.735,5.6939,5.8244,5.8973,5.9158,6.0474,6.1093,6.1129,6.2377,6.3249,6.3932,6.5199,0.0,6.6452,6.6452,6.5689,6.4621,6.5283,6.4463,6.326,6.5349,6.5286,6.4353,0.0,0.0,0.0,0.0,0.0,0.0,0.0,0.0,0.0,0.0,0.0,0.0,0.0,0.0,0.0,0.0,0.0,0.0,0.0,0.0,0.0,0.0,0.0,0.0,0.0,0.0,0.0,0.0,0.0,0.0,5.7536,5.85,5.9277,5.989,0.0,0.0,0.0,0.0,0.0,6.3464,6.4024,0.0,0.0,0.0,0.0,0.0,0.0,0.0,0.0,6.1542,6.1976,6.2889,6.1043,0.0,0.0,0.0,0.0,0.0,6.3489,6.2996,6.2205,6.2271,6.1843,6.0624,0.0,0.0,0.0,0.0,0.0,0.0,0.0,0.0,0.0,0.0,0.0,5.8142,0.0,0.0,5.535,5.4891,0.0,5.2785,5.3472,5.4022,5.4697,5.5398,5.6134,5.6492,5.6383,5.7025,5.7096,5.6418,5.7168,5.758,5.7438,5.8952,5.9737,5.9737,6.0665,6.1093,6.1165,6.2951,6.3788,6.3968,0.0,6.6344,6.633,6.6146,6.576,6.5297,6.4634,6.4928,6.5605,6.4043,6.4831,6.6743,0.0,0.0,0.0,0.0,0.0,0.0,0.0,0.0,0.0,0.0,0.0,0.0,0.0,0.0,0.0,0.0,0.0,0.0,0.0,0.0,0.0,0.0,5.7172,5.7762,5.7145,5.872,0.0,0.0,0.0,5.869,5.831,5.9095,5.9544,5.9753,0.0,0.0,0.0,6.177,6.241,6.3161,0.0,0.0,0.0,0.0,0.0,0.0,0.0,0.0,0.0,0.0,6.264,6.3025,6.2118,0.0,0.0,0.0,0.0,0.0,6.3709,6.3225,6.2798,6.3965,6.324,0.0,0.0,0.0,0.0,0.0,0.0,0.0,0.0,0.0,0.0,0.0,0.0,5.8762,5.8297,5.7059,5.6006,0.0,0.0,5.3422,5.4218,5.4337,5.4856,5.606,5.6438,5.6546,5.6383,5.7132,5.7418,5.7061,5.7774,5.8203,5.8203,5.9345,5.9916,5.9916,6.0736,6.1093,6.1165,6.2976,6.3837,6.3968,0.0,6.6704,6.704,6.6854,6.6825,6.6754,6.6199,6.6032,6.6003,6.5127,6.6356,6.8468,0.0,0.0,0.0,0.0,0.0,0.0,0.0,0.0,0.0,0.0,0.0,0.0,0.0,0.0,0.0,0.0,0.0,0.0,0.0,0.0,5.5967,5.5861,5.7311,5.7787,5.7145,5.8623,5.9109,5.8525,5.8997,5.9273,5.9331,5.9652,5.9757,5.9685,0.0,0.0,6.1243,6.0867,6.1394,6.2557,0.0,0.0,0.0,0.0,0.0,0.0,0.0,0.0,0.0,0.0,0.0,0.0,0.0,0.0,0.0,6.2581,6.2574,6.2814,6.3782,6.3474,6.335,0.0,0.0,0.0,0.0,0.0,0.0,0.0,0.0,0.0,0.0,5.8458,0.0,5.843,5.9116,5.9381,5.8517,5.753,5.6625,5.5728,5.4756,5.4418,5.5,5.493,5.5368,5.6704,5.6707,5.6671,5.6668,5.7418,5.7846,5.7846,5.8595,5.8988,5.8988,5.9594,5.9916,5.9916,6.0736,6.12,6.1414,6.2988,6.3992,6.4543,6.6067,6.7173,6.7956,6.7779,6.7783,6.7923,6.7439,6.6809,6.611,6.6977,6.8243,6.9487,0.0,0.0,0.0,0.0,0.0,0.0,0.0,0.0,0.0,0.0,0.0,0.0,0.0,0.0,0.0,0.0,0.0,0.0,0.0,0.0,5.6783,5.6712,5.7594,5.8387,5.8999,5.9779,6.0265,6.0326,6.0283,6.0293,6.0293,5.995,5.9824,5.9853,0.0,0.0,0.0,6.0417,6.0716,6.0904,6.2519,0.0,0.0,0.0,0.0,0.0,0.0,0.0,0.0,0.0,0.0,0.0,0.0,0.0,6.3002,6.299,6.2792,6.2823,6.3897,6.3943,6.4207,6.627,0.0,0.0,0.0,0.0,0.0,0.0,0.0,0.0,0.0,0.0,5.9992,5.8622,5.9183,5.9449,5.8503,0.0,5.689,5.5902,5.5581,5.5367,5.5212,5.5727,5.6247,5.6793,5.6812,5.703,5.7509,5.8238,5.8631,5.8631,5.9416,5.9809,5.9809,5.988,5.9916,5.9916,6.0736,6.1486,6.2235,6.3274,6.4602,6.6161,6.7024,6.7976,6.8786,6.8507,6.8249,6.795,6.6904,6.6451,6.6633,6.9017,6.9643,6.9372,0.0,0.0,0.0,0.0,0.0,0.0,0.0,0.0,0.0,0.0,0.0,0.0,0.0,0.0,0.0,0.0,0.0,0.0,0.0,0.0,5.7728,5.7751,5.8399,5.9192,6.0035,6.03,6.0693,6.1245,6.0571,6.0313,6.0408,5.9885,5.9753,5.9885,0.0,0.0,0.0,5.9966,6.0454,6.1507,6.207,6.2672,0.0,0.0,0.0,0.0,0.0,0.0,0.0,0.0,6.2841,6.2845,6.2743,6.2899,6.3113,6.3051,6.2953,6.3038,6.4046,6.4267,6.4635,6.6581,0.0,0.0,0.0,0.0,0.0,0.0,0.0,0.0,0.0,0.0,6.0822,5.9173,5.9886,6.0178,5.8646,5.8196,5.7524,5.615,5.619,5.608,5.5377,5.5895,5.6418,5.6897,5.7297,5.7622,5.7727,5.8831,5.9452,5.9452,6.0237,6.0665,6.0665,6.0511,6.07,6.1199,6.164,6.2175,6.2933,6.4341,6.5484,6.6377,6.7545,6.8994,7.0464,6.9382,6.9475,7.016,6.9283,6.9243,6.9804,7.1035,7.0985,7.0357,0.0,0.0,0.0,0.0,0.0,0.0,0.0,0.0,0.0,0.0,0.0,0.0,0.0,0.0,0.0,0.0,0.0,0.0,0.0,5.8642,5.8596,5.8642,5.9013,5.974,6.0916,6.0633,6.0901,6.1732,6.0714,6.0275,6.0342,5.9815,5.9685,5.9786,0.0,0.0,6.0191,0.0,6.0229,6.1582,6.1808,6.241,0.0,0.0,0.0,0.0,0.0,0.0,0.0,0.0,6.2951,6.2999,6.3084,6.3147,6.3173,6.3099,6.3014,6.3272,6.4524,6.4879,6.5334,0.0,0.0,0.0,0.0,0.0,0.0,0.0,0.0,0.0,0.0,0.0,0.0,0.0,6.0351,6.0506,5.9042,5.8634,5.8011,5.6603,5.6983,5.6904,5.5916,5.6306,5.6757,5.7,5.7637,5.8053,5.8085,5.9259,6.0023,6.0272,6.0808,6.1093,6.1093,6.1188,6.16,6.2257,6.279,6.3244,6.3626,6.5134,6.6245,6.707,6.8586,7.0217,7.1729,7.0601,7.0588,7.1304,7.0796,7.1066,7.1728,7.2066,7.1559,7.0802,0.0,0.0,0.0,0.0,0.0,0.0,0.0,0.0,0.0,0.0,0.0,0.0,0.0,0.0,0.0,0.0,0.0,0.0,0.0,5.9465,5.9418,5.9418,5.9294,5.9982,6.1666,6.0846,6.0873,6.1773,6.0797,6.0265,6.0188,5.9782,5.9616,0.0,0.0,0.0,0.0,0.0,5.9965,6.0827,6.1732,6.2561,6.3314,0.0,0.0,0.0,0.0,0.0,0.0,0.0,6.2216,6.2324,6.3141,6.3268,6.321,6.3184,6.3099,6.3419,6.5371,6.5959,0.0,0.0,0.0,0.0,0.0,0.0,0.0,0.0,0.0,0.0,0.0,0.0,0.0,6.043,6.0434,6.0387,5.9656,5.8961,5.819,5.7381,5.7962,5.7973,5.6895,5.7288,5.7437,5.7036,5.7637,5.825,5.8667,5.9487,6.0272,6.1058,6.1093,6.1093,6.1093,6.1914,6.2479,6.2946,6.4045,6.4563,6.4408,6.5383,6.6789,6.8493,7.0267,7.1615,7.2503,7.2068,7.1481,7.0832,7.0832,7.1325,7.2026,7.218,7.1403,7.0364,0.0,0.0,0.0,0.0,0.0,0.0,0.0,0.0,0.0,0.0,0.0,0.0,0.0,0.0,0.0,0.0,0.0,0.0,0.0,6.0373,6.0325,6.0373,6.0201,6.0379,6.0981,6.0712,6.0686,6.0968,6.0474,6.0255,6.0265,5.983,5.9643,5.9673,0.0,0.0,0.0,0.0,6.0792,6.173,6.2521,6.3424,6.4291,0.0,0.0,0.0,0.0,0.0,0.0,0.0,0.0,0.0,6.254,6.2788,6.3184,6.3231,6.3553,6.4266,6.5626,0.0,0.0,0.0,0.0,0.0,0.0,0.0,0.0,0.0,0.0,0.0,0.0,0.0,0.0,6.0099,6.0298,6.0186,5.891,5.8591,5.8233,5.7542,5.8005,5.8017,5.6993,5.7298,5.7486,5.7289,5.7742,5.8304,5.8984,5.9602,6.0272,6.1058,6.1628,6.1914,6.1914,6.2577,6.3235,6.3953,6.433,6.4657,6.5131,6.6672,6.8177,6.9512,7.0929,7.2462,7.406,7.3404,7.2545,7.1678,7.1938,7.245,7.3256,7.3671,7.2765,7.1503,0.0,0.0,0.0,0.0,0.0,0.0,0.0,0.0,0.0,0.0,5.4062,5.5318,0.0,0.0,0.0,0.0,0.0,0.0,0.0,0.0,6.0757,6.0781,6.061,6.0379,6.0061,6.0073,6.0073,6.0035,6.0141,6.0189,6.0168,5.9772,5.9609,5.9605,0.0,5.9552,5.9962,6.0416,6.1356,6.2561,6.3086,6.3835,6.4664,0.0,0.0,0.0,0.0,0.0,0.0,0.0,0.0,0.0,6.2826,6.2872,6.3194,6.3194,6.3564,6.4166,6.5086,0.0,0.0,0.0,0.0,0.0,0.0,0.0,0.0,0.0,0.0,0.0,0.0,0.0,0.0,6.03,6.0208,5.9846,5.8841,5.8452,5.8215,5.7988,5.8227,5.8128,5.7567,5.7914,5.8105,5.786,5.8605,5.9204,5.9506,6.0067,6.0594,6.1093,6.1878,6.2271,6.2271,6.3253,6.3974,6.4372,6.4757,6.5083,6.545,6.7242,6.8929,7.0375,7.2211,7.3608,7.4539,7.4047,7.329,7.2453,7.2248,7.3002,7.4147,7.4042,7.3448,7.2832,0.0,0.0,5.5597,5.6453,0.0,0.0,0.0,0.0,0.0,0.0,5.4463,5.5182,0.0,0.0,0.0,0.0,0.0,0.0,0.0,0.0,6.0781,6.0781,6.066,6.0188,5.9224,5.9366,5.9393,5.9293,5.9824,6.0065,6.0007,5.9719,5.9545,5.9472,5.9327,5.9778,6.0604,6.068,6.1694,6.327,6.3427,6.3951,6.4626,6.4664,0.0,0.0,0.0,0.0,0.0,0.0,0.0,0.0,6.3461,6.3308,6.3194,6.3121,6.3194,6.349,0.0,0.0,0.0,0.0,0.0,0.0,0.0,0.0,0.0,0.0,0.0,0.0,6.3108,6.2197,6.1312,6.0811,6.0122,5.9481,5.9187,5.851,5.8179,5.8614,5.8523,5.843,5.8504,5.8906,5.9066,5.8746,5.9815,6.0411,6.0167,6.0711,6.1058,6.12,6.1985,6.2414,6.2485,6.3984,6.467,6.4579,6.549,6.5818,6.5794,6.7451,6.9292,7.1215,7.3956,7.4788,7.426,7.4226,7.3754,7.3053,7.2155,7.3011,7.4706,7.3764,7.3726,7.4218,0.0,0.0,5.713,5.7349,0.0,0.0,0.0,0.0,0.0,0.0,0.0,0.0,0.0,0.0,0.0,0.0,0.0,0.0,0.0,0.0,6.0757,6.071,6.0695,6.0545,6.0212,6.0226,6.0238,6.013,5.9529,5.9502,5.9979,5.9722,5.9499,5.9327,5.929,5.9778,6.0641,6.1239,6.2257,6.3427,6.4068,6.4519,6.4815,6.4705,6.4631,0.0,0.0,0.0,0.0,0.0,0.0,0.0,6.2252,6.2517,6.3224,6.2595,6.3205,6.4192,0.0,0.0,0.0,0.0,0.0,0.0,0.0,0.0,0.0,0.0,0.0,0.0,6.2543,6.1444,6.0346,6.026,5.9908,5.9429,5.8896,5.8427,5.8268,5.8529,5.8529,5.8702,5.9279,5.9237,5.9333,5.9698,5.9756,5.9962,6.0336,6.0346,6.0818,6.1985,6.277,6.3448,6.4091,6.5054,6.5554,6.549,6.6339,6.6987,6.7429,6.8556,7.0585,7.344,7.5584,7.5478,7.3938,7.5111,7.4673,7.3012,7.2485,7.3308,7.4776,7.4391,7.4559,7.5049,0.0,0.0,0.0,0.0,0.0,0.0,0.0,0.0,0.0,0.0,0.0,0.0,0.0,0.0,0.0,0.0,0.0,0.0,0.0,0.0,0.0,6.0695,6.0719,6.0479,5.9894,5.992,5.9894,5.9797,5.9262,0.0,0.0,0.0,0.0,5.9815,5.9815,6.0528,6.1731,6.2138,6.2932,6.3917,6.4407,6.4705,6.4779,6.4707,6.4669,6.4668,6.4405,0.0,0.0,0.0,0.0,0.0,0.0,0.0,6.3453,6.2599,6.3185,6.4142,0.0,0.0,0.0,0.0,0.0,0.0,0.0,0.0,0.0,0.0,0.0,6.2242,6.2521,6.1413,6.0308,5.9916,5.9409,5.8862,5.8316,5.7959,5.7867,5.8363,5.8443,5.8776,5.9501,5.9854,6.0173,6.0551,6.0731,6.0865,6.1004,6.1157,6.1592,6.2271,6.3377,6.4198,6.4626,6.5411,6.574,6.5675,6.6067,6.7212,6.9064,7.041,7.2154,7.4262,7.6087,7.6159,7.5006,7.5787,7.5555,7.4632,7.3615,7.4332,7.5859,7.5262,7.5358,7.5777,0.0,0.0,0.0,0.0,0.0,0.0,0.0,0.0,0.0,0.0,0.0,0.0,0.0,0.0,0.0,0.0,0.0,0.0,0.0,0.0,0.0,6.0681,6.0719,6.0339,5.9472,5.9472,5.9446,5.9338,0.0,0.0,0.0,0.0,0.0,6.0636,6.0631,6.1459,6.2935,6.2891,6.3496,6.4406,6.4519,6.463,6.4707,6.4708,6.467,6.4707,6.4634,6.4596,6.4558,6.4364,0.0,0.0,0.0,0.0,6.3674,6.278,6.2997,6.3512,0.0,0.0,0.0,0.0,0.0,0.0,0.0,0.0,0.0,6.3511,6.2831,6.2494,6.2435,6.1545,6.0569,5.987,5.9017,5.8374,5.8016,5.7526,5.7486,5.8186,5.8356,5.8806,5.9723,6.0424,6.0967,6.139,6.1875,6.2096,6.1831,6.2269,6.2558,6.2724,6.401,6.4697,6.484,6.5419,6.564,6.551,6.5729,6.7572,7.0734,7.2157,7.3404,7.4512,7.6303,7.666,7.6004,7.6142,7.6122,7.5794,7.4229,7.4693,7.6196,7.5422,7.5532,7.5864,0.0,0.0,0.0,0.0,0.0,0.0,0.0,0.0,0.0,0.0,5.8017,5.8796,0.0,0.0,0.0,0.0,0.0,0.0,0.0,0.0,0.0,6.0584,6.0622,6.0559,6.0418,6.0338,6.0272,6.03,0.0,0.0,0.0,0.0,0.0,6.177,0.0,0.0,6.3083,6.2956,6.3484,6.4439,6.4558,6.4633,6.4708,6.4634,6.4708,6.4817,6.4521,6.452,6.4558,6.4364,6.4364,0.0,0.0,0.0,6.385,6.2944,6.2673,6.2619,0.0,0.0,0.0,0.0,0.0,0.0,0.0,0.0,6.5059,0.0,6.251,6.1681,6.1354,6.101,6.0722,6.0529,5.9348,5.853,5.856,5.787,5.7534,5.7997,5.8312,5.9035,6.0498,6.0757,6.1187,6.2141,6.2202,6.235,6.2795,6.2731,6.3239,6.4516,6.4767,6.5073,6.5625,6.5604,6.551,6.5545,6.6763,6.9102,7.2442,7.2585,7.3511,7.519,7.6874,7.6581,7.4917,7.6382,7.5584,7.3245,7.236,7.2372,7.2881,7.3438,7.3851,7.4239,0.0,0.0,0.0,0.0,0.0,0.0,0.0,0.0,0.0,0.0,0.0,5.8961,0.0,0.0,0.0,5.8902,5.995,6.0674,6.0567,6.0529,0.0,0.0,6.061,6.0585,6.0545,6.0545,6.048,0.0,0.0,0.0,0.0,6.1152,6.1618,0.0,0.0,0.0,0.0,0.0,0.0,6.4402,6.4481,6.4558,6.467,6.4634,6.4671,6.4743,6.4596,0.0,0.0,0.0,0.0,6.4407,6.3502,0.0,0.0,0.0,6.3185,0.0,0.0,0.0,0.0,0.0,0.0,0.0,6.8081,0.0,6.5668,6.433,6.3088,6.2004,6.1458,6.145,6.1351,6.0767,5.9714,5.8768,5.8485,5.7567,5.7138,5.7583,5.8364,5.9366,6.0545,6.1051,6.1594,6.2324,6.2675,6.2948,6.2975,6.3631,6.4339,6.4875,6.5242,6.5447,6.564,6.5675,6.5824,6.6185,6.7121,6.9139,7.2015,7.1979,7.3154,7.5296,7.683,7.664,7.5266,7.5974,7.5423,7.401,7.3116,7.3212,7.3867,7.4391,7.4469,7.4538,0.0,0.0,0.0,0.0,0.0,0.0,0.0,0.0,0.0,0.0,0.0,0.0,0.0,0.0,0.0,0.0,5.9979,6.0649,6.0578,6.054,0.0,0.0,0.0,6.0533,6.048,6.0571,6.0545,0.0,0.0,0.0,6.1393,6.1462,6.2024,0.0,6.2925,0.0,0.0,0.0,0.0,0.0,6.4366,6.4521,6.467,6.4634,6.4671,6.4743,6.4671,0.0,0.0,0.0,0.0,0.0,0.0,0.0,0.0,0.0,0.0,0.0,0.0,0.0,0.0,6.7419,6.7626,6.7598,0.0,0.0,6.5888,0.0,6.3563,6.263,6.1759,6.1676,6.1529,6.0828,5.984,5.8915,5.8224,5.7412,5.6939,5.7325,5.8275,5.9328,6.0498,6.1018,6.1715,6.2668,6.3111,6.3437,6.3703,6.4649,6.5298,6.5546,6.5779,6.5982,6.618,6.6245,6.6672,6.7323,6.7756,6.9315,7.173,7.173,7.3119,7.5581,7.6498,7.6305,7.5443,7.5458,7.4976,7.4185,7.3677,7.3747,7.4282,7.4822,7.4961,7.4939,0.0,0.0,0.0,0.0,0.0,0.0,0.0,0.0,0.0,0.0,0.0,0.0,0.0,6.0647,6.0647,6.0589,6.0666,6.0633,6.0533,6.048,6.0491,0.0,0.0,0.0,6.048,6.048,0.0,0.0,0.0,0.0,6.1431,6.2097,6.2732,6.3276,6.2888,6.321,6.4083,0.0,0.0,0.0,6.4326,6.4482,6.4596,0.0,0.0,0.0,0.0,0.0,0.0,0.0,0.0,0.0,0.0,0.0,0.0,0.0,0.0,0.0,0.0,6.4747,0.0,6.6591,6.6883,0.0,0.0,0.0,6.5335,6.3925,6.3529,6.3021,6.1984,6.127,6.0793,6.0609,5.969,5.8694,5.8139,5.761,5.7297,5.721,5.7715,5.874,6.0415,6.0504,6.1398,6.3591,6.3439,6.3909,6.5602,6.5497,6.6019,6.7348,6.6665,6.6801,6.7945,6.7883,6.8176,6.8958,6.8993,7.0341,7.2727,7.2727,7.4047,7.6331,7.6214,7.5636,7.4699,7.5246,7.4026,7.1938,7.2606,7.231,7.1734,7.3203,7.4054,7.4774,0.0,0.0,0.0,0.0,0.0,0.0,0.0,0.0,0.0,0.0,0.0,0.0,0.0,6.0287,6.0219,5.9127,5.9488,6.0018,6.052,6.0533,6.048,6.0491,0.0,0.0,0.0,0.0,0.0,0.0,0.0,6.0617,6.0692,6.1406,6.2046,6.2631,6.3385,6.3862,6.4121,6.3958,0.0,0.0,6.4166,6.4026,6.3842,0.0,0.0,0.0,0.0,0.0,0.0,0.0,0.0,0.0,0.0,0.0,0.0,0.0,0.0,0.0,0.0,0.0,0.0,6.5803,6.6018,6.5988,6.6723,6.6605,6.6081,6.5384,6.5022,6.4287,6.2702,6.2103,6.1724,6.1165,6.0544,5.9663,5.8235,5.7797,5.7405,5.6689,5.7724,5.8969,6.0079,6.1189,6.226,6.3474,6.4366,6.5089,6.567,6.5945,6.6307,6.67,6.6792,6.7275,6.8088,6.8489,6.8848,6.9269,6.9768,7.098,7.2798,7.2656,7.4223,7.708,7.6051,7.579,7.608,7.6006,7.4897,7.3202,7.3291,7.2941,7.2458,7.3431,7.4703,7.6011,0.0,0.0,0.0,0.0,0.0,5.8959,0.0,0.0,0.0,0.0,0.0,0.0,0.0,0.0,6.0181,5.9081,5.9442,6.0147,6.0968,6.0954,6.0928,6.0939,6.0901,0.0,0.0,0.0,0.0,0.0,0.0,0.0,0.0,0.0,6.2075,6.2667,6.4065,0.0,0.0,0.0,0.0,6.3995,0.0,6.3909,6.3766,0.0,0.0,0.0,0.0,0.0,0.0,0.0,0.0,0.0,0.0,0.0,0.0,0.0,0.0,0.0,6.4251,0.0,0.0,0.0,6.4552,6.4528,6.6164,6.6197,6.5925,6.5873,6.5843,6.5218,6.3228,6.2709,6.2224,6.1319,6.1127,6.0432,5.8597,5.8071,5.7632,5.6811,5.7815,5.9124,6.0332,6.1697,6.3195,6.4731,6.5714,6.6328,6.6525,6.674,6.6895,6.6998,6.7848,6.8648,6.9301,6.9768,6.9985,7.0122,7.0371,7.1299,7.2798,7.2869,7.4541,7.7473,7.6533,7.6446,7.6894,7.6454,7.5379,7.401,7.4132,7.3791,7.3343,7.444,7.5794,7.7143,0.0,5.5151,5.5693,5.751,5.772,5.8254,0.0,0.0,0.0,0.0,0.0,0.0,0.0,0.0,0.0,6.0737,6.0737,6.1058,6.1914,6.1808,6.1743,6.1808,6.1743,0.0,0.0,0.0,0.0,0.0,0.0,0.0,0.0,0.0,6.2905,0.0,6.4893,6.4949,6.3985,0.0,6.4562,6.3861,0.0,6.4244,6.4367,0.0,0.0,0.0,6.4888,6.4888,0.0,0.0,0.0,0.0,0.0,0.0,0.0,0.0,0.0,0.0,0.0,0.0,0.0,0.0,6.2484,6.2326,6.4324,6.4698,6.4683,6.5147,6.571,6.5569,6.3602,6.2975,6.2341,6.1081,6.1246,6.0896,5.9124,5.8492,5.8013,5.7448,5.798,5.9154,6.1126,6.2026,6.3889,6.7393,6.7266,6.7404,6.8341,6.7969,6.7878,6.8421,6.9725,7.0871,7.1692,7.1656,7.1656,7.1656,7.0871,7.1299,7.2798,7.3367,7.5039,7.7433,7.7629,7.7479,7.693,7.6489,7.5449,7.415,7.4853,7.4677,7.4221,7.5935,7.7107,7.8105,5.708,5.6501,5.6425,5.7603,5.8262,5.9045,0.0,0.0,0.0,0.0,0.0,0.0,0.0,0.0,0.0,6.1582,6.167,6.2041,6.2772,6.277,6.2502,6.1979,6.185,6.1428,0.0,0.0,0.0,0.0,0.0,0.0,0.0,0.0,0.0,0.0,6.6178,6.6233,6.5664,6.5654,0.0,0.0,6.5262,6.4625,0.0,0.0,0.0,0.0,0.0,6.4817,0.0,0.0,6.4707,6.4707,0.0,0.0,0.0,0.0,0.0,0.0,6.3676,0.0,0.0,0.0,0.0,0.0,6.3798,6.3936,6.4214,6.5874,6.5726,6.5094,6.4255,6.3863,6.3343,6.2236,6.191,6.1325,5.9733,5.9364,5.8674,5.7269,5.7801,5.8782,6.0107,6.2157,6.427,6.6299,6.6882,6.7461,6.8262,6.7825,6.8103,6.9405,6.9542,7.03,7.1692,7.1121,7.0835,7.0835,7.0621,7.0945,7.1802,7.2332,7.4038,7.6498,7.6658,7.7187,7.7937,7.7943,7.7064,7.566,7.5871,7.5484,7.4853,7.5513,7.7046,7.8832,5.7756,5.709,5.6861,5.8127,5.871,5.934,0.0,0.0,0.0,0.0,0.0,0.0,0.0,0.0,0.0,6.1914,6.1977,6.2477,6.3643,6.3641,6.3269,6.2529,6.2401,6.1825,0.0,0.0,0.0,0.0,0.0,0.0,0.0,0.0,0.0,0.0,6.6671,0.0,0.0,0.0,0.0,0.0,6.5551,0.0,0.0,6.4694,6.4556,0.0,0.0,0.0,6.5308,6.4858,6.4596,0.0,0.0,0.0,0.0,0.0,0.0,0.0,0.0,0.0,0.0,0.0,0.0,0.0,6.2944,6.317,6.3539,6.5324,6.5353,6.4908,6.4203,6.3739,6.3307,6.2641,6.221,6.1663,6.0663,5.9585,5.8496,5.7577,5.8045,5.8916,6.0186,6.2308,6.451,6.6537,6.6955,6.7404,6.7969,6.7678,6.8183,6.9663,7.0114,7.1049,7.2655,7.2191,7.1799,7.1478,7.1799,7.2121,7.2406,7.3251,7.4922,7.7062,7.6623,7.7196,7.8377,7.8044,7.7133,7.6006,7.5881,7.552,7.5168,7.6076,7.7329,7.8761,0.0,5.7336,5.727,5.8814,5.913,5.9474,0.0,0.0,0.0,0.0,0.0,0.0,0.0,0.0,0.0,0.0,6.1966,6.2708,6.4372,6.4457,6.4074,6.3258,6.3258,6.2452,0.0,0.0,0.0,0.0,0.0,0.0,0.0,0.0,0.0,0.0,6.6786,6.7375,0.0,0.0,0.0,6.6314,6.5551,6.5203,0.0,0.0,6.4479,0.0,6.467,6.5271,6.5838,6.4898,6.4481,0.0,0.0,0.0,0.0,0.0,6.4699,0.0,0.0,0.0,0.0,0.0,0.0,0.0,6.1857,6.2252,6.2606,6.4029,6.4549,6.4589,6.3726,6.3092,6.2601,6.2534,6.2199,6.1796,6.1552,5.946,5.8017,5.8178,5.8436,5.9199,6.0715,6.244,6.4603,6.7303,6.7247,6.7302,6.7728,6.7688,6.8291,6.9675,7.0972,7.2263,7.3761,7.369,7.3262,7.2548,7.3369,7.3617,7.3508,7.4917,7.6553,7.8093,7.7126,7.7417,7.8448,7.7433,7.6576,7.5832,7.5442,7.5354,7.5635,7.7248,7.7999,7.8458,5.8727,5.87,5.87,5.9033,5.9682,0.0,0.0,0.0,0.0,0.0,0.0,0.0,0.0,0.0,0.0,0.0,6.2567,6.3348,6.4331,6.4994,6.4715,6.3258,6.3873,6.3169,6.0834,6.1473,0.0,0.0,0.0,0.0,0.0,0.0,0.0,0.0,6.7505,6.7758,0.0,0.0,0.0,6.7986,6.7035,0.0,6.5016,6.4999,6.4766,6.4444,6.4596,6.4858,6.508,0.0,6.452,6.4366,0.0,0.0,0.0,0.0,0.0,0.0,0.0,0.0,0.0,0.0,0.0,0.0,6.0638,6.0699,6.1162,6.3197,6.2999,6.2708,6.3591,6.2983,6.2349,6.2637,6.1914,6.128,6.1254,5.9791,5.8554,5.8104,5.8237,5.8716,5.9637,6.244,6.4782,6.6208,6.7316,6.7978,6.7921,6.8352,6.9309,7.0698,7.0857,7.133,7.212,7.1513,7.1121,7.0978,7.1763,7.205,7.1908,7.3889,7.5489,7.66,7.7232,7.831,7.9536,7.8363,7.739,7.6682,7.6604,7.6835,7.7389,7.7832,7.9186,8.0859,5.9496,5.9125,5.8765,5.966,0.0,0.0,0.0,0.0,0.0,0.0,0.0,0.0,0.0,0.0,0.0,0.0,0.0,0.0,0.0,0.0,0.0,6.3258,6.3617,6.3103,6.1473,6.1858,0.0,0.0,0.0,0.0,0.0,0.0,0.0,0.0,0.0,0.0,0.0,0.0,6.8937,6.8623,6.7699,0.0,6.5514,6.5291,6.479,6.4287,6.452,6.4671,6.482,6.5087,6.4519,0.0,0.0,6.3616,6.2822,0.0,6.3,6.2235,0.0,0.0,0.0,5.9946,0.0,0.0,0.0,6.0295,6.0688,6.248,6.1985,6.1603,6.2535,6.2068,6.1497,6.1115,6.1135,6.0998,6.0388,5.9089,5.8149,5.8129,5.8154,5.8472,5.924,6.1623,6.3708,6.5093,6.7055,6.816,6.8017,6.892,6.9985,7.111,7.1673,7.2257,7.2974,7.294,7.2655,7.2263,7.3404,7.3616,7.3041,7.4563,7.5697,7.6518,7.6866,7.7625,7.8686,7.8028,7.7731,7.7618,7.715,7.7311,7.7974,7.8523,7.9656,8.1036,6.0061,5.9408,5.8857,6.025,0.0,0.0,0.0,0.0,0.0,0.0,0.0,0.0,0.0,0.0,0.0,0.0,0.0,0.0,0.0,0.0,0.0,6.3501,6.3641,6.3306,6.2358,6.2512,6.2872,0.0,0.0,0.0,0.0,0.0,0.0,0.0,0.0,0.0,0.0,0.0,0.0,6.907,0.0,6.7282,6.6026,6.5434,6.4748,6.4203,6.452,6.4634,6.4709,6.5162,0.0,6.3197,6.3764,6.3013,0.0,0.0,0.0,0.0,0.0,0.0,0.0,0.0,0.0,5.9696,0.0,0.0,0.0,6.1645,6.1241,6.0794,6.1323,6.1126,6.0534,5.9618,6.0372,6.0675,5.9419,5.8202,5.7666,5.8129,5.7998,5.8237,5.8964,6.0968,6.2924,6.4447,6.6831,6.8173,6.8235,6.9452,7.0581,7.1492,7.2422,7.3257,7.4045,7.4476,7.4404,7.3797,7.5113,7.532,7.4492,7.5413,7.6264,7.6972,7.6666,7.7215,7.8186,7.8044,7.836,7.8846,7.7696,7.7752,7.8549,7.9347,8.0233,8.1331,5.9933,6.0418,6.0288,6.048,0.0,0.0,0.0,0.0,0.0,0.0,0.0,0.0,0.0,0.0,0.0,0.0,0.0,0.0,6.4364,0.0,0.0,6.4331,6.509,0.0,6.3205,6.3935,6.4334,6.4372,0.0,0.0,0.0,0.0,0.0,0.0,6.7563,0.0,0.0,0.0,7.0292,0.0,6.9993,6.8435,0.0,6.544,6.479,6.4324,6.4596,6.4707,6.4557,0.0,6.3465,6.3088,0.0,6.1693,0.0,0.0,0.0,0.0,0.0,0.0,0.0,0.0,5.9719,0.0,0.0,0.0,5.955,6.0367,0.0,6.0166,6.0674,0.0,0.0,5.9667,6.007,6.0024,5.8756,5.8367,5.8033,5.7701,5.779,5.7998,5.8391,6.1745,6.4311,6.5235,6.698,6.8307,6.8995,6.9901,7.0997,7.2286,7.2341,7.2606,7.3221,7.3119,7.3012,7.2941,7.3869,7.4189,7.4117,7.5356,7.6534,7.7469,7.7921,7.9138,8.0649,7.9935,8.0113,8.0684,7.9073,7.908,7.994,8.0661,8.2003,8.3493,5.9518,5.9473,5.9396,6.0431,0.0,6.0398,6.048,6.1294,0.0,0.0,0.0,0.0,0.0,0.0,0.0,0.0,0.0,6.5148,0.0,0.0,0.0,0.0,0.0,0.0,0.0,6.4397,6.477,6.5137,6.5137,0.0,0.0,0.0,0.0,0.0,6.7478,0.0,6.9549,0.0,0.0,0.0,0.0,0.0,0.0,6.6132,6.5328,6.4366,6.4558,6.4596,6.4483,0.0,6.3276,0.0,0.0,0.0,0.0,0.0,0.0,0.0,0.0,0.0,0.0,0.0,0.0,0.0,5.9581,0.0,5.9478,0.0,0.0,0.0,0.0,0.0,0.0,0.0,5.9253,5.9475,5.8299,5.8003,5.7717,5.7279,5.7304,5.7919,5.9251,6.1628,6.3513,6.4635,6.6644,6.8186,6.9018,7.0247,7.1593,7.2983,7.2817,7.3291,7.4475,7.4262,7.419,7.419,7.4401,7.4543,7.4579,7.5569,7.6245,7.6787,7.7998,7.9002,7.9721,7.9864,8.0035,8.0171,7.9572,7.9843,8.0552,8.1257,8.2323,8.3519,5.8819,0.0,0.0,0.0,0.0,6.0502,6.0759,6.2049,0.0,0.0,0.0,0.0,6.5618,6.5728,0.0,0.0,0.0,6.5646,0.0,0.0,6.5235,0.0,0.0,0.0,0.0,0.0,6.5193,6.5674,6.5635,0.0,0.0,0.0,0.0,0.0,0.0,6.8139,6.9057,0.0,0.0,6.9627,6.9627,6.8415,6.6598,6.6111,6.5336,6.4405,6.452,6.4482,6.4367,6.4103,6.3009,0.0,6.2953,0.0,0.0,0.0,0.0,0.0,6.0274,0.0,0.0,0.0,0.0,0.0,0.0,0.0,0.0,0.0,0.0,0.0,0.0,0.0,0.0,0.0,0.0,5.8947,5.7747,5.7693,5.7504,5.6988,5.7223,5.8094,5.9853,6.1485,6.2821,6.3689,6.6259,6.7894,6.8444,7.0238,7.1867,7.3284,7.3183,7.3866,7.5478,7.5262,7.5225,7.5225,7.5256,7.5288,7.5324,7.6107,7.6605,7.6854,7.811,7.8905,7.9155,7.9727,8.0042,8.0064,8.0142,8.0669,8.1399,8.1835,8.2618,8.3697,5.7989,5.8889,0.0,0.0,0.0,0.0,0.0,0.0,0.0,0.0,0.0,0.0,0.0,0.0,0.0,0.0,0.0,6.5465,6.5413,0.0,6.515,0.0,0.0,0.0,0.0,0.0,6.5884,6.5793,6.5755,0.0,0.0,0.0,0.0,0.0,0.0,6.8479,7.0004,7.0686,7.0866,7.0746,7.0621,6.9026,6.6612,0.0,6.4402,6.4405,6.4405,0.0,0.0,6.3347,6.2441,0.0,0.0,0.0,0.0,0.0,0.0,0.0,0.0,0.0,0.0,5.9853,0.0,0.0,0.0,0.0,5.9581,0.0,0.0,0.0,0.0,0.0,0.0,0.0,0.0,0.0,0.0,5.7495,5.7782,5.7127,5.7777,5.8674,5.9786,6.1601,6.2709,6.2745,6.5779,6.758,6.7303,6.9656,7.1668,7.3042,7.3114,7.3866,7.5478,7.5262,7.5225,7.5225,7.5974,7.6367,7.6367,7.7116,7.7865,7.8615,7.8686,7.9267,8.0171,8.0207,8.0672,8.1276,8.1084,8.1809,8.2927,8.2424,8.3218,8.4681,5.7981,0.0,0.0,0.0,0.0,0.0,0.0,6.1934,0.0,0.0,0.0,0.0,0.0,0.0,6.5005,0.0,0.0,6.47,6.4611,6.4641,0.0,0.0,0.0,6.4742,0.0,0.0,6.5947,6.5793,6.5717,0.0,0.0,0.0,0.0,0.0,0.0,6.8552,0.0,0.0,0.0,0.0,0.0,6.7639,6.6612,0.0,0.0,6.4364,6.4366,6.4366,0.0,6.3866,6.3191,6.2438,6.222,6.1483,6.0791,6.0942,6.068,0.0,0.0,0.0,5.9824,5.9853,0.0,0.0,0.0,0.0,0.0,0.0,0.0,0.0,0.0,0.0,0.0,0.0,0.0,5.7764,0.0,5.7289,5.7261,5.694,5.7726,5.8556,5.9245,6.0733,6.1937,6.2673,6.5251,6.6916,6.7167,6.9526,7.157,7.3042,7.3114,7.3866,7.5478,7.5262,7.5474,7.601,7.6111,7.6253,7.6438,7.7152,7.7651,7.7937,7.8472,7.9589,8.0995,8.0995,8.1461,8.2177,8.2219,8.2707,8.328,8.2949,8.3601,8.487,5.8481,0.0,0.0,0.0,0.0,0.0,0.0,0.0,0.0,0.0,6.4353,0.0,6.5597,0.0,6.4642,0.0,6.447,6.3944,6.4153,6.3894,0.0,6.2557,6.335,0.0,0.0,0.0,0.0,6.582,0.0,6.569,0.0,0.0,0.0,0.0,0.0,0.0,0.0,0.0,6.9853,0.0,0.0,6.715,0.0,0.0,6.4507,6.4284,0.0,6.4324,6.4284,6.4083,6.3297,6.2436,6.2464,6.1619,6.0596,6.0864,6.0567,6.0115,6.021,6.0017,0.0,5.9885,5.995,0.0,5.9982,0.0,0.0,0.0,0.0,0.0,0.0,0.0,0.0,0.0,0.0,5.6744,0.0,5.6725,5.6825,5.6417,5.7688,5.8716,5.9075,6.0454,6.1543,6.2278,6.4795,6.6397,6.6546,6.9185,7.1434,7.2973,7.3009,7.3796,7.555,7.5084,7.5332,7.655,7.6328,7.6538,7.7148,7.8008,7.8253,7.8135,7.9109,8.0268,8.1425,8.1675,8.2362,8.3158,8.3199,8.351,8.3835,8.3504,8.4156,8.558,5.9335,0.0,0.0,0.0,5.8617,0.0,0.0,0.0,6.1425,0.0,6.4326,6.4632,6.5613,6.4757,6.445,6.5303,6.3829,0.0,6.4,6.3253,0.0,0.0,6.2357,6.2901,6.3039,0.0,0.0,0.0,0.0,0.0,0.0,0.0,0.0,0.0,6.7528,0.0,6.907,6.9699,6.9891,6.9778,6.8631,6.7639,6.6687,6.5736,6.4953,6.4244,6.4162,6.4203,6.4206,6.393,6.2799,6.167,6.2284,6.0869,5.9278,6.1048,6.0417,5.9434,6.0523,6.0219,5.9685,5.995,6.0013,0.0,0.0,0.0,5.9982,0.0,0.0,0.0,0.0,0.0,0.0,5.7007,5.608,5.5249,5.4724,5.5974,5.6536,5.5677,5.7496,5.8968,5.9402,6.0699,6.1615,6.1651,6.4471,6.6083,6.5575,6.8663,7.1156,7.2727,7.2798,7.376,7.5726,7.4691,7.494,7.6624,7.6512,7.7183,7.8342,7.9394,7.9594,7.9196,8.0527,8.1234,8.1496,8.2249,8.3115,8.4068,8.4068,8.4493,8.4864,8.4111,8.4952,8.6773,5.9191,5.9216,5.8692,0.0,5.8846,6.0112,0.0,0.0,0.0,0.0,6.3733,6.3685,6.4594,6.3791,6.3312,6.3571,6.2605,0.0,0.0,0.0,0.0,6.0666,6.1545,6.2087,6.2038,6.3693,0.0,6.4936,0.0,0.0,6.5674,0.0,0.0,0.0,0.0,0.0,6.998,6.9999,6.9891,6.9662,6.8673,6.768,6.6687,0.0,6.4705,6.4,6.4079,6.4121,6.405,6.3248,6.2757,6.2188,6.0914,6.0104,5.9644,5.9659,5.9477,5.9328,5.9809,5.9839,5.9757,5.9824,5.9885,5.9918,0.0,0.0,0.0,0.0,0.0,0.0,0.0,0.0,0.0,0.0,0.0,0.0,0.0,0.0,0.0,5.5098,5.5995,5.7349,5.9222,6.0359,6.1245,6.1823,6.4282,6.5839,6.6012,6.8428,7.0825,7.2973,7.3183,7.3718,7.4689,7.5692,7.5944,7.5619,7.7259,7.8008,7.7754,7.865,7.893,7.8889,7.9786,8.1019,8.232,8.3073,8.3861,8.4657,8.4973,8.5598,8.6204,8.6024,8.6564,8.7653,5.8807,0.0,0.0,5.7565,0.0,0.0,5.8898,0.0,0.0,6.2464,6.2629,0.0,6.3713,6.294,6.25,6.2892,6.1812,0.0,0.0,0.0,0.0,6.039,6.0867,6.1343,6.1797,6.277,0.0,6.4001,0.0,0.0,6.5053,0.0,0.0,0.0,0.0,6.8755,7.0286,7.0076,6.9929,6.9778,6.9129,6.8022,0.0,6.5983,6.4874,6.3786,6.3958,6.3776,6.3402,6.2878,6.2197,6.1363,6.0178,5.9616,5.9334,5.9057,5.9025,5.9178,5.9474,5.9618,5.9688,5.9824,5.9853,5.9918,5.9982,6.0013,5.9982,0.0,0.0,0.0,0.0,0.0,0.0,0.0,0.0,0.0,0.0,0.0,0.0,0.0,5.5789,5.6971,5.9414,6.0013,6.0593,6.1533,6.409,6.5678,6.5815,6.8291,7.0668,7.2678,7.3072,7.379,7.4975,7.5548,7.5872,7.5871,7.6836,7.7548,7.8044,7.8864,7.9322,7.9601,8.1013,8.2092,8.2986,8.3896,8.455,8.5096,8.5736,8.6583,8.742,8.7782,8.7962,8.8215,0.0,0.0,0.0,0.0,0.0,0.0,0.0,5.7503,0.0,6.0493,0.0,6.2094,6.2847,6.2191,6.1945,6.251,0.0,6.0704,6.143,6.0733,6.0352,6.0408,6.0352,6.0752,6.167,6.1732,0.0,0.0,0.0,0.0,0.0,0.0,0.0,0.0,0.0,0.0,0.0,7.0111,7.0003,6.9966,6.9737,6.8477,6.6687,6.6512,6.524,6.3602,6.3786,6.335,6.2683,6.2579,6.145,6.0013,5.9785,5.9208,5.872,5.8862,5.8986,5.9102,5.9365,5.9512,5.9583,5.9786,5.9853,5.9918,6.0007,6.0068,6.0038,6.0013,5.9815,5.9681,0.0,0.0,0.0,0.0,0.0,0.0,0.0,0.0,0.0,0.0,0.0,0.0,5.9151,5.9568,6.0082,6.1147,6.4021,6.5561,6.5344,6.812,7.0404,7.2022,7.2678,7.3826,7.5404,7.4971,7.5296,7.6301,7.6087,7.6945,7.8722,7.965,8.0392,8.1017,8.2914,8.3558,8.3513,8.4354,8.4952,8.5369,8.6427,8.7492,8.8444,8.9211,8.9102,8.8853,0.0,0.0,0.0,0.0,0.0,5.6783,5.5938,5.7119,5.8731,6.0418,6.0764,6.116,6.1885,6.1819,6.1513,6.095,6.0644,0.0,0.0,0.0,0.0,6.0323,6.0352,6.0446,6.0655,6.1315,6.1792,0.0,0.0,0.0,0.0,0.0,0.0,0.0,0.0,0.0,7.0286,7.022,0.0,7.0003,6.9891,6.856,6.6687,6.6598,6.5328,6.3602,6.378,6.3301,6.2519,6.1936,6.0916,5.9775,5.8894,5.8597,5.8529,5.8614,5.8865,5.9177,5.9215,5.9401,5.9581,5.9545,5.9688,5.9824,5.9857,5.9923,5.9918,5.9918,5.9857,5.9757,5.9616,0.0,0.0,0.0,0.0,0.0,0.0,0.0,0.0,0.0,0.0,5.5577,5.6154,5.8555,6.0711,6.2223,6.4087,6.5278,6.5597,6.7885,6.9832,7.1195,7.225,7.2983,7.3297,7.5109,7.5436,7.4221,7.705,7.852,7.8722,8.0221,8.1406,8.2349,8.3084,8.3558,8.3638,8.3861,8.4529,8.5562,8.7119,8.8402,8.9439,8.9548,9.0179,9.0881,0.0,0.0,0.0,0.0,0.0,0.0,0.0,5.6736,0.0,5.9235,5.9787,6.0161,6.052,6.0904,6.0801,5.9958,6.025,6.0453,6.0518,6.0491,6.0436,6.0352,6.0408,0.0,6.0425,6.0818,6.1037,6.1184,0.0,0.0,0.0,0.0,0.0,6.7935,0.0,6.9908,0.0,0.0,0.0,7.0003,6.9854,6.856,6.6687,6.6598,6.5328,6.3602,6.3736,6.3258,6.255,6.2188,6.1135,5.9812,5.9307,5.8769,5.84,5.8572,5.8739,5.8902,5.9139,5.929,5.9401,5.9512,5.9618,5.9723,5.9757,5.989,5.9918,5.989,5.9786,5.9685,5.9438,5.9139,0.0,0.0,0.0,0.0,0.0,0.0,0.0,0.0,0.0,0.0,0.0,5.9559,6.0761,6.1385,6.3819,6.5254,6.524,6.7796,6.9658,7.0534,7.2344,7.3374,7.3582,7.5358,7.5754,7.4654,7.6984,7.8422,7.906,8.0637,8.2034,8.3216,8.3888,8.4326,8.4521,8.5309,8.5861,8.6444,8.8191,8.9216,8.9734,9.017,9.0802,9.1358,0.0,5.6395,0.0,0.0,5.6499,0.0,5.557,5.6228,5.7194,5.8175,5.871,5.9127,5.9473,6.0008,6.0048,5.9332,5.9955,6.0436,6.0518,6.0464,6.0408,6.0408,6.0408,6.0398,6.0491,6.0436,6.0436,0.0,0.0,0.0,0.0,0.0,0.0,0.0,0.0,0.0,0.0,0.0,7.0004,7.0003,6.9854,6.856,6.6691,6.6641,6.5372,6.3602,6.3691,6.337,6.2848,6.2848,6.1534,5.9844,5.9789,5.9021,5.8223,5.8529,5.8572,5.8577,5.9022,5.9139,5.9215,5.9365,5.951,5.9616,5.9688,5.982,5.995,5.9791,5.9685,5.9543,5.929,5.91,0.0,0.0,0.0,0.0,0.0,0.0,0.0,0.0,0.0,0.0,5.9955,6.0572,6.0822,6.0735,6.3555,6.5257,6.5131,6.7737,6.9599,7.0211,7.2572,7.3964,7.4218,0.0,7.6,7.5801,7.6839,7.8135,7.9683,8.1191,8.2517,8.366,8.455,8.506,8.5369,8.6851,8.7253,8.7177,8.9003,8.9775,8.9847,9.0761,9.113,9.1358,0.0,0.0,0.0,0.0,0.0,0.0,5.4726,5.5403,5.6579,5.8119,5.7752,5.7863,5.9319,5.947,5.9396,5.9294,5.9955,6.0436,6.0518,6.0464,6.0408,6.0408,6.0408,6.0408,6.0436,6.037,6.037,0.0,0.0,6.2892,0.0,0.0,0.0,0.0,0.0,0.0,0.0,7.0185,7.0149,7.0149,7.0003,6.864,6.6691,6.6687,6.5421,6.3602,6.3602,6.3654,6.3668,6.3535,6.1849,5.9795,5.9656,5.8887,5.8088,5.8349,5.8443,5.8572,5.8859,5.9059,5.9177,5.9063,5.9327,5.9581,5.9401,5.965,5.9853,5.965,5.9545,5.9474,5.9328,5.914,5.9024,0.0,0.0,0.0,0.0,0.0,0.0,0.0,0.0,0.0,5.8578,6.0034,6.1226,6.1828,6.3527,6.5004,6.6166,6.7927,6.9409,7.0688,7.2522,7.364,7.3856,7.4885,7.581,7.6804,7.7596,7.8927,8.0694,8.213,8.2998,8.3479,8.4613,8.5297,8.5603,8.7155,8.7528,8.7177,8.9003,8.9851,9.0076,9.1066,9.1583,9.184,0.0,0.0,0.0,0.0,0.0,0.0,0.0,5.5654,5.6366,5.7468,5.7312,5.7369,5.8042,5.885,5.9177,5.8678,5.9714,6.0436,6.0518,6.0464,6.0408,6.0408,6.0408,6.0408,6.0408,6.0352,6.0352,0.0,0.0,0.0,0.0,0.0,0.0,0.0,0.0,6.9722,7.0111,7.0076,7.0076,7.0039,7.0004,6.8639,6.6691,6.6691,6.5421,6.3602,6.3602,6.3691,6.3736,6.3557,6.2464,6.1122,6.0507,5.9448,5.8432,5.8326,5.8223,5.8312,5.8656,5.8899,5.9059,5.91,5.9328,5.951,5.9438,5.9685,5.982,5.9581,5.9438,5.9365,5.929,5.914,5.8984,5.902,0.0,0.0,0.0,0.0,0.0,0.0,0.0,0.0,0.0,6.0559,6.153,6.278,6.3881,6.4845,0.0,0.0,0.0,7.0055,7.2788,7.4384,7.474,7.5604,7.6735,7.795,7.8311,7.9576,8.1561,8.2175,8.3007,8.3982,8.5608,8.6372,8.6673,8.795,8.8241,8.7983,8.9338,8.9927,9.0224,9.1726,9.2426,9.2684,5.424,0.0,5.3569,0.0,5.392,5.4185,5.4631,5.5209,5.584,5.6441,5.6888,5.7178,5.7197,5.8072,5.8534,5.8227,5.9319,6.013,6.048,6.0464,6.0408,6.0408,6.0408,0.0,6.0408,6.0323,6.0323,6.038,6.1645,0.0,0.0,0.0,0.0,0.0,6.8879,6.9417,7.0076,7.0039,7.0003,7.0039,6.9967,6.879,6.7109,6.6804,6.5614,6.4026,6.3676,6.3691,6.3736,6.3557,6.3057,6.2345,6.1126,5.9879,5.8835,5.8345,5.8317,5.8428,5.8603,5.8925,5.9238,5.9097,5.9253,5.9401,5.9365,5.9581,5.9828,5.9849,5.9777,5.9666,5.9666,5.9514,5.9281,5.8937,0.0,0.0,0.0,5.8917,0.0,0.0,5.919,5.9418,6.0863,6.1196,6.2011,6.3641,0.0,0.0,0.0,0.0,0.0,0.0,0.0,0.0,7.5935,7.6801,7.7873,7.9303,7.9235,8.0182,8.1853,8.2143,8.3229,8.504,8.6492,8.726,8.7447,8.8322,8.865,8.8647,8.9599,9.0224,9.0737,9.2533,9.3381,9.3639,5.4799,5.3497,5.2465,5.2679,5.2877,5.279,5.2146,5.3569,5.4723,5.4813,5.6283,5.7291,5.7197,5.7033,5.7267,5.815,5.8757,5.9519,6.0441,6.0464,6.0408,0.0,0.0,6.0408,6.0408,6.0323,6.0294,6.0294,0.0,0.0,6.2649,0.0,6.6968,6.785,6.8646,6.9485,7.0251,7.0076,7.0114,7.0185,6.9967,6.9207,6.8056,6.7071,6.6074,6.503,6.3989,6.3691,6.378,6.3647,6.3511,6.3039,6.1181,5.9973,5.9071,5.8391,5.8768,5.9255,5.8628,5.9292,5.9864,5.8962,5.9022,5.9253,5.9063,5.929,5.9807,6.0528,6.0642,6.0604,6.0604,6.0413,5.9953,5.9048,0.0,0.0,0.0,0.0,0.0,5.9775,5.9801,6.0048,6.09,6.1715,6.2863,0.0,0.0,0.0,0.0,0.0,0.0,7.2743,7.4327,0.0,7.7304,7.8075,7.9223,8.0678,8.0442,8.0813,8.1652,8.2281,8.3955,8.6429,8.7083,8.7447,8.7595,8.8247,8.8574,8.8872,8.9747,9.0701,9.1764,9.3601,9.4448,9.4706,5.2076,5.1525,5.1328,5.1608,5.1467,5.1617,5.2646,5.3397,5.4009,5.4663,5.5689,5.6405,5.6329,5.7709,5.8543,0.0,5.9319,6.013,0.0,6.0464,6.0408,6.0408,6.0408,6.0408,6.0408,6.0256,6.0197,6.0294,0.0,0.0,0.0,6.4894,6.6336,6.7745,6.8041,6.8955,7.022,7.0076,7.0003,7.0039,6.9967,6.9245,6.8173,6.783,6.6683,6.5148,6.4799,6.4308,6.378,6.3647,6.3557,6.328,6.1845,6.0735,5.9989,5.9909,5.9615,5.9403,5.9412,5.9653,5.978,5.9004,5.9022,5.9215,5.9139,5.9741,6.0529,6.1431,6.143,6.1316,6.143,6.0708,6.0058,5.9756,5.9636,0.0,5.9838,0.0,6.0444,6.0654,6.0692,6.1069,6.1886,6.2521,6.341,0.0,0.0,0.0,0.0,0.0,0.0,0.0,7.4182,0.0,7.8333,7.8982,8.0424,8.2524,8.1678,8.1652,8.249,8.4352,8.57,8.6609,8.7121,8.785,8.8545,8.8106,8.8617,8.9861,9.019,9.1253,9.2831,9.452,9.5257,9.5516,5.0956,5.0188,4.9845,5.0468,4.9973,4.9959,5.1488,5.2088,5.2815,5.4048,5.5228,5.6058,5.6329,5.8209,0.0,5.8265,5.9268,6.0081,6.048,6.0491,6.0436,6.0408,6.0408,6.0408,6.0408,6.0226,0.0,6.0205,6.1088,6.2155,6.3318,6.4595,6.6107,6.774,6.774,6.8655,7.022,7.0039,6.9966,7.0003,6.9929,6.9435,6.8706,6.8323,6.7405,6.6218,6.5453,6.4806,6.4233,6.3803,6.3647,6.3482,6.2604,6.1761,6.0977,6.0682,6.0471,6.0379,6.0263,6.0321,6.0221,5.945,5.9206,5.9213,5.9627,6.0378,6.1242,6.2221,6.2255,6.2138,6.2294,6.1566,6.0948,6.0534,6.0455,6.0518,6.0685,0.0,6.1218,0.0,0.0,0.0,0.0,6.3336,6.4308,0.0,0.0,0.0,0.0,0.0,7.0485,7.2203,7.4626,7.7008,7.9325,8.0014,8.1276,8.3051,8.2471,8.281,8.3975,8.5662,8.6719,8.7262,8.7779,8.8399,8.9166,8.8874,8.9569,9.096,9.1694,9.2831,9.4301,9.5699,9.6326,9.6547,5.0972,4.9365,4.8215,4.9332,4.8517,4.8044,4.906,5.0029,5.1355,5.3181,5.4805,5.6136,5.7023,5.8396,5.901,5.8342,0.0,0.0,6.0441,6.048,6.0464,6.0408,6.0408,6.0408,6.0408,6.0226,6.0038,6.0013,6.1523,6.2391,6.252,6.4367,6.6069,6.7692,6.7593,6.8507,7.0175,6.9927,6.9891,7.0003,6.9929,6.9853,6.9623,6.8669,6.8286,6.794,6.6031,6.5266,6.5073,6.4122,6.3691,6.3557,6.3326,6.2677,6.1902,6.1024,6.1329,6.1874,6.1226,6.1174,6.1076,6.0147,5.9495,5.936,6.0454,6.1241,6.1986,6.3043,6.3153,6.3113,6.3231,6.2986,6.2395,6.1336,6.1211,6.1426,6.2011,6.1476,6.1291,6.2122,0.0,0.0,6.3242,6.415,6.5382,0.0,0.0,0.0,0.0,0.0,7.0981,7.3124,7.5606,7.7957,8.0184,8.1108,8.1932,8.2591,8.3074,8.4217,8.5894,8.6388,8.7264,8.8316,8.8908,8.9275,8.9491,9.0333,9.1178,9.2096,9.3933,9.5184,9.6032,9.6953,9.743,9.7573,0.0,0.0,4.7802,4.8363,4.7943,4.7905,4.8968,5.0026,5.1337,5.3089,5.4208,5.5441,5.7004,5.7828,5.8464,5.8974,5.9714,6.0234,6.048,6.0408,6.0323,6.0323,6.0323,6.0323,6.0323,6.0197,6.0038,5.9918,6.1417,6.2249,6.2459,6.4199,6.5631,6.6717,6.6683,6.7635,6.923,6.9127,6.936,6.9929,6.9891,6.9853,6.9661,6.9391,6.8816,6.8056,6.6875,6.5919,6.5073,6.4171,6.378,6.3557,6.3382,6.3178,6.2815,6.2535,6.2214,6.1985,6.1929,6.2027,6.1781,6.0295,5.9859,6.014,6.1241,6.2066,6.2997,6.45,6.4716,6.4673,6.4758,6.4501,6.3795,6.2395,6.273,6.2717,6.1463,6.2331,6.2814,0.0,6.266,6.3373,6.4187,6.499,6.6271,0.0,0.0,6.9496,7.0549,7.1913,7.3229,7.4369,7.6679,7.8758,8.0437,8.1844,8.3102,8.4248,8.5124,8.5979,8.6979,8.772,8.8598,8.9578,8.9518,8.9698,8.991,9.0721,9.2003,9.3477,9.4478,9.5805,9.7171,9.7284,9.743,9.7573,4.7943,4.7277,4.6866,4.7292,4.6759,4.6643,4.7671,4.8771,5.0221,5.2358,5.3417,5.488,5.7366,5.7796,5.8259,5.9192,5.9966,6.0436,6.0425,6.0436,6.0352,6.0294,6.0294,6.0264,6.0197,6.0106,6.0013,5.9857,6.1349,6.2106,6.2287,6.4095,6.5414,6.6349,6.6383,6.733,6.8891,6.8823,6.9245,6.9891,6.9891,6.9853,6.9777,6.9659,6.9313,6.8741,6.7789,6.6716,6.5634,6.4775,6.4078,6.3557,6.3428,6.3289,6.3147,6.3051,6.2719,6.2483,6.2706,6.2538,6.2034,6.0943,6.0906,6.1358,6.2216,6.2888,6.3701,6.5015,6.5272,6.5341,6.5801,6.5613,6.5088,6.4249,6.413,6.3779,6.2613,6.3086,6.3234,6.2556,6.3268,6.4177,6.493,6.5792,6.7123,6.9011,6.9434,0.0,7.2062,7.3415,7.4458,7.5314,7.7642,7.9912,8.1921,8.3381,8.4645,8.5715,8.6565,8.7313,8.8125,8.8735,8.9614,9.0526,8.9915,9.0241,9.1154,9.2104,9.3176,9.4434,9.5725,9.6833,9.7573,9.7573,9.7681,9.7752,4.7457,4.6564,4.5883,4.6368,4.5519,4.5067,4.6145,4.7248,4.891,5.1528,5.2644,5.4451,5.7835,5.7991,5.831,5.9293,5.9977,6.0304,6.0217,6.0321,6.037,6.0264,6.0264,6.0197,6.0068,5.9975,5.9885,5.9791,6.1241,6.1996,6.2144,6.3986,6.5303,6.6091,6.6193,6.714,6.8701,6.8669,6.9131,6.9891,6.9891,6.9891,6.9891,6.9738,6.9659,6.9501,6.8549,6.7509,6.65,6.5522,6.4681,6.3936,6.3539,6.34,6.3331,6.3088,6.3002,6.3051,6.3289,6.2826,6.2101,6.1778,6.2066,6.2544,6.3003,6.3522,6.422,6.5277,6.5421,6.5677,6.663,6.6582,6.6351,6.6054,6.5329,6.4657,6.4254,0.0,6.3221,6.3186,6.3873,6.4734,6.558,6.6629,6.7889,6.9531,6.9892,7.1156,7.3652,7.4658,7.5627,7.6542,7.8756,8.1177,8.3751,8.5142,8.6189,8.7007,8.7396,8.8183,8.9136,8.9572,9.0273,9.1074,9.0458,9.1048,9.2553,9.3684,9.4467,9.5214,9.7158,9.7748,9.7496,9.7785,9.7892,9.7929,4.7214,4.6277,4.5624,4.6128,4.5275,4.4885,4.6125,4.7175,4.8766,5.1404,5.2478,5.4342,5.7728,5.7889,5.8432,6.0173,6.0208,5.9921,5.9338,5.9836,6.0129,6.0099,6.0076,6.0045,6.0045,5.9847,5.9753,5.9791,6.1168,6.1921,6.2144,6.3841,6.4857,6.5217,6.5318,6.6303,6.7791,6.7791,6.8597,6.9891,6.9891,6.9891,6.9891,6.9738,6.9659,6.9501,6.8549,6.7926,6.7336,6.5752,6.5471,6.5514,6.3919,6.377,6.4033,6.3235,6.2904,6.2904,6.3147,6.2826,6.242,6.2487,6.2561,6.2673,6.3003,6.36,6.4491,6.6069,6.6319,6.65,6.7411,6.7887,6.7651,6.6202,6.5811,6.5323,6.4328,0.0,6.3501,6.396,6.4242,6.4955,6.6353,6.7288,6.8535,7.0383,7.1124,7.2466,7.4509,7.614,7.7863,7.95,8.048,8.2182,8.4648,8.5961,8.7007,8.7824,8.7784,8.8507,8.9854,9.0069,9.0284,9.0535,9.1861,9.2633,9.3033,9.4518,9.5632,9.6449,9.752,9.7446,9.682,9.7632,9.7892,9.8003,4.7453,4.6191,4.5355,4.5882,4.5026,4.4627,4.5859,4.6947,4.8586,5.1247,5.2388,5.4058,5.697,5.7569,5.8099,5.8994,5.976,5.9912,5.912,5.9798,6.0167,6.0099,6.0045,5.9982,5.995,5.9719,5.9842,6.0402,6.1319,6.2108,6.2711,6.3993,6.4443,6.4275,6.4904,6.5813,6.6958,6.741,6.8519,6.9891,6.9891,6.9891,6.9891,6.9853,6.9737,6.9539,6.9121,6.8462,6.7679,6.6799,6.6366,6.5969,6.4513,6.4214,6.4217,6.3272,6.2953,6.2953,6.3051,6.303,6.3,6.3221,6.36,6.3979,6.4316,6.4874,6.5683,6.688,6.7053,6.7224,6.8219,6.8436,6.8246,6.7465,6.6839,6.6186,6.5515,6.4943,6.4672,6.4779,6.5335,6.5989,6.6611,6.7826,6.9147,7.0605,7.1865,7.3416,7.5366,7.7162,7.8999,8.0788,8.2923,8.474,8.6179,8.7705,8.833,8.8171,8.9001,8.9692,9.0304,9.0407,9.1112,9.241,9.2707,9.3404,9.4362,9.5551,9.6257,9.6703,9.7557,9.7372,9.6703,9.7595,9.7961,9.8104,4.7894,4.6605,4.5544,4.5916,4.5026,4.4594,4.5613,4.6705,4.839,5.1091,5.2245,5.3785,5.6294,5.726,5.7805,5.8044,5.9359,5.996,5.9425,5.9883,6.0167,6.0099,6.0045,5.995,5.982,5.9616,5.996,6.0863,6.1469,6.2296,6.32,6.4181,6.4368,6.3941,6.4828,6.5622,6.6391,6.7258,6.8405,6.9664,6.9853,6.9929,6.9891,6.9891,6.9737,6.9577,6.9577,6.8955,6.8054,6.7733,6.7224,6.6611,6.5245,6.4805,6.4512,6.3555,6.3248,6.3248,6.3346,6.3342,6.3548,6.4003,6.4606,6.5142,6.5403,6.5994,6.6687,6.7509,6.7523,6.7738,6.8734,6.8846,6.8729,6.8506,0.0,6.7008,6.6565,6.6072,6.568,6.561,6.6367,6.6985,6.72,6.8525,6.9811,7.085,7.2532,7.4248,7.6014,7.7961,8.0122,8.2526,8.5092,8.6724,8.7416,8.9227,8.9593,8.8712,9.0143,9.0689,9.0499,9.0749,9.1975,9.385,9.3553,9.4325,9.5805,9.6504,9.6876,9.71,9.7769,9.762,9.7137,9.7924,9.8402,9.8799,4.8659,4.7606,4.6757,4.663,4.5517,4.4901,4.5573,4.6581,4.8207,5.0973,5.2079,5.3579,5.613,5.7072,5.79,5.8845,5.9513,6.0013,6.0217,6.0007,5.9982,6.0099,5.9982,5.982,5.965,5.9616,5.996,6.0716,6.1431,6.2296,6.32,6.4181,6.467,6.4813,6.5095,6.5656,6.6421,6.7398,6.8206,6.8939,6.9699,6.9967,6.9891,6.9738,6.9697,6.9577,6.9453,6.9251,6.8972,6.7965,6.8099,6.8343,6.6271,6.5595,6.5398,6.4338,6.398,6.403,6.4242,6.3881,6.3659,6.4799,6.5148,6.5229,6.5445,6.6078,6.6818,6.7642,6.7568,6.7701,6.8788,6.9341,6.9397,6.8617,0.0,0.0,6.6639,6.6072,6.5915,6.6537,6.675,6.7428,6.8783,6.9704,7.0605,7.1542,7.34,7.5001,7.6243,7.8714,8.1927,8.6025,8.6237,8.6761,8.7735,8.9847,9.0535,8.9868,9.0647,9.0814,9.0536,9.1597,9.2327,9.2936,9.4813,9.6099,9.6787,9.7031,9.7545,9.8254,9.8329,9.8291,9.8329,9.8978,9.973,10.0513,4.8381,4.7407,4.6443,4.5719,4.5435,4.5513,4.5955,4.7011,4.8558,5.0752,5.1878,5.3034,5.4515,5.6367,5.762,5.7932,5.9185,5.9982,6.0083,5.9982,5.995,5.9923,5.9786,5.9946,6.044,6.0335,6.0941,6.2296,6.2522,6.3086,6.4106,6.4445,6.4443,6.413,6.4866,6.5318,6.5627,6.7064,6.8095,6.8863,6.9625,6.9854,6.9777,6.9738,6.962,6.9495,6.9453,6.9289,6.9122,6.8601,6.8622,6.8605,6.7072,6.6544,6.621,6.5184,6.4861,6.4985,6.5617,6.5324,6.4964,6.5551,6.6217,6.6724,6.7021,6.7573,6.8107,6.8406,6.826,6.8426,6.9444,6.9703,6.962,6.9286,0.0,6.8446,6.741,6.7215,6.7243,6.7436,6.7967,6.8572,6.9147,7.0347,7.1525,7.2696,7.436,7.5872,7.7092,7.9641,8.2744,8.6363,8.6459,8.7304,8.9123,9.043,9.061,8.9705,9.1171,9.1745,9.1471,9.2443,9.386,9.5558,9.622,9.7031,9.7881,9.7946,9.8133,9.8469,9.8955,9.8843,9.8544,9.9822,10.0636,10.1002,4.8826,4.7943,4.6921,4.6139,4.592,4.5953,4.61,4.7367,4.8808,5.0214,5.1722,5.29,5.3497,5.5868,5.7384,5.7359,5.8938,5.9918,5.9885,5.9918,5.9923,5.9791,5.9983,6.0327,6.0896,6.1053,6.1807,6.3239,6.3161,6.3613,6.4596,6.4596,6.4406,6.4055,6.4828,6.5128,6.5209,6.6912,6.7943,6.8519,6.9512,6.9815,6.9699,6.9659,6.9539,6.9374,6.9332,6.9246,6.916,6.8975,6.8921,6.8717,6.7789,6.721,6.6676,6.5956,6.572,6.5852,6.6765,6.6699,6.647,6.6462,6.7021,6.7614,6.7959,6.8421,6.8875,6.8921,6.8921,6.9208,6.9957,7.0113,7.0041,6.9732,6.9494,6.8941,6.7904,6.7952,6.807,6.8055,6.886,6.9503,6.9658,7.0914,7.2277,7.3617,7.5097,7.6849,7.8816,8.0868,8.3359,8.6401,8.6513,8.7772,9.0434,9.0938,9.0841,9.0139,9.2002,9.2765,9.258,9.3787,9.542,9.7199,9.7423,9.7872,9.846,9.8525,9.8525,9.86,9.945,9.96,9.9525,10.0807,10.1621,10.1987,5.0228,4.9468,4.8629,4.8329,4.7212,4.6214,4.5957,4.7499,4.8853,4.9257,5.1625,5.3365,5.3475,5.5782,5.7327,5.7384,5.884,5.9824,5.9885,5.9824,5.9791,5.9828,6.0648,6.0963,6.0754,6.1655,6.2447,6.312,6.312,6.3613,6.4596,6.4596,6.4708,6.4888,6.5133,6.5199,6.5308,6.7088,6.7702,6.7715,6.9355,6.9891,6.9699,6.9617,6.9536,6.9374,6.9246,6.9203,6.916,6.8975,6.8921,6.8828,6.8408,6.7553,6.6684,6.6684,6.6617,6.6659,6.7467,6.7899,6.7986,6.7523,6.7468,6.7597,6.7916,6.8376,6.8782,6.8875,6.9463,6.9937,7.0116,7.0656,7.0772,6.9892,6.9494,6.8978,6.8062,6.8055,6.8158,6.8296,6.9113,6.9929,7.0434,7.1547,7.28,7.4327,7.5627,7.7891,8.1407,8.2383,8.396,8.6401,8.6513,8.8128,9.147,9.1259,9.1296,9.1507,9.2983,9.3709,9.3784,9.5615,9.6693,9.7237,9.8442,9.878,9.8616,9.8842,9.8905,9.9017,9.9806,10.0594,10.1533,10.209,10.2886,10.3597,4.8694,4.8791,4.8469,4.7068,4.7298,4.7356,4.6327,4.8049,4.9601,4.9915,5.1832,5.3231,5.3421,5.5648,5.7192,5.7192,5.8774,5.9824,5.9885,5.9824,6.0089,6.0686,6.0918,6.1533,6.2597,6.2786,6.3276,6.4027,6.3986,6.4178,6.4596,6.4596,6.4708,6.4888,6.5133,6.5199,6.5308,6.7088,6.7702,6.7753,6.9321,6.9815,6.9617,6.9495,6.9411,6.9246,6.9203,6.9246,6.9327,6.8975,6.8929,6.8892,6.8457,6.8023,6.7686,6.7583,6.7426,6.7447,6.7773,6.8004,6.8134,6.8171,6.8278,6.8418,6.8778,6.8743,6.8931,6.9584,6.974,7.0213,7.16,7.1827,7.1751,7.1403,7.1198,7.0585,6.9595,6.9647,6.9769,6.9858,7.0665,7.1324,7.1635,7.2362,7.3654,7.541,7.7662,7.9702,8.1519,8.2946,8.4613,8.6599,8.7131,8.8784,9.164,9.147,9.1655,9.2196,9.3942,9.473,9.4646,9.6356,9.7555,9.8442,9.8567,9.8742,9.8842,9.8905,9.9243,9.9843,10.0707,10.1495,10.2322,10.3083,10.3533,10.3721,4.8342,4.8391,4.8127,4.7159,4.7404,4.7446,4.6744,4.832,4.9712,4.9934,5.174,5.3099,5.3263,5.5583,5.7088,5.7088,5.874,5.9824,5.9885,5.989,6.035,6.1553,6.1561,6.2135,6.3351,6.3653,6.3992,6.4364,6.4364,6.4443,6.4596,6.4634,6.4745,6.4888,6.5061,6.5128,6.5313,6.7055,6.7707,6.7753,6.9321,6.9815,6.9577,6.9495,6.9332,6.9203,6.9203,6.9246,6.9289,6.902,6.8892,6.8846,6.8506,6.8259,6.807,6.7967,6.7899,6.7794,6.7899,6.8055,6.8259,6.8517,6.8602,6.8697,6.9027,6.9108,6.9283,6.9863,7.0448,7.1144,7.2347,7.2435,7.2248,7.2109,7.1643,7.0954,7.0257,7.0347,7.0507,7.056,7.1524,7.2146,7.2109,7.3187,7.4666,7.6476,7.9112,8.0877,8.1557,8.3509,8.5215,8.6651,8.7394,8.9047,9.1695,9.1564,9.2013,9.3117,9.4827,9.5615,9.563,9.7341,9.8355,9.8905,9.8805,9.8805,9.8942,9.9243,9.9656,10.0181,10.1383,10.2209,10.2697,10.3523,10.3824,10.3824,4.8702,4.825,4.7859,4.8207,4.7562,4.7002,4.716,4.8466,4.9585,4.9781,5.1676,5.304,5.3207,5.5555,5.7088,5.7159,5.8774,5.9824,5.9885,5.9961,6.0719,6.2349,6.2463,6.2776,6.3389,6.4181,6.452,6.4284,6.4326,6.4444,6.4596,6.4633,6.4743,6.4888,6.4955,6.5095,6.5313,6.6988,6.7673,6.7753,6.9355,6.9815,6.9577,6.9577,6.9453,6.9203,6.9203,6.9203,6.9203,6.9072,6.8846,6.865,6.8554,6.8358,6.8158,6.807,6.8018,6.7952,6.7952,6.8144,6.847,6.8762,6.8825,6.89,6.9087,6.95,6.9892,7.0065,7.1342,7.2472,7.2645,7.2596,7.2447,7.2272,7.1383,7.0676,7.0514,7.0622,7.0729,7.0887,7.1913,7.2596,7.2272,7.3964,7.5832,7.7475,7.9987,8.1514,8.182,8.411,8.5816,8.6816,8.7561,8.9122,9.1695,9.1527,9.2333,9.4023,9.5638,9.6426,9.6464,9.8298,9.905,9.8905,9.905,9.9088,9.9117,9.9806,10.0181,10.0482,10.1984,10.2697,10.281,10.3523,10.3824,10.3824,4.8358,4.8619,4.8675,4.8127,4.8085,4.812,4.795,4.9125,5.041,5.14,5.279,5.3828,5.4138,5.5927,5.7154,5.7321,5.8906,5.9885,5.9885,6.0492,6.1288,6.2349,6.2993,6.3646,6.4294,6.4483,6.452,6.4284,6.4203,6.4247,6.4444,6.4444,6.4558,6.4743,6.492,6.5095,6.5313,6.6988,6.7673,6.7753,6.9321,6.9815,6.9577,6.9495,6.9332,6.9203,6.9203,6.9246,6.9332,6.9203,6.8937,6.8697,6.865,6.8457,6.8259,6.8121,6.807,6.8055,6.8055,6.8652,6.9335,6.9676,7.0683,7.1279,7.0247,7.0405,7.0995,7.1715,7.2162,7.2621,7.3392,7.3454,7.3317,7.3266,7.2807,7.2373,7.2208,7.2171,7.2319,7.2519,7.2934,7.3266,7.3417,7.496,7.6705,7.8452,8.0234,8.1949,8.3627,8.529,8.6787,8.7978,8.8496,8.9741,9.186,9.1583,9.2333,9.4023,9.5638,9.6426,9.6464,9.8298,9.9111,9.905,9.9111,9.9547,10.0172,10.0278,10.1082,10.2286,10.2699,10.3125,10.3598,10.3711,10.3824,10.3824,4.8663,4.8908,4.901,4.8346,4.8344,4.8572,4.8941,4.9621,5.0671,5.2218,5.2971,5.3607,5.4265,5.5973,5.7494,5.8521,5.9393,6.0037,6.0454,6.0871,6.1667,6.2886,6.3338,6.3911,6.4482,6.4558,6.452,6.4284,6.4244,6.4244,6.4364,6.4326,6.4367,6.4558,6.4707,6.4924,6.5209,6.6882,6.7601,6.7753,6.9283,6.9815,6.9577,6.9536,6.9332,6.9203,6.9203,6.9246,6.9289,6.916,6.8937,6.8744,6.8697,6.8506,6.8309,6.8208,6.8208,6.8282,6.8652,6.9161,6.988,7.0992,7.2197,7.2683,7.1135,7.1563,7.2311,7.2385,7.2721,7.3143,7.3789,7.4064,7.4062,7.3652,7.3548,7.337,7.276,7.2723,7.2779,7.2982,7.3305,7.3913,7.4948,7.582,7.7167,7.929,8.096,8.2564,8.4102,8.6132,8.757,8.8281,8.928,9.047,9.1914,9.2072,9.2767,9.4023,9.5638,9.6426,9.6464,9.8358,9.917,9.9111,9.9703,10.0215,10.0705,10.14,10.2207,10.2998,10.3413,10.3703,10.3915,10.3915,10.4114,10.4387,4.9224,4.9281,4.9195,4.886,4.8578,4.8785,4.9783,5.0032,5.0786,5.2623,5.2853,5.3273,5.4239,5.6127,5.8018,5.9772,6.0037,6.0378,6.106,6.1363,6.2125,6.3421,6.3681,6.3988,6.4405,6.4558,6.452,6.4284,6.4244,6.4244,6.4284,6.4206,6.4209,6.4366,6.4558,6.4745,6.5069,6.6739,6.7531,6.7715,6.9319,6.9815,6.9577,6.9577,6.9453,6.9203,6.9203,6.9203,6.916,6.9072,6.8975,6.8875,6.8931,6.8777,6.8531,6.8679,6.8716,6.8901,6.9679,7.004,7.0599,7.2533,7.3516,7.3628,7.2294,7.2944,7.3628,7.2758,7.3181,7.3803,7.411,7.4562,7.4635,7.3964,7.4047,7.3868,7.289,7.2834,7.2927,7.2982,7.341,7.44,7.6256,7.6556,7.7642,8.0165,8.1874,8.3292,8.4313,8.6621,8.8059,8.823,8.9838,9.1084,9.1914,9.2541,9.337,9.427,9.5713,9.6426,9.6524,9.8514,9.9326,9.9267,10.0293,10.0804,10.1011,10.25,10.3218,10.3406,10.4124,10.4304,10.4079,10.4079,10.4543,10.5128,4.9984,4.9858,4.9695,4.959,4.9183,4.9164,4.9957,5.0485,5.1302,5.2784,5.337,5.4056,5.5209,5.7099,5.8727,5.9809,6.053,6.0984,6.1098,6.2463,6.3338,6.3497,6.4323,6.4631,6.4405,6.4558,6.452,6.4284,6.4079,6.4,6.4121,6.4,6.4083,6.4324,6.452,6.4708,6.5002,6.6706,6.7463,6.7648,6.9284,6.9776,6.9577,6.9577,6.9453,6.9203,6.9203,6.9203,6.9203,6.916,6.9065,6.9033,6.9696,6.9692,6.9645,7.0212,7.0485,7.0721,7.1472,7.1747,7.2322,7.4213,7.4748,7.4836,7.4709,7.4822,7.4698,7.3665,7.374,7.4148,7.4761,7.5035,7.5072,7.4861,7.4681,7.4142,7.3093,7.3369,7.3553,7.3056,7.3461,7.4499,7.6402,7.713,7.8591,8.1168,8.2826,8.4154,8.5244,8.6922,8.8006,8.8381,8.9786,9.103,9.2035,9.2597,9.369,9.5213,9.6036,9.6486,9.6739,9.8572,9.9442,9.9594,10.0445,10.1296,10.2128,10.2865,10.3735,10.4416,10.4529,10.4411,10.4304,10.4104,10.4606,10.5295,5.0744,5.0627,5.0507,5.0134,4.9767,4.9652,5.0204,5.085,5.1646,5.2607,5.3645,5.4572,5.5323,5.7215,5.9034,6.0454,6.0909,6.1477,6.2394,6.3151,6.3686,6.3992,6.4482,6.4596,6.4364,6.4443,6.4443,6.4284,6.4121,6.4042,6.4121,6.4444,6.4711,6.4916,6.512,6.5351,6.5612,6.6861,6.7463,6.7648,6.9171,6.9737,6.9577,6.9536,6.9369,6.9278,6.9766,7.0217,7.063,7.063,7.0413,7.0303,7.0677,7.0597,7.0424,7.0708,7.087,7.1106,7.1909,7.2132,7.2657,7.4549,7.501,7.5022,7.5256,7.5304,7.5031,7.3915,7.42,7.4795,7.5035,7.5907,7.6394,7.5757,7.585,7.5605,7.4515,7.4531,7.4421,7.3976,7.3825,7.4548,7.644,7.6965,7.8579,8.2109,8.3397,8.4689,8.619,8.7833,8.8617,8.8419,9.041,9.1643,9.202,9.3142,9.4274,9.5305,9.6013,9.6712,9.7417,9.8798,9.9442,9.9689,10.0956,10.1901,10.2411,10.3606,10.4381,10.4684,10.4684,10.4626,10.4486,10.4794,10.5373,10.6202]},{"header":{"parameterUnit":"m.s-1","parameterCategory":1,"la1":30.6,"la2":28.766,"lo1":-90.7593,"lo2":-88.6598,"dy":0.0162,"dx":0.0183,"nx":116,"ny":114,"refTime":"2024-03-22T12:00:00:Z","depth":0,"parameterNumber":3,"parameterNumberName":"V-component_of_WINDS"},"data":[0.0,0.0,0.0,0.0,0.0,0.0,0.0,0.0,0.0,0.0,0.0,0.0,0.0,0.0,0.0,0.0,0.0,0.0,0.0,0.0,0.0,0.0,0.0,0.0,0.0,0.0,0.0,0.0,0.0,0.0,0.0,0.0,0.0,0.0,0.0,0.0,0.0,0.0,0.0,0.0,0.0,0.0,0.0,0.0,0.0,0.0,0.0,0.0,0.0,0.0,0.0,0.0,0.0,0.0,0.0,0.0,0.0,0.0,0.0,0.0,0.0,0.0,0.0,0.0,0.0,0.0,0.0,0.0,0.0,0.0,0.0,0.0,0.0,0.0,0.0,0.0,0.0,0.0,0.0,0.0,0.0,0.0,0.0,0.0,0.0,0.0,0.0,0.0,0.0,0.0,0.0,0.0,0.0,0.0,0.0,0.0,0.0,0.0,0.0,0.0,0.0,0.0,0.0,0.0,0.0,0.0,0.0,0.0,0.0,0.0,0.0,0.0,0.0,0.0,0.0,0.0,0.0,0.0,0.0,0.0,0.0,0.0,0.0,0.0,0.0,0.0,0.0,0.0,0.0,0.0,0.0,0.0,0.0,0.0,0.0,0.0,0.0,0.0,0.0,0.0,0.0,0.0,0.0,0.0,0.0,0.0,0.0,0.0,0.0,0.0,0.0,0.0,0.0,0.0,0.0,0.0,0.0,0.0,0.0,0.0,0.0,0.0,0.0,0.0,0.0,0.0,0.0,0.0,0.0,0.0,0.0,0.0,0.0,0.0,0.0,0.0,0.0,0.0,0.0,0.0,0.0,0.0,0.0,0.0,0.0,0.0,0.0,0.0,0.0,0.0,0.0,0.0,0.0,0.0,0.0,0.0,0.0,0.0,0.0,0.0,0.0,0.0,0.0,0.0,0.0,0.0,0.0,0.0,0.0,0.0,0.0,0.0,0.0,0.0,0.0,0.0,0.0,0.0,0.0,0.0,0.0,0.0,0.0,0.0,0.0,0.0,0.0,0.0,0.0,0.0,0.0,0.0,0.0,0.0,0.0,0.0,0.0,0.0,0.0,0.0,0.0,0.0,0.0,0.0,0.0,0.0,0.0,0.0,0.0,0.0,0.0,0.0,0.0,0.0,0.0,0.0,0.0,0.0,0.0,0.0,0.0,0.0,0.0,0.0,0.0,0.0,0.0,0.0,0.0,0.0,0.0,0.0,0.0,0.0,0.0,0.0,0.0,0.0,0.0,0.0,0.0,0.0,0.0,0.0,0.0,0.0,0.0,0.0,0.0,0.0,0.0,0.0,0.0,0.0,0.0,0.0,0.0,0.0,0.0,0.0,0.0,0.0,0.0,0.0,0.0,0.0,0.0,0.0,0.0,0.0,0.0,0.0,0.0,0.0,0.0,0.0,0.0,0.0,0.0,0.0,0.0,0.0,0.0,0.0,0.0,0.0,0.0,0.0,0.0,0.0,0.0,0.0,0.0,0.0,0.0,0.0,0.0,0.0,0.0,0.0,0.0,0.0,0.0,0.0,0.0,0.0,0.0,0.0,0.0,0.0,0.0,0.0,0.0,0.0,0.0,0.0,0.0,0.0,0.0,0.0,0.0,0.0,0.0,0.0,0.0,0.0,0.0,0.0,0.0,0.0,0.0,0.0,0.0,0.0,0.0,0.0,0.0,0.0,0.0,0.0,0.0,0.0,0.0,0.0,0.0,0.0,0.0,0.0,0.0,0.0,0.0,0.0,0.0,0.0,0.0,0.0,0.0,0.0,0.0,0.0,0.0,0.0,0.0,0.0,0.0,0.0,0.0,0.0,0.0,0.0,0.0,0.0,0.0,0.0,0.0,0.0,0.0,0.0,0.0,0.0,0.0,0.0,0.0,0.0,0.0,0.0,0.0,0.0,0.0,0.0,0.0,0.0,0.0,0.0,0.0,0.0,0.0,0.0,0.0,0.0,0.0,0.0,0.0,0.0,0.0,0.0,0.0,0.0,0.0,0.0,0.0,0.0,0.0,0.0,0.0,0.0,0.0,0.0,0.0,0.0,0.0,0.0,0.0,0.0,0.0,0.0,0.0,0.0,0.0,0.0,0.0,0.0,0.0,0.0,0.0,0.0,0.0,0.0,0.0,0.0,0.0,0.0,0.0,0.0,0.0,0.0,0.0,0.0,0.0,0.0,0.0,0.0,0.0,0.0,0.0,0.0,0.0,0.0,0.0,0.0,0.0,0.0,0.0,0.0,0.0,0.0,0.0,0.0,0.0,0.0,0.0,0.0,0.0,0.0,0.0,0.0,0.0,0.0,0.0,0.0,0.0,0.0,0.0,0.0,0.0,0.0,0.0,0.0,0.0,0.0,0.0,0.0,0.0,0.0,0.0,0.0,0.0,0.0,0.0,0.0,0.0,0.0,0.0,0.0,0.0,0.0,0.0,0.0,0.0,0.0,0.0,0.0,0.0,0.0,0.0,0.0,0.0,0.0,0.0,0.0,0.0,0.0,0.0,0.0,0.0,0.0,0.0,0.0,0.0,0.0,0.0,0.0,0.0,0.0,0.0,0.0,0.0,0.0,0.0,0.0,0.0,0.0,0.0,0.0,0.0,0.0,0.0,0.0,0.0,0.0,0.0,0.0,0.0,0.0,0.0,0.0,0.0,0.0,0.0,0.0,0.0,0.0,0.0,0.0,0.0,0.0,0.0,0.0,0.0,0.0,0.0,0.0,0.0,0.0,0.0,0.0,0.0,0.0,0.0,0.0,0.0,0.0,0.0,0.0,0.0,0.0,0.0,0.0,0.0,0.0,0.0,0.0,0.0,0.0,0.0,0.0,0.0,0.0,0.0,0.0,0.0,0.0,0.0,0.0,0.0,0.0,0.0,0.0,0.0,0.0,0.0,0.0,0.0,0.0,0.0,0.0,0.0,0.0,0.0,0.0,0.0,0.0,0.0,0.0,0.0,0.0,0.0,0.0,0.0,0.0,0.0,0.0,0.0,0.0,0.0,0.0,0.0,0.0,0.0,0.0,0.0,0.0,0.0,0.0,0.0,0.0,0.0,0.0,0.0,0.0,0.0,0.0,0.0,0.0,0.0,0.0,0.0,0.0,0.0,0.0,0.0,0.0,0.0,0.0,0.0,0.0,0.0,0.0,0.0,0.0,0.0,0.0,0.0,0.0,0.0,0.0,0.0,0.0,0.0,0.0,0.0,0.0,0.0,0.0,0.0,0.0,0.0,0.0,0.0,0.0,0.0,0.0,0.0,0.0,0.0,0.0,0.0,0.0,0.0,0.0,0.0,0.0,0.0,0.0,0.0,0.0,0.0,0.0,0.0,0.0,0.0,0.0,0.0,0.0,0.0,0.0,0.0,0.0,0.0,0.0,0.0,0.0,0.0,0.0,0.0,0.0,0.0,0.0,0.0,0.0,0.0,0.0,0.0,0.0,0.0,0.0,0.0,0.0,0.0,0.0,0.0,0.0,0.0,0.0,0.0,0.0,0.0,0.0,0.0,0.0,0.0,0.0,0.0,0.0,0.0,0.0,0.0,0.0,0.0,0.0,0.0,0.0,0.0,0.0,0.0,0.0,0.0,0.0,0.0,0.0,0.0,0.0,0.0,0.0,0.0,0.0,0.0,0.0,0.0,0.0,0.0,0.0,0.0,0.0,0.0,0.0,0.0,0.0,0.0,0.0,0.0,0.0,0.0,0.0,0.0,0.0,0.0,0.0,0.0,0.0,0.0,0.0,0.0,0.0,0.0,0.0,0.0,0.0,0.0,0.0,0.0,0.0,0.0,0.0,0.0,0.0,0.0,0.0,0.0,0.0,0.0,0.0,0.0,0.0,0.0,0.0,0.0,0.0,0.0,0.0,0.0,0.0,0.0,0.0,0.0,0.0,0.0,0.0,0.0,0.0,0.0,0.0,0.0,0.0,0.0,0.0,0.0,0.0,0.0,0.0,0.0,0.0,0.0,0.0,0.0,0.0,0.0,0.0,0.0,0.0,0.0,0.0,0.0,0.0,0.0,0.0,0.0,0.0,0.0,0.0,0.0,0.0,0.0,0.0,0.0,0.0,0.0,0.0,0.0,0.0,0.0,0.0,0.0,0.0,0.0,0.0,0.0,0.0,0.0,0.0,0.0,0.0,0.0,0.0,0.0,0.0,0.0,0.0,0.0,0.0,0.0,0.0,0.0,0.0,0.0,0.0,0.0,0.0,0.0,0.0,0.0,0.0,0.0,0.0,0.0,0.0,0.0,0.0,0.0,0.0,0.0,0.0,0.0,0.0,0.0,0.0,0.0,0.0,0.0,0.0,0.0,0.0,0.0,0.0,0.0,0.0,0.0,0.0,0.0,0.0,0.0,0.0,0.0,0.0,0.0,0.0,0.0,0.0,0.0,0.0,0.0,0.0,0.0,0.0,0.0,0.0,0.0,0.0,0.0,0.0,0.0,0.0,0.0,0.0,0.0,0.0,0.0,0.0,0.0,0.0,0.0,0.0,0.0,0.0,0.0,0.0,0.0,0.0,0.0,0.0,0.0,0.0,0.0,0.0,0.0,0.0,0.0,0.0,0.0,0.0,0.0,0.0,0.0,0.0,0.0,0.0,0.0,0.0,0.0,0.0,0.0,0.0,0.0,0.0,0.0,0.0,0.0,0.0,0.0,0.0,0.0,0.0,0.0,0.0,0.0,0.0,0.0,0.0,0.0,0.0,0.0,0.0,0.0,0.0,0.0,0.0,0.0,0.0,0.0,0.0,0.0,0.0,0.0,0.0,0.0,0.0,0.0,0.0,0.0,0.0,0.0,0.0,0.0,0.0,0.0,0.0,0.0,0.0,0.0,0.0,0.0,0.0,0.0,0.0,0.0,0.0,0.0,0.0,0.0,0.0,0.0,0.0,0.0,0.0,0.0,0.0,0.0,0.0,0.0,0.0,0.0,0.0,0.0,0.0,0.0,0.0,0.0,0.0,0.0,0.0,0.0,0.0,0.0,0.0,0.0,0.0,0.0,0.0,0.0,0.0,0.0,0.0,0.0,0.0,0.0,0.0,0.0,0.0,0.0,0.0,0.0,0.0,0.0,0.0,0.0,0.0,0.0,0.0,0.0,0.0,0.0,0.0,0.0,0.0,0.0,0.0,0.0,0.0,0.0,0.0,0.0,0.0,0.0,0.0,0.0,0.0,0.0,0.0,0.0,0.0,0.0,0.0,0.0,0.0,0.0,0.0,0.0,0.0,0.0,0.0,0.0,0.0,0.0,0.0,0.0,0.0,0.0,0.0,0.0,0.0,0.0,0.0,0.0,0.0,0.0,0.0,0.0,0.0,0.0,0.0,0.0,0.0,0.0,0.0,0.0,0.0,0.0,0.0,0.0,0.0,0.0,0.0,0.0,0.0,0.0,0.0,0.0,0.0,0.0,0.0,0.0,0.0,0.0,0.0,0.0,0.0,0.0,0.0,0.0,0.0,0.0,0.0,0.0,0.0,0.0,0.0,0.0,0.0,0.0,0.0,0.0,0.0,0.0,0.0,0.0,0.0,0.0,0.0,0.0,0.0,0.0,0.0,0.0,0.0,0.0,0.0,0.0,0.0,0.0,0.0,0.0,0.0,0.0,0.0,0.0,0.0,0.0,0.0,0.0,0.0,0.0,0.0,0.0,0.0,0.0,0.0,0.0,0.0,0.0,0.0,0.0,0.0,0.0,0.0,0.0,0.0,0.0,0.0,0.0,0.0,0.0,0.0,0.0,0.0,0.0,0.0,0.0,0.0,0.0,0.0,0.0,0.0,0.0,0.0,0.0,0.0,0.0,0.0,0.0,0.0,0.0,0.0,0.0,0.0,0.0,0.0,0.0,0.0,0.0,0.0,0.0,0.0,0.0,0.0,0.0,0.0,0.0,0.0,0.0,0.0,0.0,0.0,0.0,0.0,0.0,0.0,0.0,0.0,0.0,0.0,0.0,0.0,0.0,0.0,0.0,0.0,0.0,0.0,0.0,0.0,0.0,0.0,0.0,0.0,0.0,0.0,0.0,0.0,0.0,0.0,0.0,0.0,0.0,0.0,0.0,0.0,0.0,0.0,0.0,0.0,0.0,0.0,0.0,0.0,0.0,0.0,0.0,0.0,0.0,0.0,-0.9781,0.0,0.0,0.0,0.0,0.0,0.0,0.0,0.0,0.0,0.0,0.0,0.0,0.0,0.0,0.0,0.0,0.0,0.0,0.0,0.0,0.0,0.0,0.0,0.0,0.0,0.0,0.0,0.0,0.0,0.0,0.0,0.0,0.0,0.0,0.0,0.0,0.0,-1.1324,-1.2171,-1.1658,-1.1245,-1.077,-0.9755,-0.8742,0.0,0.0,0.0,0.0,0.0,0.0,0.0,0.0,0.0,0.0,0.0,0.0,0.0,0.0,0.0,0.0,0.0,0.0,0.0,0.0,0.0,0.0,0.0,0.0,0.0,0.0,0.0,0.0,0.0,0.0,0.0,0.0,0.0,0.0,0.0,0.0,0.0,0.0,0.0,0.0,0.0,0.0,0.0,0.0,0.0,0.0,0.0,0.0,0.0,0.0,0.0,0.0,0.0,0.0,0.0,0.0,0.0,0.0,0.0,0.0,0.0,0.0,0.0,0.0,0.0,0.0,0.0,0.0,0.0,0.0,0.0,0.0,-0.9758,0.0,0.0,0.0,0.0,0.0,0.0,0.0,0.0,0.0,0.0,0.0,0.0,0.0,0.0,0.0,0.0,0.0,0.0,0.0,0.0,0.0,0.0,0.0,-0.6662,-0.6731,-0.7709,-0.7431,-0.7411,-0.8124,-0.8529,-0.9016,-0.9659,-1.0417,-1.1038,-1.1419,-1.1533,-1.1972,-1.2644,-1.1878,-1.1277,-1.0658,-1.0012,0.0,0.0,0.0,0.0,0.0,0.0,0.0,0.0,0.0,0.0,0.0,0.0,0.0,0.0,0.0,0.0,0.0,0.0,0.0,0.0,0.0,0.0,0.0,0.0,0.0,0.0,0.0,0.0,0.0,0.0,0.0,0.0,0.0,0.0,0.0,0.0,0.0,0.0,0.0,0.0,0.0,0.0,0.0,0.0,0.0,0.0,0.0,0.0,0.0,0.0,0.0,0.0,0.0,0.0,0.0,0.0,0.0,0.0,0.0,0.0,0.0,0.0,0.0,0.0,0.0,0.0,-0.9579,-0.9826,-1.0287,-1.0387,-1.0748,-1.1076,-1.0263,-0.9912,-0.9859,-0.966,0.0,0.0,0.0,0.0,0.0,0.0,0.0,0.0,0.0,0.0,0.0,0.0,0.0,0.0,0.0,0.0,0.0,0.0,0.0,0.0,0.0,-0.6699,-0.6855,-0.8087,-0.8076,-0.8119,-0.8383,-0.9172,-0.9538,-0.9423,-1.0344,-1.1038,-1.1672,-1.1775,-1.2043,-1.2725,-1.1931,-1.156,-1.1615,-1.0558,-1.0022,-0.9864,-0.8824,0.0,0.0,0.0,0.0,0.0,0.0,0.0,0.0,0.0,0.0,0.0,0.0,0.0,0.0,0.0,0.0,0.0,0.0,0.0,0.0,0.0,0.0,0.0,0.0,0.0,0.0,0.0,0.0,0.0,0.0,0.0,0.0,0.0,0.0,0.0,0.0,0.0,0.0,0.0,0.0,0.0,0.0,0.0,-1.217,-1.209,0.0,0.0,0.0,0.0,0.0,0.0,0.0,0.0,0.0,0.0,0.0,0.0,0.0,-1.0735,-1.0468,-1.0252,-1.0133,-0.9813,-0.9699,-1.015,-1.0854,-1.0322,-1.0798,-1.1809,-1.1167,0.0,-1.0587,-0.9925,0.0,0.0,0.0,0.0,0.0,0.0,0.0,0.0,0.0,0.0,0.0,0.0,0.0,0.0,0.0,0.0,0.0,0.0,0.0,0.0,0.0,-0.7098,-0.7321,-0.7925,-0.7755,-0.7796,-0.8239,-0.8593,-0.9086,-0.9563,-1.0869,-1.16,-1.1827,-1.2499,-1.2833,-1.2961,-1.224,-1.1972,-1.2048,-1.1333,-1.0932,-1.0717,-1.0332,-0.9902,-0.93,-0.9039,0.0,0.0,0.0,0.0,0.0,0.0,0.0,0.0,0.0,0.0,0.0,0.0,0.0,0.0,0.0,0.0,0.0,0.0,0.0,0.0,0.0,0.0,0.0,0.0,0.0,0.0,0.0,0.0,0.0,0.0,0.0,0.0,0.0,0.0,0.0,0.0,0.0,0.0,0.0,-1.215,-1.2741,-1.2567,-1.311,-1.3341,0.0,0.0,0.0,0.0,0.0,0.0,0.0,0.0,0.0,-1.1416,-1.1261,-1.0934,-1.0572,-1.0393,-1.0254,-0.9835,-0.9786,-1.0247,-1.1066,-1.0643,-1.0946,-1.183,-1.159,-1.1397,-1.1286,-1.0831,-1.0245,-0.9321,0.0,0.0,0.0,0.0,-0.8728,-0.9187,0.0,0.0,0.0,0.0,0.0,0.0,0.0,0.0,0.0,0.0,0.0,0.0,-0.7403,-0.7505,-0.7643,-0.7998,-0.7682,-0.7587,-0.8179,-0.8388,-0.8903,-0.9831,-1.125,-1.1996,-1.2041,-1.2913,-1.3363,-1.3026,-1.2505,-1.2305,-1.2312,-1.1806,-1.1545,-1.1445,-1.1603,-1.1028,-0.9788,-0.9776,-0.9528,0.0,0.0,0.0,0.0,0.0,0.0,0.0,0.0,0.0,0.0,0.0,0.0,0.0,0.0,0.0,0.0,0.0,0.0,0.0,0.0,0.0,0.0,0.0,0.0,0.0,0.0,0.0,0.0,0.0,0.0,0.0,0.0,0.0,0.0,0.0,0.0,0.0,0.0,-1.2567,-1.3276,-1.3271,-1.3735,-1.3964,0.0,0.0,0.0,0.0,0.0,0.0,-1.2053,-1.1598,-1.1523,-1.1613,-1.1688,-1.1338,-1.0706,-1.0743,-1.0427,-0.9883,-0.9851,-1.0157,-1.0803,-1.0767,-1.1227,-1.2031,-1.1904,-1.2157,-1.2787,-1.2381,-1.1688,-1.0586,-0.8692,-0.897,-1.0266,-0.8844,-0.8865,-0.9604,0.0,0.0,0.0,0.0,0.0,0.0,0.0,0.0,0.0,0.0,0.0,-0.7179,-0.751,-0.7301,-0.7516,-0.8264,-0.8013,-0.806,-0.8579,-0.8996,-0.9695,-1.0373,-1.1176,-1.1996,-1.27,-1.2913,-1.2905,-1.2824,-1.2437,-1.2305,-1.2312,-1.2074,-1.2008,-1.2008,-1.2179,-1.1532,-1.018,-1.0431,-1.0227,-0.9948,0.0,0.0,0.0,0.0,0.0,0.0,0.0,0.0,0.0,0.0,0.0,0.0,0.0,0.0,0.0,0.0,0.0,0.0,0.0,0.0,0.0,0.0,0.0,0.0,0.0,0.0,0.0,0.0,0.0,0.0,0.0,0.0,0.0,0.0,0.0,0.0,0.0,0.0,0.0,-1.3888,-1.4164,0.0,0.0,0.0,0.0,-1.4466,-1.346,-1.2745,-1.2768,-1.2323,-1.2036,-1.1619,-1.2032,-1.1884,-1.0853,-1.0981,-1.0656,-1.0008,-0.9883,-0.9878,-1.0136,-1.0644,-1.1434,-1.2515,-1.2463,-1.3792,-1.5891,-1.439,-1.2926,-1.1462,-1.145,-1.0542,-0.9264,-0.9122,-0.9198,-0.9441,0.0,0.0,0.0,0.0,0.0,0.0,0.0,0.0,-0.7022,-0.7253,-0.7168,-0.7298,-0.7894,-0.787,-0.798,-0.8405,-0.8223,-0.8275,-0.8851,-0.9076,-0.9624,-1.0525,-1.149,-1.2505,-1.3481,-1.3029,-1.3029,-1.3235,-1.2946,-1.2869,-1.2877,-1.2893,-1.2834,-1.2589,-1.3181,-1.2988,-1.1946,-1.1643,-1.119,-1.0739,-1.0337,-1.0181,0.0,0.0,0.0,0.0,0.0,0.0,0.0,0.0,0.0,0.0,0.0,0.0,0.0,0.0,0.0,0.0,0.0,0.0,0.0,0.0,0.0,0.0,0.0,0.0,0.0,0.0,0.0,0.0,0.0,0.0,0.0,0.0,0.0,0.0,0.0,0.0,0.0,-1.4675,-1.5267,0.0,-1.5325,-1.4906,-1.4432,-1.4219,-1.3395,-1.2654,-1.2619,-1.2482,-1.2191,-1.1755,-1.2346,-1.2155,-1.1314,-1.1308,-1.0944,-1.0366,-1.0081,-1.0269,-1.0773,-1.0412,-1.1048,-1.2501,-1.206,-1.359,-1.6174,-1.5587,-1.4223,-1.2466,-1.1402,-1.096,-1.0674,-0.9672,-0.9701,-1.0462,0.0,0.0,0.0,0.0,0.0,0.0,0.0,0.0,-0.7134,-0.7253,-0.728,-0.7417,-0.7889,-0.8033,-0.8285,-0.8535,-0.8524,-0.8723,-0.9256,-0.9474,-1.0041,-1.1001,-1.2216,-1.322,-1.3884,-1.3358,-1.3392,-1.3725,-1.3445,-1.3259,-1.3333,-1.3636,-1.371,-1.3465,-1.4204,-1.4178,-1.3717,-1.3319,-1.2657,-1.1942,-1.1456,-1.1017,-1.0731,0.0,0.0,0.0,0.0,0.0,0.0,0.0,0.0,0.0,0.0,0.0,0.0,0.0,0.0,0.0,0.0,0.0,0.0,0.0,0.0,0.0,0.0,0.0,0.0,0.0,0.0,0.0,0.0,0.0,0.0,0.0,0.0,0.0,0.0,0.0,-1.4692,-1.524,-1.5869,-1.6259,-1.5976,-1.5404,-1.4873,-1.438,-1.3594,-1.3032,-1.2853,-1.2758,-1.264,-1.2058,-1.26,-1.2536,-1.1697,-1.1795,-1.1378,-1.0451,-1.0417,-1.0898,-1.174,-1.0998,-1.1795,-1.3784,-1.2986,-1.4115,-1.6257,-1.6109,-1.5158,-1.369,-1.2338,-1.1893,-1.1619,-1.0455,-1.0599,-1.1181,0.0,0.0,0.0,0.0,0.0,0.0,0.0,-0.7826,-0.7472,-0.7026,-0.7285,-0.7536,-0.7645,-0.7912,-0.8414,-0.8796,-0.9048,-0.9256,-0.9661,-1.0195,-1.0969,-1.1826,-1.3086,-1.3865,-1.3884,-1.3884,-1.398,-1.4165,-1.378,-1.3747,-1.3925,-1.4111,-1.4483,-1.4771,-1.4964,-1.522,-1.5302,-1.5292,-1.48,-1.3746,-1.258,-1.2195,-1.2264,0.0,0.0,0.0,0.0,0.0,0.0,0.0,0.0,0.0,0.0,0.0,0.0,0.0,0.0,0.0,0.0,0.0,0.0,0.0,0.0,0.0,0.0,0.0,0.0,0.0,0.0,0.0,0.0,0.0,0.0,0.0,0.0,0.0,-1.2932,-1.4019,-1.5035,-1.5861,-1.6214,-1.6517,-1.6528,-1.5922,-1.5263,-1.5061,-1.4075,-1.359,-1.359,-1.3598,-1.3245,-1.2664,-1.3111,-1.2899,-1.2166,-1.2311,-1.1682,-1.014,-1.0868,-1.1727,-1.2543,-1.2223,-1.3649,-1.6058,-1.5395,-1.5659,-1.6556,-1.6076,-1.5614,-1.5162,-1.4264,-1.3197,-1.2194,-1.1749,-1.1599,-1.1749,0.0,0.0,0.0,0.0,0.0,0.0,0.0,-0.7826,-0.7472,-0.7026,-0.7057,-0.7303,-0.7521,-0.778,-0.8151,-0.8796,-0.9048,-0.9516,-1.0319,-1.0645,-1.1404,-1.2759,-1.3185,-1.3601,-1.3875,-1.4015,-1.4051,-1.3963,-1.3976,-1.413,-1.4327,-1.4386,-1.4823,-1.5388,-1.5726,-1.5999,-1.6346,-1.6758,-1.6666,-1.6096,-1.4472,-1.3456,-1.2901,0.0,0.0,0.0,0.0,0.0,0.0,0.0,0.0,0.0,0.0,0.0,0.0,0.0,0.0,0.0,0.0,0.0,0.0,0.0,0.0,0.0,0.0,0.0,0.0,0.0,0.0,0.0,0.0,0.0,0.0,0.0,-1.0423,-1.142,-1.2768,-1.3905,-1.5032,-1.6169,-1.7086,-1.7471,-1.7185,-1.6415,-1.5695,-1.5079,-1.4075,-1.359,-1.359,-1.3721,-1.3574,-1.2971,-1.3288,-1.3159,-1.2132,-1.2347,-1.2135,-1.1508,-1.1553,-1.1691,-1.2223,-1.302,-1.3823,-1.4513,-1.5514,-1.6248,-1.6692,-1.65,-1.6057,-1.5614,-1.4541,-1.3578,-1.2617,-1.1893,-1.1749,-1.2194,0.0,0.0,0.0,0.0,0.0,0.0,0.0,-0.7826,-0.7584,-0.6905,-0.694,-0.7065,-0.7146,-0.7521,-0.8017,-0.8926,-0.9312,-1.0054,-1.1115,-1.1524,-1.2246,-1.3386,0.0,-1.3972,-1.4146,-1.4609,-1.4778,-1.4394,-1.4636,-1.4692,-1.4862,-1.5044,-1.547,-1.6028,-1.6603,-1.7157,-1.7429,-1.8143,-1.8161,-1.7545,-1.6992,-1.5594,-1.3895,-1.311,-1.2448,-1.1985,-1.1766,-1.1328,-1.0776,-1.0677,0.0,0.0,0.0,0.0,0.0,0.0,0.0,0.0,0.0,0.0,0.0,0.0,0.0,0.0,0.0,0.0,0.0,0.0,0.0,0.0,0.0,0.0,0.0,0.0,-1.0392,-1.1288,-1.2532,-1.3668,-1.4976,-1.6295,-1.7341,-1.7737,-1.725,-1.6925,-1.6324,-1.5354,-1.4779,-1.4155,-1.4024,-1.4279,-1.4166,-1.3778,-1.3476,-1.2813,-1.196,-1.2678,-1.2719,-1.1952,-1.2026,-1.2296,-1.2919,-1.2971,-1.3652,-1.4949,-1.5067,-1.5741,-1.6797,-1.7068,-1.6768,0.0,0.0,0.0,0.0,0.0,-1.2561,-1.3153,0.0,0.0,0.0,0.0,0.0,0.0,0.0,-0.8048,-0.7685,-0.6652,-0.6808,-0.6817,-0.6611,-0.7258,-0.8012,-0.8903,-0.9707,-1.0724,-1.1776,-1.2578,-1.3394,-1.3884,-1.4449,-1.4609,-1.4444,-1.5433,-1.5672,-1.5271,-1.5284,-1.5338,-1.532,-1.5943,-1.6461,-1.6875,-1.758,-1.8142,-1.8573,-1.9228,-1.9221,-1.8642,-1.9518,-1.7995,-1.5008,-1.4013,-1.3241,-1.2595,-1.2835,-1.2252,-1.1414,-1.1533,0.0,0.0,0.0,0.0,0.0,0.0,0.0,0.0,0.0,0.0,0.0,0.0,0.0,0.0,0.0,0.0,0.0,0.0,0.0,0.0,0.0,0.0,0.0,0.0,-1.0187,-1.107,-1.2269,-1.3598,-1.5018,-1.616,-1.7264,-1.7776,-1.7245,-1.7216,-1.6768,-1.5804,-1.5518,-1.4901,-1.4199,0.0,0.0,0.0,0.0,-1.2407,-1.1927,-1.328,-1.3115,-1.1775,-1.2486,-1.316,-1.3769,-1.272,-1.3586,-1.6074,-1.4725,-1.5075,-1.6646,-1.7399,-1.7419,-1.6812,-1.6004,-1.4805,-1.3403,-1.3145,-1.3467,-1.4164,0.0,0.0,0.0,0.0,0.0,0.0,0.0,-0.8048,-0.7656,-0.6551,-0.6527,-0.6518,-0.6417,-0.6916,-0.773,-0.8782,-0.9652,-1.085,-1.2444,-1.2732,-1.326,-1.4277,-1.4444,-1.4649,-1.5035,-1.5923,-1.6165,-1.5498,-1.5914,-1.5896,-1.5728,-1.6084,-1.6744,-1.7721,-1.8153,-1.8854,-1.982,-2.0024,-2.0158,-2.0352,-1.9906,-1.8578,-1.6775,-1.6552,-1.5671,-1.451,-1.4272,-1.3655,-1.2791,-1.2543,-1.2535,-1.242,-1.1931,0.0,0.0,0.0,0.0,0.0,0.0,0.0,0.0,0.0,0.0,0.0,0.0,0.0,0.0,0.0,0.0,0.0,0.0,0.0,0.0,-0.9566,-1.0455,-1.1422,-1.21,-1.3519,-1.5159,-1.6904,-1.7711,-1.802,-1.7782,-1.7448,-1.6698,-1.5587,-1.4873,-1.4155,-1.3089,-1.4358,-1.5023,-1.5025,-1.408,-1.3901,-1.4348,-1.373,-1.3193,-1.2589,0.0,0.0,-1.3263,-1.385,-1.4647,-1.5621,-1.5753,-1.6127,-1.6664,-1.7399,-1.7655,-1.7317,-1.5611,-1.4521,-1.3761,-1.3783,-1.3972,-1.4342,0.0,0.0,0.0,0.0,0.0,0.0,0.0,-0.782,-0.731,-0.6521,-0.6285,-0.6269,-0.6129,-0.6647,-0.7444,-0.8402,-1.0174,-1.1818,-1.3218,-1.3358,-1.3621,-1.4408,-1.4791,-1.5016,-1.5233,-1.6385,-1.6641,-1.6099,-1.6389,-1.6486,-1.6421,-1.6637,-1.7308,-1.8153,-1.8854,-1.9692,-2.0376,-2.0922,-2.1187,-2.1411,-2.098,-2.0333,-1.942,-1.8033,-1.6926,-1.5992,-1.5861,-1.5213,-1.4391,-1.4033,-1.3816,-1.3628,-1.3137,-1.3137,-1.3269,0.0,0.0,0.0,0.0,0.0,0.0,0.0,0.0,0.0,0.0,0.0,0.0,0.0,0.0,-1.2716,-1.2266,0.0,-1.0308,-0.9757,-1.0709,-1.1424,-1.1716,-1.3162,-1.4659,-1.6303,-1.7407,-1.7747,-1.6982,-1.7427,-1.7115,-1.5696,-1.5804,-1.4759,-1.2338,-1.3207,-1.3952,-1.4436,-1.4192,-1.4104,-1.418,-1.3973,-1.3456,-1.265,-1.3133,-1.3604,-1.4047,-1.4762,-1.5298,-1.5772,-1.5408,-1.5686,-1.6378,-1.7111,-1.7673,-1.797,-1.6361,-1.5294,-1.457,-1.4667,-1.4679,-1.4776,0.0,0.0,0.0,0.0,0.0,0.0,0.0,-0.751,-0.7001,-0.6412,-0.6188,-0.5937,-0.5774,-0.6273,-0.7193,-0.854,-1.0649,-1.2548,-1.3866,-1.384,-1.4083,-1.4474,-1.5125,-1.5502,-1.55,-1.6665,-1.7099,-1.6773,-1.6847,-1.6927,-1.7036,-1.7358,-1.7872,-1.8573,-1.9692,-2.0527,-2.1057,-2.1675,-2.2058,-2.22,-2.2249,-2.2062,-2.1807,-1.9637,-1.8298,-1.7481,-1.7493,-1.6796,-1.5806,-1.5472,-1.5173,-1.4789,-1.4421,-1.4586,-1.478,-1.4615,-1.4336,0.0,0.0,0.0,0.0,0.0,0.0,0.0,0.0,0.0,-1.719,-1.6418,-1.5031,-1.3722,-1.3122,-1.1814,-1.0744,-1.0197,-1.0805,-1.1417,-1.1586,-1.2756,-1.4119,-1.525,-1.6644,-1.7322,-1.6487,-1.7057,-1.7025,-1.5903,-1.6383,-1.5156,-1.1716,-1.1898,-1.2592,-1.3687,-1.4137,-1.4155,-1.3761,-1.3966,-1.362,-1.262,-1.3551,-1.4199,-1.4701,-1.5126,-1.5551,-1.5932,-1.5154,-1.5432,-1.6478,-1.6946,-1.782,-1.8582,-1.7408,-1.6508,-1.5807,-1.5656,-1.5518,-1.5493,0.0,0.0,0.0,0.0,0.0,0.0,0.0,0.0,-0.6982,-0.6079,-0.5777,-0.565,-0.5414,-0.6264,-0.7791,-1.0228,-1.1336,-1.2413,-1.3744,-1.3717,-1.4006,-1.5032,-1.516,-1.5485,-1.6175,-1.6809,-1.7254,-1.7238,-1.7288,-1.7298,-1.7268,-1.771,-1.8282,-1.8993,-2.011,-2.122,-2.2134,-2.2258,-2.2662,-2.3233,-2.2779,-2.2745,-2.2893,-2.2285,-2.0953,-1.9404,-1.9246,-1.8133,-1.6762,-1.6419,-1.6244,-1.6,-1.5639,-1.5929,-1.6229,-1.565,-1.4945,-1.4288,-1.4673,-1.4818,-1.5091,-1.559,-1.636,-1.715,0.0,0.0,-1.7553,-1.7374,-1.5998,-1.4538,-1.3413,-1.2562,-1.171,-1.0744,-1.1147,-1.1742,-1.202,-1.2813,-1.3687,-1.4475,-1.5565,-1.6963,-1.8148,-1.625,-1.5263,-1.6103,-1.4929,-1.3468,-1.1677,-1.0773,-1.1195,-1.3166,-1.3656,-1.4155,-1.4768,-1.4267,-1.3857,-1.3528,-1.4431,-1.4539,-1.4079,-1.4627,-1.5117,-1.5524,-1.5624,-1.6526,-1.7752,-1.7634,-1.8291,-1.9046,-1.8148,-1.7783,-1.7683,-1.6922,-1.6683,-1.6664,0.0,0.0,0.0,0.0,0.0,0.0,0.0,0.0,0.0,-0.597,-0.5667,-0.5418,-0.5298,-0.6589,-0.8347,-1.0169,-1.1112,-1.2326,-1.3735,-1.3829,-1.4235,-1.5003,-1.5258,-1.5853,-1.6949,-1.7068,-1.7549,-1.8293,-1.7872,-1.7731,-1.7872,-1.8153,-1.8714,-1.9692,-2.0527,-2.176,-2.2956,-2.2763,-2.3289,-2.4157,-2.3621,-2.3604,-2.3976,-2.4193,-2.3475,-2.2154,-2.1317,-2.0282,0.0,-1.8232,-1.7829,-1.7649,-1.7168,-1.7256,-1.7765,-1.7908,-1.7312,-1.6327,-1.5576,-1.5127,-1.51,-1.6097,-1.6594,-1.7191,-1.8843,-1.8994,-1.8764,-1.8463,-1.7329,-1.5843,-1.4502,-1.3428,-1.2255,0.0,-1.1434,-1.1736,-1.159,-1.1986,-1.2585,-1.3195,-1.4854,-1.5931,-1.6277,-1.6195,-1.5804,-1.4877,-1.2306,-1.0999,-1.151,-1.243,-1.3006,-1.3199,-1.405,-1.4479,-1.471,-1.4817,-1.472,-1.4403,-1.4576,-1.4618,-1.4591,-1.4591,-1.4798,-1.5276,-1.5754,-1.666,-1.7631,-1.8148,-1.8967,-1.9962,-1.9478,-1.9404,-1.9703,-1.8339,-1.7602,-1.7399,0.0,0.0,0.0,0.0,0.0,0.0,0.0,0.0,0.0,0.0,-0.5368,-0.5262,-0.5552,-0.7046,-0.862,-0.9882,-1.0946,-1.2165,-1.3604,-1.4087,-1.46,-1.5169,-1.561,-1.6337,-1.738,-1.7438,-1.7927,-1.8894,-1.8326,-1.8057,-1.8336,-1.8476,-1.9172,-2.0004,-2.1183,-2.2219,-2.3268,-2.3356,-2.3941,-2.4675,-2.4515,-2.4595,-2.5124,-2.5552,-2.5375,-2.4632,-2.3253,-2.2038,-2.092,-1.9699,-1.9192,-1.8975,-1.8422,-1.865,-1.9212,-1.9711,-1.9071,-1.8007,-1.6334,-1.5556,-1.5503,-1.6794,-1.6997,-1.7517,-1.9412,-1.9878,-1.9761,-1.9435,-1.8384,-1.7077,-1.5643,-1.4325,-1.3092,-1.1625,-1.1572,-1.1712,-1.1444,-1.1737,-1.2223,-1.313,-1.447,-1.5102,-1.4753,-1.5883,-1.5614,-1.32,-1.0844,-1.0263,-1.1907,-1.3428,-1.3847,-1.3267,-1.3956,-1.4339,-1.4464,-1.501,-1.5078,-1.48,-1.4781,-1.4727,-1.4737,-1.4345,-1.4441,-1.4826,-1.5733,-1.6617,-1.7407,-1.8601,-1.9506,-2.0325,-2.0296,-2.0534,-2.091,-1.9629,-1.8704,-1.803,0.0,0.0,0.0,0.0,0.0,0.0,0.0,0.0,0.0,0.0,0.0,0.0,0.0,-0.735,-0.8579,-1.0041,-1.0843,-1.1901,-1.335,-1.4475,-1.5159,-1.5317,-1.616,-1.6903,-1.754,-1.7752,-1.7988,-1.8638,-1.8215,-1.8089,-1.8099,-1.8776,-1.9312,-1.987,-2.1906,-2.2943,-2.3056,-2.4071,-2.472,-2.5062,-2.5015,-2.5516,-2.6168,-2.6101,-2.6282,-2.6323,-2.4643,-2.2959,-2.1561,-2.0596,-2.0159,-2.0094,-1.9453,-1.9897,-2.0475,-2.0602,-1.9687,-1.8508,-1.7033,-1.6425,-1.6545,-1.7652,-1.8022,-1.8279,-1.9711,-2.031,-2.0371,-2.0086,-1.9434,-1.8387,-1.6664,-1.5633,-1.4584,-1.2696,-1.1747,-1.1267,-1.1579,-1.2336,-1.3451,-1.47,-1.4724,-1.4785,0.0,-1.472,-1.3491,-1.1027,-1.1287,-1.203,-1.3085,-1.2503,-1.25,-1.3386,-1.3243,-1.3491,-1.4336,-1.4472,-1.4405,-1.4408,-1.5069,-1.4864,-1.3942,-1.3769,-1.3865,-1.4342,-1.5345,-1.6286,-1.7429,-1.8761,-1.9564,-2.0092,-2.0524,-2.0831,-2.1037,-2.0774,-1.9781,-1.8656,0.0,0.0,0.0,0.0,0.0,0.0,0.0,0.0,0.0,0.0,0.0,0.0,0.0,0.0,0.0,0.0,-1.0733,-1.1776,-1.335,-1.4207,-1.4964,-1.5529,-1.6136,-1.7141,-1.8154,-1.7828,-1.8248,-1.9324,-1.8608,-1.8248,-1.853,-1.9059,-1.9721,-2.0538,-2.1951,-2.307,-2.413,-2.494,-2.5618,-2.6178,-2.6602,-2.6977,-2.7234,-2.7373,-2.7378,-2.7148,0.0,-2.4836,-2.3127,-2.1727,-2.1101,-2.0641,-2.0054,-2.0177,-2.069,-2.1257,-2.089,-2.0241,-1.8951,-1.7766,-1.7157,-1.843,-1.8547,-1.892,-2.0969,-2.1168,-2.0954,-2.1083,-2.1032,-2.0479,-1.8565,-1.6807,-1.5072,-1.3059,-1.227,-1.1678,-1.1279,-1.2177,-1.3428,-1.4843,-1.5218,0.0,0.0,0.0,0.0,-1.2882,-1.2418,-1.2151,-1.2482,-1.2678,-1.3081,-1.3401,-1.4131,-1.4776,-1.5155,-1.5146,-1.5347,-1.5854,-1.5078,-1.4449,-1.3874,-1.3746,-1.4091,-1.4809,-1.5707,-1.6733,-1.798,-1.9333,-2.0395,-2.1221,-2.1817,-2.2174,-2.2211,-2.1764,-2.0828,-1.9537,0.0,0.0,0.0,0.0,0.0,0.0,0.0,0.0,0.0,0.0,0.0,0.0,0.0,0.0,0.0,0.0,0.0,-1.1637,-1.3087,-1.4141,-1.4913,-1.5529,-1.6243,-1.7216,-1.8148,-1.8136,-1.8395,-1.9182,-1.8619,-1.8395,-1.8528,-1.9061,-1.9856,-2.078,-2.2055,-2.3332,-2.4479,-2.5282,-2.6084,-2.6889,-2.7437,-2.7866,-2.8273,-2.839,-2.8306,0.0,-2.7398,-2.6034,-2.4205,-2.2662,-2.1825,-2.1313,-2.0704,-2.1109,-2.1847,-2.1811,-2.2039,-2.1882,-2.0244,-1.8889,-1.8256,-1.9091,-1.9188,-1.9559,-2.1069,-2.1477,-2.1746,-2.2175,-2.2552,-2.2295,-2.0768,-1.8565,-1.6257,-1.3384,-1.2626,-1.2346,-1.1832,-1.2731,-1.4002,-1.5201,-1.5807,-1.5967,0.0,0.0,0.0,-1.3817,-1.2959,-1.2364,-1.2315,-1.2713,-1.3077,-1.3458,-1.426,-1.4921,-1.5282,-1.5344,-1.5749,-1.6359,-1.5353,-1.4718,-1.4474,-1.4513,-1.4834,-1.5493,-1.6339,-1.7227,-1.823,-1.9658,-2.0676,-2.1668,-2.2657,-2.3091,-2.31,-2.2633,-2.177,-2.0509,0.0,0.0,0.0,0.0,0.0,0.0,0.0,0.0,0.0,0.0,0.0,0.0,0.0,0.0,0.0,0.0,0.0,0.0,-1.2684,-1.4128,-1.499,-1.5232,-1.6412,-1.73,-1.7691,-1.8302,-1.8547,-1.8399,-1.8376,-1.8245,-1.7982,-1.8923,-1.9838,-2.0501,-2.2195,-2.335,-2.4157,-2.5227,-2.6229,-2.7198,-2.7577,-2.8246,-2.923,-2.9239,-2.894,-2.8637,-2.7916,-2.6537,-2.4885,-2.3607,-2.2608,-2.2006,-2.1389,-2.2424,-2.3825,-2.2567,-2.2995,-2.3281,-2.0886,-2.006,-1.9738,-1.9636,-1.9954,-2.0195,-2.041,-2.147,-2.2566,-2.307,-2.3548,-2.3751,0.0,0.0,-1.7625,-1.3943,-1.2963,-1.2861,-1.3239,-1.4145,-1.5035,0.0,0.0,0.0,0.0,0.0,0.0,-1.3776,0.0,-1.2549,-1.2881,-1.2745,-1.2948,-1.3566,-1.3665,-1.4085,-1.4982,-1.5184,-1.5606,-1.5972,-1.5901,-1.5682,-1.5479,-1.5789,-1.6098,-1.6232,-1.7086,-1.7767,-1.8479,-1.9886,-2.0751,-2.1443,-2.2892,-2.342,-2.3575,-2.3262,-2.261,-2.1572,0.0,0.0,0.0,0.0,0.0,0.0,0.0,0.0,0.0,0.0,0.0,0.0,0.0,0.0,0.0,0.0,0.0,0.0,-1.2305,-1.3744,-1.4614,-1.5038,-1.6121,-1.6926,-1.7569,-1.7701,-1.8047,-1.8637,-1.8117,-1.7989,-1.851,-1.8699,-1.9438,-2.0592,-2.1806,-2.2808,-2.3839,-2.5206,-2.6111,-2.6877,-2.7164,-2.7877,-2.8854,-2.8604,-2.8438,-2.8329,-2.8137,0.0,0.0,0.0,-2.2509,-2.17,-2.1571,-2.2461,-2.3609,-2.295,-2.3422,-2.3713,-2.2381,-2.1327,-2.0735,-2.041,-2.0602,-2.0829,-2.0889,-2.1905,-2.3021,-2.312,-2.3204,-2.3131,-2.3008,-1.9233,0.0,-1.3325,-1.3035,0.0,-1.2574,-1.3777,0.0,-1.5588,0.0,-1.6806,-1.7077,-1.6719,0.0,0.0,-1.4145,-1.3528,-1.403,-1.3874,-1.3874,-1.4247,-1.4173,-1.4578,-1.5844,-1.655,-1.6775,-1.637,-1.6579,-1.624,-1.5479,-1.6075,-1.6238,-1.6232,-1.7086,-1.7854,-1.8562,-1.9811,-2.1003,-2.215,-2.3413,-2.3862,-2.3984,-2.3749,-2.2855,-2.1411,0.0,0.0,0.0,0.0,0.0,0.0,0.0,0.0,0.0,0.0,0.0,0.0,0.0,0.0,0.0,0.0,0.0,0.0,0.0,-1.3101,-1.4012,-1.453,-1.5218,-1.6074,-1.6965,-1.7213,-1.7518,-1.8143,-1.7633,-1.769,-1.8183,-1.8324,-1.9091,-2.0221,-2.1235,-2.2326,-2.342,-2.4426,-2.5405,0.0,0.0,-2.7246,-2.8374,-2.8084,-2.7942,-2.7714,-2.7698,0.0,0.0,0.0,0.0,-2.1764,-2.1766,-2.2953,-2.4203,-2.3379,-2.3955,-2.4673,-2.3024,-2.2103,-2.1506,-2.0969,-2.0563,-2.0232,-2.0168,-2.1696,-2.3235,-2.3825,-2.3912,-2.3681,-2.3229,-2.0104,-1.6739,0.0,0.0,0.0,-1.3436,-1.45,-1.5478,0.0,-1.6618,0.0,-1.6923,-1.6915,-1.6639,0.0,-1.5174,-1.4527,-1.464,-1.4614,-1.4658,-1.4489,-1.4666,-1.5247,-1.643,-1.7012,-1.7293,-1.741,-1.7444,-1.7251,-1.6748,-1.7165,-1.7083,-1.6816,-1.7753,-1.841,-1.8803,-2.0292,-2.1394,-2.2396,-2.3735,-2.4356,-2.4657,-2.4456,-2.3529,-2.2164,0.0,0.0,0.0,0.0,0.0,0.0,0.0,0.0,0.0,0.0,0.0,0.0,0.0,0.0,0.0,0.0,0.0,0.0,0.0,0.0,0.0,-1.3997,-1.4459,-1.5212,-1.6188,-1.6586,-1.6929,-1.7257,-1.7314,-1.7462,-1.7668,-1.7943,-1.8716,-1.9584,-2.0514,-2.1727,-2.2897,-2.3422,-2.4316,-2.551,-2.5566,-2.6422,-2.7654,0.0,0.0,0.0,0.0,0.0,0.0,0.0,-2.244,-2.2084,-2.207,-2.3609,-2.5126,-2.3636,-2.4607,-2.5673,-2.3444,-2.2716,-2.2341,-2.1529,-2.0258,-1.9234,-1.9071,-2.1122,-2.3476,-2.4765,-2.5009,-2.4401,-2.3042,-2.175,-1.9487,-1.5802,0.0,-1.4684,-1.4831,-1.5812,-1.6616,-1.66,-1.7351,-1.7365,-1.6309,-1.6787,-1.6854,-1.633,-1.6069,-1.5808,-1.5273,-1.5459,-1.5302,-1.4893,-1.5395,-1.6021,-1.696,-1.7301,-1.7943,-1.884,-1.8642,-1.8586,-1.8283,-1.8443,-1.8163,-1.7826,-1.8799,-1.918,-1.9255,-2.074,-2.1609,-2.2396,-2.3979,-2.496,-2.5314,-2.5054,-2.4367,-2.3448,0.0,0.0,0.0,0.0,0.0,0.0,0.0,0.0,0.0,0.0,-0.4321,0.0,0.0,0.0,0.0,0.0,0.0,0.0,0.0,0.0,0.0,0.0,-1.441,-1.4984,-1.5805,-1.6145,-1.6541,-1.6971,-1.7394,-1.7622,-1.7668,-1.7873,-1.8512,-1.9212,-1.9936,-2.0746,-2.1872,-2.2709,-2.3666,-2.4651,-2.4731,-2.5601,-2.6941,0.0,0.0,0.0,0.0,0.0,0.0,0.0,-2.2873,-2.2485,-2.3075,-2.389,-2.4613,-2.4435,-2.5006,-2.5423,-2.4207,-2.3713,-2.3325,-2.2397,-2.1101,-1.9814,-1.9185,-2.1148,0.0,-2.4789,-2.4215,-2.3003,-2.167,-2.0055,-1.8423,-1.6948,-1.6224,-1.5644,-1.5108,-1.6797,-1.8016,0.0,-1.8087,-1.8197,-1.7531,-1.7951,0.0,0.0,-1.8006,-1.7981,-1.7307,-1.6843,-1.655,-1.6144,-1.6756,-1.731,-1.7741,-1.863,-1.9394,-1.9839,-1.9915,-1.9638,-1.9078,-1.9104,-1.8972,-1.8934,-1.918,0.0,-2.023,-2.0841,-2.1775,-2.2819,-2.4196,-2.4905,-2.5299,-2.5034,-2.4189,-2.3084,0.0,0.0,0.0,0.0,0.0,0.0,0.0,0.0,0.0,-0.4811,-0.4276,-0.4198,0.0,0.0,0.0,0.0,0.0,0.0,0.0,0.0,0.0,0.0,0.0,0.0,0.0,-1.5813,-1.6187,-1.6673,0.0,-1.7224,-1.7224,-1.7472,-1.7908,-1.8559,-1.9338,-2.0273,-2.1343,-2.1872,-2.2887,-2.3955,-2.3643,-2.4363,0.0,0.0,0.0,0.0,0.0,0.0,0.0,0.0,-2.3468,-2.3565,-2.3666,-2.4437,-2.5304,-2.5262,-2.5628,-2.5821,-2.5119,-2.4147,-2.3375,-2.2856,-2.1742,-2.0493,-2.0268,-2.1204,-2.2494,-2.3804,-2.3518,-2.2748,-2.182,-2.0157,-1.8674,-1.7925,-1.7194,-1.6686,-1.6333,-1.749,-1.8234,-1.815,-1.8117,-1.8135,-1.7785,-1.8175,-1.8283,-1.817,-1.8932,-1.8944,-1.762,-1.7286,-1.7306,-1.7833,-1.7662,-1.8073,-1.9111,-1.9505,-2.0055,-2.0856,-2.0643,-2.0649,-2.0535,-2.013,-2.0002,-2.0101,-2.0226,-2.0489,-2.0992,-2.1609,-2.2287,-2.3264,-2.458,-2.5324,-2.5798,-2.5403,-2.4815,-2.4046,0.0,0.0,0.0,0.0,0.0,0.0,0.0,-0.6272,-0.5393,-0.4843,-0.4234,-0.418,-0.481,-0.579,-0.678,0.0,0.0,0.0,0.0,0.0,0.0,0.0,0.0,0.0,0.0,0.0,0.0,-1.6078,-1.6538,0.0,0.0,0.0,0.0,0.0,-1.8888,-1.9808,-2.068,-2.1194,-2.2031,0.0,0.0,-2.3378,0.0,0.0,0.0,0.0,0.0,0.0,0.0,0.0,-2.3975,-2.4419,-2.4291,-2.5062,-2.6068,-2.6129,-2.6241,-2.6344,-2.5912,-2.4731,-2.3731,-2.3758,-2.2673,-2.1436,-2.1227,-2.1149,-2.1558,-2.3199,-2.3311,-2.3015,-2.252,-2.0882,-1.9399,0.0,-1.8047,-1.7675,-1.7937,-1.8131,-1.8332,-1.8407,-1.8361,0.0,-1.7725,-1.8248,0.0,-1.8603,-1.9516,-1.9504,-1.8296,-1.7984,-1.8233,-1.9172,-1.8619,-1.902,-2.0542,-2.0234,-2.0645,-2.1963,-2.1491,-2.1527,-2.2217,-2.1331,-2.1053,-2.142,-2.1339,-2.1498,-2.1786,-2.2387,-2.2953,-2.3709,-2.4802,-2.5712,-2.6226,-2.574,-2.5263,-2.4665,0.0,0.0,0.0,0.0,0.0,0.0,0.0,-0.6604,-0.5573,-0.491,-0.4222,-0.4131,-0.4803,-0.5544,-0.6557,0.0,0.0,0.0,0.0,0.0,0.0,0.0,0.0,0.0,0.0,0.0,0.0,-1.5105,-1.6118,0.0,0.0,0.0,0.0,0.0,0.0,-1.9177,-1.9638,-2.0786,0.0,0.0,0.0,0.0,0.0,0.0,0.0,0.0,0.0,0.0,0.0,0.0,0.0,-2.4232,-2.5233,-2.5882,-2.6518,-2.6586,0.0,0.0,-2.6189,-2.5978,-2.5814,-2.5853,-2.4409,-2.2587,-2.1352,-2.1094,-2.1732,-2.4161,-2.3867,-2.3016,-2.3068,-2.1582,-2.0334,-1.9892,-1.8852,-1.8506,-1.9397,-1.9516,-1.9352,-1.8801,0.0,0.0,-1.8346,-1.9095,-1.9639,-1.9517,-2.0132,-2.0592,-2.0527,-2.0207,-1.9983,-2.003,-2.0136,-2.0517,-2.1318,-2.1356,-2.209,-2.3417,-2.2398,-2.2479,-2.3315,-2.2297,-2.2225,-2.3002,-2.2526,-2.2668,0.0,-2.2955,-2.3426,-2.4583,-2.5142,-2.5513,-2.5912,-2.5757,-2.4922,-2.4003,0.0,0.0,0.0,0.0,0.0,0.0,0.0,-0.656,-0.5664,-0.4857,-0.4196,-0.4125,-0.4803,-0.5544,-0.6412,0.0,0.0,0.0,0.0,0.0,0.0,0.0,0.0,0.0,0.0,0.0,0.0,-1.5175,-1.558,0.0,0.0,0.0,0.0,0.0,0.0,-1.8921,-1.9759,-2.0573,0.0,0.0,0.0,0.0,0.0,0.0,0.0,0.0,0.0,0.0,-2.4281,-2.3827,0.0,0.0,-2.5417,-2.6168,0.0,0.0,-2.7418,-2.7435,-2.652,-2.6432,-2.6655,-2.6717,-2.4857,-2.301,-2.2462,-2.2326,-2.2617,-2.355,-2.3352,-2.2986,-2.2598,-2.2253,-2.1491,-1.9768,-1.9161,-1.905,-1.9505,-1.9543,-1.9574,-1.9442,-1.9167,0.0,0.0,0.0,-1.9634,-2.0255,-2.0511,-2.0837,-2.1608,-2.0743,-2.0563,-2.0965,-2.0984,-2.1437,-2.2438,-2.2511,-2.2928,-2.3938,-2.3289,-2.3515,-2.4407,-2.3539,-2.3584,-2.4167,-2.3747,-2.3611,0.0,-2.3896,-2.4341,-2.5024,-2.5684,-2.6066,-2.6226,-2.6208,-2.5726,-2.4872,0.0,0.0,0.0,0.0,0.0,0.0,-0.7607,-0.6601,-0.5724,-0.4777,-0.4148,-0.4096,-0.477,-0.5529,-0.6399,-0.775,0.0,0.0,0.0,0.0,0.0,0.0,0.0,0.0,0.0,0.0,0.0,-1.4735,-1.477,-1.5159,0.0,0.0,-1.6602,-1.7402,0.0,0.0,0.0,0.0,0.0,0.0,0.0,0.0,0.0,0.0,0.0,0.0,0.0,0.0,0.0,0.0,0.0,0.0,0.0,-2.5908,-2.6874,-2.748,-2.7818,-2.773,-2.7054,-2.6709,-2.6554,-2.7017,-2.5627,-2.4209,-2.3762,-2.3641,-2.3613,-2.349,-2.2974,-2.2391,-2.1964,-2.2587,-2.2359,-2.0214,-1.9575,-1.9385,-1.9888,-1.9633,-1.9591,-1.9911,0.0,-1.9358,0.0,-1.9316,-1.9801,-2.1328,-2.12,-2.1457,-2.2553,-2.1567,-2.1201,-2.1595,-2.1726,-2.223,-2.3203,-2.3223,-2.3664,-2.4393,-2.4003,-2.4366,-2.5291,-2.4657,-2.4724,-2.5172,-2.4864,-2.4569,0.0,-2.477,-2.5171,-2.5618,-2.6364,-2.6653,-2.6683,-2.6951,-2.6239,-2.5308,0.0,0.0,0.0,0.0,0.0,0.0,0.0,-0.671,-0.5855,-0.4697,-0.4079,-0.403,-0.4694,-0.549,-0.6399,-0.775,0.0,0.0,0.0,0.0,0.0,0.0,0.0,0.0,0.0,0.0,0.0,0.0,0.0,-1.4182,-1.4827,-1.5423,-1.6141,-1.6981,0.0,0.0,0.0,0.0,0.0,0.0,0.0,0.0,0.0,0.0,0.0,0.0,0.0,0.0,0.0,0.0,0.0,0.0,0.0,-2.5221,-2.6248,-2.779,-2.7662,-2.725,-2.7638,-2.6477,-2.54,-2.6793,-2.7051,-2.67,-2.5338,-2.5036,-2.5058,-2.4784,-2.2937,-2.1244,-2.1133,-2.223,-2.2707,-2.1422,-2.0134,-1.9732,-2.085,-2.0152,-1.9524,0.0,0.0,-2.0541,-2.0281,-2.0029,-2.0765,-2.2926,-2.2448,0.0,-2.3494,-2.2921,-2.2452,-2.2066,-2.2452,-2.2935,-2.3619,-2.3604,-2.4158,-2.5124,-2.4746,-2.497,-2.5642,-2.55,-2.5696,-2.5906,-2.5824,-2.58,0.0,-2.58,-2.6054,-2.6457,-2.6824,-2.7047,-2.718,-2.7589,-2.6556,-2.514,0.0,0.0,0.0,0.0,0.0,0.0,0.0,-0.6932,-0.5967,-0.5043,-0.4196,-0.403,-0.4691,-0.549,-0.6399,-0.7505,0.0,0.0,0.0,0.0,0.0,0.0,0.0,0.0,0.0,0.0,0.0,0.0,0.0,0.0,0.0,0.0,-1.5802,-1.6629,-1.7283,-1.7901,0.0,0.0,0.0,0.0,0.0,0.0,0.0,0.0,0.0,0.0,0.0,0.0,0.0,0.0,0.0,0.0,0.0,0.0,0.0,-2.6719,-2.7416,-2.7744,-2.739,-2.7207,-2.697,-2.6559,-2.6779,-2.6449,-2.4237,-2.4435,0.0,0.0,0.0,-2.116,-2.1156,-2.1555,-2.1352,-2.0047,-2.0196,-2.0671,-2.1148,0.0,0.0,-2.0869,-2.0073,-1.947,0.0,0.0,-2.0294,-2.206,-2.1996,-2.2391,-2.3604,-2.2957,-2.2511,-2.2511,-2.2723,-2.3189,-2.3619,-2.3852,-2.4285,-2.5154,-2.5266,-2.5485,-2.5955,-2.5977,-2.6055,-2.6328,-2.6027,-2.5894,-2.58,-2.6093,-2.6344,-2.6457,-2.7104,-2.7339,-2.7185,-2.7518,-2.704,-2.6126,0.0,0.0,0.0,0.0,0.0,0.0,0.0,-0.7154,-0.6065,-0.5225,-0.4528,-0.4254,-0.4773,-0.5593,-0.6399,-0.7266,0.0,0.0,0.0,0.0,0.0,0.0,0.0,0.0,0.0,0.0,0.0,0.0,0.0,0.0,0.0,0.0,0.0,0.0,-1.6932,0.0,0.0,0.0,0.0,0.0,0.0,0.0,-2.1496,0.0,0.0,0.0,0.0,0.0,0.0,0.0,0.0,0.0,0.0,0.0,0.0,0.0,-2.6713,-2.7411,-2.7453,-2.7634,-2.7435,-2.6675,-2.6365,-2.5819,-2.4166,-2.4077,0.0,0.0,0.0,-2.2674,-2.2721,-2.2248,-2.13,-1.9394,-2.0217,-2.1135,-2.1177,0.0,0.0,-2.13,0.0,0.0,0.0,-1.9853,-2.097,-2.2184,-2.2335,-2.2901,-2.41,-2.3479,-2.323,-2.3355,-2.3184,-2.331,-2.3619,-2.4237,-2.4673,-2.5061,-2.5676,-2.6136,-2.6374,-2.6275,-2.6482,-2.6733,-2.6354,-2.6099,0.0,-2.6546,-2.672,-2.6863,-2.7492,-2.7849,-2.8011,-2.8245,-2.7826,-2.7292,0.0,0.0,0.0,0.0,0.0,0.0,0.0,0.0,0.0,-0.5592,-0.484,-0.447,-0.4826,-0.5806,-0.6648,-0.7388,0.0,0.0,0.0,0.0,0.0,0.0,0.0,0.0,0.0,0.0,0.0,-1.304,-1.2838,-1.3057,-1.3806,0.0,0.0,0.0,0.0,0.0,0.0,0.0,0.0,0.0,-1.9831,-2.0388,0.0,0.0,0.0,0.0,0.0,0.0,0.0,0.0,0.0,0.0,0.0,0.0,0.0,0.0,0.0,0.0,0.0,-2.7532,-2.706,-2.7085,-2.5937,-2.4795,-2.4963,0.0,0.0,0.0,0.0,0.0,-2.4979,-2.3932,-2.2086,-1.9568,-2.0244,-2.1162,-2.1067,-2.2137,0.0,0.0,-2.1256,0.0,-1.972,-2.1137,-2.2541,-2.3126,-2.3505,-2.4085,-2.5103,-2.4487,-2.4239,-2.461,-2.3728,-2.337,-2.3649,-2.4607,-2.5171,-2.5171,-2.6229,-2.6676,-2.6692,-2.6583,-2.6802,0.0,-2.6638,-2.6691,-2.6983,-2.6983,-2.7335,-2.7617,-2.8068,-2.8638,-2.9362,-2.9322,-2.8938,-2.8499,0.0,0.0,0.0,0.0,0.0,0.0,0.0,0.0,0.0,0.0,-0.5414,-0.5057,-0.5061,-0.5927,-0.6648,0.0,0.0,0.0,0.0,0.0,0.0,0.0,0.0,0.0,0.0,0.0,0.0,-1.3233,-1.304,-1.3199,-1.3806,-1.3931,0.0,0.0,0.0,0.0,0.0,0.0,0.0,0.0,-1.968,-2.0376,0.0,0.0,0.0,0.0,-2.2448,-2.2448,0.0,0.0,0.0,0.0,0.0,0.0,0.0,0.0,-2.4324,-2.5368,-2.5801,0.0,-2.709,-2.7125,-2.6113,-2.475,0.0,0.0,0.0,0.0,0.0,0.0,0.0,-2.3331,-2.2187,-1.947,-2.0177,-2.1096,-2.1101,0.0,0.0,0.0,-2.2285,-2.226,-2.1332,-2.1918,-2.2613,-2.3108,-2.3505,-2.4085,-2.5087,-2.4734,-2.4487,-2.461,-2.4363,-2.4362,-2.4749,-2.5231,-2.5657,-2.5897,-2.647,-2.6676,-2.6692,-2.6583,-2.6802,-2.7137,-2.6638,-2.682,-2.7405,-2.7405,-2.7757,-2.8099,-2.8742,-2.8943,-2.8889,-2.893,-2.8956,-2.9018,0.0,0.0,0.0,0.0,0.0,0.0,0.0,0.0,0.0,0.0,0.0,0.0,0.0,0.0,0.0,0.0,0.0,0.0,0.0,0.0,0.0,0.0,0.0,0.0,0.0,0.0,0.0,0.0,0.0,-1.3367,0.0,0.0,0.0,0.0,0.0,0.0,0.0,0.0,0.0,0.0,-1.9262,0.0,0.0,0.0,0.0,0.0,-2.176,-2.176,0.0,-2.1533,-2.1539,-2.1645,0.0,0.0,0.0,0.0,-2.4011,-2.4082,-2.408,-2.5233,-2.6356,-2.5467,-2.4711,-2.4189,-2.4023,0.0,0.0,0.0,0.0,0.0,0.0,0.0,-2.1195,-1.9786,-2.0459,-2.1149,0.0,0.0,0.0,-2.1669,-2.2397,-2.2658,0.0,-2.2665,-2.3253,-2.3187,-2.39,-2.4546,-2.5103,-2.498,-2.4857,-2.4857,-2.5014,-2.4859,-2.4641,-2.5516,-2.5895,-2.6039,-2.6676,-2.6914,-2.693,-2.6645,-2.6802,-2.7137,-2.6638,-2.6964,-2.755,-2.755,-2.809,-2.8789,-2.909,-2.9369,-2.951,-2.9486,-2.9708,-3.002,0.0,0.0,0.0,0.0,0.0,0.0,0.0,0.0,0.0,0.0,0.0,0.0,0.0,0.0,0.0,0.0,0.0,0.0,0.0,0.0,0.0,0.0,0.0,0.0,0.0,0.0,0.0,0.0,0.0,0.0,0.0,0.0,-1.4742,0.0,0.0,0.0,0.0,0.0,0.0,0.0,-1.8552,0.0,0.0,0.0,0.0,0.0,0.0,0.0,0.0,-2.1255,-2.1493,-2.1958,-2.2699,0.0,0.0,0.0,0.0,0.0,-2.2842,-2.428,-2.5486,-2.37,-2.3221,-2.3333,-2.4574,0.0,0.0,0.0,0.0,0.0,0.0,0.0,0.0,-2.0168,-2.0563,0.0,-2.1148,-2.1596,-2.1766,-2.1289,-2.212,0.0,-2.1482,-2.3089,-2.3951,-2.3354,-2.4423,-2.5103,-2.5103,-2.5167,-2.5167,-2.5103,-2.5453,-2.5235,-2.4316,-2.5628,-2.6103,-2.5876,-2.6767,-2.72,-2.7216,-2.6799,-2.6847,-2.7137,-2.684,0.0,-2.7695,-2.7695,-2.8392,-2.945,-2.9408,-2.9888,-3.0513,-3.0299,-3.0617,-3.1213,0.0,0.0,0.0,0.0,0.0,0.0,0.0,0.0,0.0,0.0,0.0,0.0,0.0,0.0,0.0,0.0,0.0,0.0,0.0,0.0,0.0,0.0,0.0,0.0,0.0,0.0,0.0,0.0,0.0,0.0,-1.3681,-1.3506,-1.3958,-1.5071,0.0,0.0,0.0,0.0,0.0,-1.76,-1.8207,0.0,0.0,0.0,0.0,0.0,0.0,0.0,0.0,-2.104,-2.134,-2.1808,-2.2218,0.0,0.0,0.0,0.0,0.0,-2.3265,-2.4024,-2.4975,-2.406,-2.343,-2.312,0.0,0.0,0.0,0.0,0.0,0.0,0.0,0.0,0.0,0.0,0.0,-2.0589,0.0,0.0,-2.0832,-2.1484,0.0,-2.1595,-2.1876,-2.2792,-2.35,-2.3944,-2.4408,-2.4857,-2.5103,-2.5389,-2.5421,-2.5119,-2.5453,-2.5486,-2.5423,-2.6247,-2.6597,-2.6597,-2.701,-2.72,-2.7232,-2.7046,-2.7076,-2.7153,0.0,-2.765,-2.7985,-2.8418,-2.9107,-2.9757,-2.9797,-3.0277,-3.0766,-2.9864,-3.0576,-3.2014,0.0,0.0,0.0,0.0,0.0,0.0,0.0,0.0,0.0,0.0,0.0,0.0,0.0,0.0,0.0,0.0,0.0,0.0,0.0,0.0,0.0,0.0,-1.1113,-1.1752,-1.2407,-1.2884,0.0,0.0,0.0,-1.355,-1.3462,-1.4051,-1.4846,-1.5453,0.0,0.0,0.0,-1.6985,-1.7308,-1.7813,0.0,0.0,0.0,0.0,0.0,0.0,0.0,0.0,0.0,0.0,-2.1569,-2.2009,-2.1997,0.0,0.0,0.0,0.0,0.0,-2.3346,-2.3639,-2.4106,-2.344,-2.3487,0.0,0.0,0.0,0.0,0.0,0.0,0.0,0.0,0.0,0.0,0.0,0.0,-2.0234,-2.0501,-2.0486,-2.0523,0.0,0.0,-2.1584,-2.1906,-2.2646,-2.3426,-2.4085,-2.4394,-2.4734,-2.5103,-2.5437,-2.5564,-2.5405,-2.5723,-2.5914,-2.5914,-2.6422,-2.6676,-2.6676,-2.7042,-2.72,-2.7232,-2.7383,-2.7262,-2.7153,0.0,-2.78,-2.8112,-2.855,-2.9404,-3.0422,-3.0694,-3.1143,-3.1659,-3.1765,-3.2185,-3.2841,0.0,0.0,0.0,0.0,0.0,0.0,0.0,0.0,0.0,0.0,0.0,0.0,0.0,0.0,0.0,0.0,0.0,0.0,0.0,0.0,-1.0121,-1.0479,-1.101,-1.1626,-1.2407,-1.2594,-1.2564,-1.2306,-1.3079,-1.3276,-1.3018,-1.4735,-1.5593,-1.5714,0.0,0.0,-1.7417,-1.7023,-1.7315,-1.7938,0.0,0.0,0.0,0.0,0.0,0.0,0.0,0.0,0.0,0.0,0.0,0.0,0.0,0.0,0.0,-2.3243,-2.3707,-2.3955,-2.3372,-2.3417,-2.3528,0.0,0.0,0.0,0.0,0.0,0.0,0.0,0.0,0.0,0.0,-2.244,0.0,-2.0119,-1.9923,-1.9869,-1.9864,-2.009,-2.0191,-2.0146,-2.0745,-2.1299,-2.1526,-2.2333,-2.3218,-2.407,-2.4363,-2.4641,-2.523,-2.5564,-2.5755,-2.5755,-2.6088,-2.6263,-2.6263,-2.6533,-2.6676,-2.6676,-2.7042,-2.7248,-2.7343,-2.7551,-2.7493,-2.7397,-2.7704,-2.7996,-2.8148,-2.8771,-2.9649,-3.0776,-3.1269,-3.1509,-3.2066,-3.3576,-3.3839,-3.3517,0.0,0.0,0.0,0.0,0.0,0.0,0.0,0.0,0.0,0.0,0.0,0.0,0.0,0.0,0.0,0.0,0.0,0.0,0.0,0.0,-1.0652,-1.1024,-1.1195,-1.1614,-1.2138,-1.2979,-1.2947,-1.2274,-1.2676,-1.2816,-1.2816,-1.467,-1.5332,-1.5062,0.0,0.0,0.0,-1.7182,-1.7554,-1.7608,-1.7927,0.0,0.0,0.0,0.0,0.0,0.0,0.0,0.0,0.0,0.0,0.0,0.0,0.0,-2.2775,-2.2461,-2.301,-2.3488,-2.2941,-2.3273,-2.3687,-2.3143,0.0,0.0,0.0,0.0,0.0,0.0,0.0,0.0,0.0,0.0,-2.1097,-2.0042,-2.009,-2.0036,-1.9291,0.0,-1.9311,-1.9659,-2.0093,-2.0563,-2.1194,-2.1811,-2.2725,-2.3961,-2.4115,-2.4502,-2.5454,-2.5929,-2.6104,-2.6104,-2.6454,-2.6628,-2.6628,-2.666,-2.6676,-2.6676,-2.7042,-2.7375,-2.7709,-2.7677,-2.7755,-2.8084,-2.845,-2.8505,-2.8492,-2.9256,-2.9853,-3.0431,-3.0843,-3.0986,-3.1426,-3.4035,-3.4533,-3.4022,0.0,0.0,0.0,0.0,0.0,0.0,0.0,0.0,0.0,0.0,0.0,0.0,0.0,0.0,0.0,0.0,0.0,0.0,0.0,0.0,-1.0699,-1.0573,-1.1352,-1.1774,-1.1942,-1.2405,-1.2624,-1.246,-1.3013,-1.3095,-1.284,-1.4931,-1.5453,-1.4931,0.0,0.0,0.0,-1.7053,-1.7192,-1.7347,-1.7652,-1.7675,0.0,0.0,0.0,0.0,0.0,0.0,0.0,0.0,-2.1945,-2.1333,-2.1146,-2.1658,-2.2349,-2.2173,-2.2448,-2.2789,-2.2523,-2.26,-2.273,-2.2601,0.0,0.0,0.0,0.0,0.0,0.0,0.0,0.0,0.0,0.0,-2.1091,-2.0954,-2.0328,-1.9698,-1.948,-1.9472,-1.9387,-1.906,-1.9898,-2.055,-2.0981,-2.1596,-2.2508,-2.3713,-2.4174,-2.4607,-2.525,-2.6039,-2.647,-2.647,-2.6819,-2.701,-2.701,-2.7258,-2.7503,-2.7729,-2.7605,-2.7845,-2.8349,-2.8646,-2.8473,-2.8175,-2.902,-2.9109,-2.8828,-2.9988,-3.0751,-3.1421,-3.2676,-3.3213,-3.3669,-3.5417,-3.5779,-3.5463,0.0,0.0,0.0,0.0,0.0,0.0,0.0,0.0,0.0,0.0,0.0,0.0,0.0,0.0,0.0,0.0,0.0,0.0,0.0,-1.0472,-1.0728,-1.0472,-1.1471,-1.2019,-1.2117,-1.2336,-1.239,-1.2419,-1.2905,-1.3087,-1.2964,-1.5052,-1.5714,-1.5323,0.0,0.0,-1.6976,0.0,-1.6986,-1.7078,-1.7286,-1.7308,0.0,0.0,0.0,0.0,0.0,0.0,0.0,0.0,-2.1984,-2.1846,-2.1721,-2.1897,-2.2061,-2.2035,-2.216,-2.225,-2.2217,-2.2024,-2.2019,0.0,0.0,0.0,0.0,0.0,0.0,0.0,0.0,0.0,0.0,0.0,0.0,0.0,-2.078,-1.9952,-1.9898,-1.9761,-1.941,-1.8939,-1.976,-2.0571,-2.0767,-2.1614,-2.25,-2.3464,-2.4169,-2.4792,-2.5407,-2.6229,-2.6724,-2.6835,-2.7073,-2.72,-2.72,-2.7563,-2.8073,-2.8701,-2.8285,-2.8324,-2.8996,-2.917,-2.8976,-2.8642,-2.9467,-2.9625,-2.9345,-3.0515,-3.1613,-3.2495,-3.3768,-3.4469,-3.4984,-3.6324,-3.6461,-3.5881,0.0,0.0,0.0,0.0,0.0,0.0,0.0,0.0,0.0,0.0,0.0,0.0,0.0,0.0,0.0,0.0,0.0,0.0,0.0,-1.0753,-1.1012,-1.1012,-1.166,-1.2203,-1.2546,-1.2656,-1.2523,-1.2008,-1.2507,-1.2947,-1.3481,-1.5183,-1.5974,0.0,0.0,0.0,0.0,0.0,-1.6912,-1.6583,-1.6975,-1.7203,-1.7261,0.0,0.0,0.0,0.0,0.0,0.0,0.0,-2.112,-2.1765,-2.1433,-2.1785,-2.2074,-2.191,-2.2035,-2.2302,-2.2032,-2.175,0.0,0.0,0.0,0.0,0.0,0.0,0.0,0.0,0.0,0.0,0.0,0.0,0.0,-2.1846,-2.1253,-2.0793,-2.0396,-2.0015,-1.9611,-1.9199,-1.9676,-2.0245,-2.0708,-2.1562,-2.248,-2.3479,-2.4169,-2.5026,-2.612,-2.6485,-2.6835,-2.7185,-2.72,-2.72,-2.72,-2.7566,-2.8309,-2.9352,-2.9018,-2.8914,-2.9352,-2.9282,-2.9388,-2.9782,-3.0008,-3.003,-3.0032,-3.0963,-3.22,-3.3785,-3.3785,-3.402,-3.4548,-3.6184,-3.599,-3.5274,0.0,0.0,0.0,0.0,0.0,0.0,0.0,0.0,0.0,0.0,0.0,0.0,0.0,0.0,0.0,0.0,0.0,0.0,0.0,-1.0781,-1.1045,-1.0781,-1.1702,-1.201,-1.1578,-1.1939,-1.2071,-1.1851,-1.2716,-1.2808,-1.1987,-1.4502,-1.5564,-1.5294,0.0,0.0,0.0,0.0,-1.7145,-1.6685,-1.6752,-1.6698,-1.6627,0.0,0.0,0.0,0.0,0.0,0.0,0.0,0.0,0.0,-2.1382,-2.162,-2.191,-2.1772,-2.2038,-2.2128,-2.164,0.0,0.0,0.0,0.0,0.0,0.0,0.0,0.0,0.0,0.0,0.0,0.0,0.0,0.0,-2.307,-2.2096,-2.1018,-2.0284,-1.9889,-1.9484,-1.8836,-1.9549,-2.0118,-2.0322,-2.1423,-2.2355,-2.2856,-2.3918,-2.4899,-2.5494,-2.6226,-2.6835,-2.7185,-2.7439,-2.7566,-2.7566,-2.8189,-2.8818,-2.9314,-2.9147,-2.9466,-3.0026,-3.0034,-2.9821,-2.9685,-3.0841,-3.1132,-3.0866,-3.2298,-3.3444,-3.4189,-3.5087,-3.5729,-3.6126,-3.7133,-3.7276,-3.6827,0.0,0.0,0.0,0.0,0.0,0.0,0.0,0.0,0.0,0.0,-0.9898,-0.9754,0.0,0.0,0.0,0.0,0.0,0.0,0.0,0.0,-1.085,-1.0717,-1.1644,-1.201,-1.1811,-1.1949,-1.1949,-1.1942,-1.2783,-1.2931,-1.2652,-1.4903,-1.5694,-1.5554,0.0,-1.6795,-1.6488,-1.7039,-1.7304,-1.735,-1.6756,-1.636,-1.6272,0.0,0.0,0.0,0.0,0.0,0.0,0.0,0.0,0.0,-2.1021,-2.1495,-2.176,-2.176,-2.1887,-2.1938,-2.1777,0.0,0.0,0.0,0.0,0.0,0.0,0.0,0.0,0.0,0.0,0.0,0.0,0.0,0.0,-2.4057,-2.3112,-2.2078,-2.0837,-2.0412,-1.9903,-1.8981,-1.9624,-2.0157,-2.0103,-2.1222,-2.2159,-2.2792,-2.3976,-2.4978,-2.5566,-2.643,-2.6978,-2.72,-2.755,-2.7725,-2.7725,-2.8494,-2.8986,-2.9336,-2.9341,-2.966,-3.0173,-3.029,-3.015,-3.0054,-3.1024,-3.1434,-3.164,-3.2775,-3.3787,-3.4559,-3.5433,-3.6199,-3.6968,-3.7523,-3.7828,-3.7914,0.0,0.0,-1.2708,-1.2645,0.0,0.0,0.0,0.0,0.0,0.0,-1.0094,-0.9854,0.0,0.0,0.0,0.0,0.0,0.0,0.0,0.0,-1.0717,-1.0717,-1.138,-1.1972,-1.2588,-1.2483,-1.2354,-1.2063,-1.258,-1.3316,-1.4268,-1.5583,-1.6234,-1.6353,-1.6872,-1.7,-1.7092,-1.7113,-1.7545,-1.8142,-1.7144,-1.6539,-1.6263,-1.6272,0.0,0.0,0.0,0.0,0.0,0.0,0.0,0.0,-2.0467,-2.1183,-2.176,-2.1734,-2.176,-2.1861,0.0,0.0,0.0,0.0,0.0,0.0,0.0,0.0,0.0,0.0,0.0,0.0,-2.5658,-2.5922,-2.571,-2.4878,-2.4291,-2.358,-2.1835,-2.1296,-2.0602,-1.9328,-1.9724,-2.0119,-2.0144,-2.1004,-2.1937,-2.2993,-2.4319,-2.5333,-2.6005,-2.6713,-2.7185,-2.7248,-2.7598,-2.7788,-2.782,-2.8487,-2.8962,-2.926,-2.9329,-2.9649,-2.9984,-3.0208,-3.0489,-3.0965,-3.1012,-3.1553,-3.2289,-3.2854,-3.3806,-3.4844,-3.4998,-3.6005,-3.7247,-3.7382,-3.7971,-3.8635,0.0,0.0,-1.3189,-1.3108,0.0,0.0,0.0,0.0,0.0,0.0,0.0,0.0,0.0,0.0,0.0,0.0,0.0,0.0,0.0,0.0,-1.085,-1.1115,-1.0975,-1.1358,-1.225,-1.198,-1.2119,-1.2644,-1.2653,-1.2783,-1.316,-1.4614,-1.5804,-1.6872,-1.7001,-1.7141,-1.7532,-1.7995,-1.7852,-1.7441,-1.7317,-1.6836,-1.631,-1.6583,-1.6715,0.0,0.0,0.0,0.0,0.0,0.0,0.0,-1.9628,-2.0464,-2.1308,-2.1096,-2.1609,-2.2103,0.0,0.0,0.0,0.0,0.0,0.0,0.0,0.0,0.0,0.0,0.0,0.0,-2.6709,-2.6398,-2.6083,-2.589,-2.4815,-2.371,-2.2608,-2.141,-2.0348,-1.9584,-1.9584,-1.9927,-2.0412,-2.1123,-2.1889,-2.2916,-2.384,-2.4684,-2.5611,-2.6083,-2.6761,-2.7598,-2.7947,-2.8249,-2.8535,-2.8964,-2.9186,-2.9329,-2.9536,-3.0,-3.0729,-3.0702,-3.1427,-3.2506,-3.2278,-3.2623,-3.3307,-3.4032,-3.4425,-3.5021,-3.5746,-3.655,-3.7282,-3.77,-3.8401,-3.9068,0.0,0.0,0.0,0.0,0.0,0.0,0.0,0.0,0.0,0.0,0.0,0.0,0.0,0.0,0.0,0.0,0.0,0.0,0.0,0.0,0.0,-1.0975,-1.0843,-1.1073,-1.2049,-1.1919,-1.2049,-1.271,-1.2596,0.0,0.0,0.0,0.0,-1.7576,-1.7576,-1.7642,-1.7701,-1.8259,-1.8046,-1.7426,-1.6957,-1.6583,-1.6452,-1.6734,-1.6725,-1.6574,-1.7861,0.0,0.0,0.0,0.0,0.0,0.0,0.0,-2.0617,-2.034,-2.0683,-2.1151,0.0,0.0,0.0,0.0,0.0,0.0,0.0,0.0,0.0,0.0,0.0,-2.642,-2.6861,-2.6863,-2.6851,-2.6676,-2.5986,-2.4985,-2.3858,-2.2539,-2.1348,-1.9954,-1.9839,-1.9952,-2.0488,-2.0902,-2.1753,-2.3092,-2.3923,-2.4746,-2.5738,-2.6275,-2.6941,-2.7725,-2.8217,-2.8583,-2.8773,-2.9123,-2.9441,-2.9585,-2.9761,-3.0453,-3.1474,-3.1533,-3.1937,-3.2676,-3.269,-3.3115,-3.3788,-3.4338,-3.5031,-3.5798,-3.6104,-3.6858,-3.7822,-3.8141,-3.8812,-3.9447,0.0,0.0,0.0,0.0,0.0,0.0,0.0,0.0,0.0,0.0,0.0,0.0,0.0,0.0,0.0,0.0,0.0,0.0,0.0,0.0,0.0,-1.0836,-1.0843,-1.1183,-1.1965,-1.1965,-1.2094,-1.2613,0.0,0.0,0.0,0.0,0.0,-1.8105,-1.8392,-1.8351,-1.775,-1.8331,-1.8207,-1.771,-1.6836,-1.6564,-1.6734,-1.6885,-1.6875,-1.6734,-1.7168,-1.7308,-1.7449,-1.8153,0.0,0.0,0.0,0.0,-1.9924,-1.9644,-1.9863,-2.0178,0.0,0.0,0.0,0.0,0.0,0.0,0.0,0.0,0.0,-2.5178,-2.6025,-2.6527,-2.6663,-2.7241,-2.7603,-2.7442,-2.7051,-2.6296,-2.5076,-2.3828,-2.2355,-2.0462,-2.0094,-2.0105,-2.0564,-2.0806,-2.1739,-2.3412,-2.4217,-2.4931,-2.6087,-2.6753,-2.7364,-2.7763,-2.8332,-2.8805,-2.8869,-2.9297,-2.9568,-2.9855,-3.0128,-3.0794,-3.2049,-3.2315,-3.249,-3.2592,-3.2782,-3.3333,-3.4237,-3.45,-3.5294,-3.6355,-3.6004,-3.6834,-3.8198,-3.8429,-3.8901,-3.9703,0.0,0.0,0.0,0.0,0.0,0.0,0.0,0.0,0.0,0.0,-1.1672,-1.1562,0.0,0.0,0.0,0.0,0.0,0.0,0.0,0.0,0.0,-1.1365,-1.1372,-1.1497,-1.2018,-1.2413,-1.2537,-1.2405,0.0,0.0,0.0,0.0,0.0,-1.7421,0.0,0.0,-1.8089,-1.8798,-1.8805,-1.8174,-1.7449,-1.7017,-1.6885,-1.7168,-1.6885,-1.6461,-1.7439,-1.759,-1.7449,-1.8153,-1.8153,0.0,0.0,0.0,-1.9217,-1.9244,-1.946,-1.9894,0.0,0.0,0.0,0.0,0.0,0.0,0.0,0.0,-2.3519,0.0,-2.5574,-2.6341,-2.6997,-2.7483,-2.7833,-2.8065,-2.736,-2.652,-2.6072,-2.4119,-2.223,-2.1109,-2.0221,-2.004,-2.0831,-2.092,-2.1818,-2.3854,-2.4345,-2.5033,-2.601,-2.6466,-2.7169,-2.8053,-2.8162,-2.8633,-2.9218,-2.9552,-2.9855,-2.9871,-3.0778,-3.1674,-3.2443,-3.2697,-3.3114,-3.3281,-3.3625,-3.4096,-3.4736,-3.5011,-3.5246,-3.5526,-3.5292,-3.5887,-3.7135,-3.7419,-3.824,-3.9266,0.0,0.0,0.0,0.0,0.0,0.0,0.0,0.0,0.0,0.0,0.0,-1.1327,0.0,0.0,0.0,-1.0121,-1.0706,-1.1519,-1.246,-1.2452,0.0,0.0,-1.1644,-1.1776,-1.218,-1.218,-1.2305,0.0,0.0,0.0,0.0,-1.5815,-1.6799,0.0,0.0,0.0,0.0,0.0,0.0,-1.8163,-1.7731,-1.7298,-1.6875,-1.7168,-1.7026,-1.6593,-1.7308,0.0,0.0,0.0,0.0,-1.7258,-1.7462,0.0,0.0,0.0,-1.8716,0.0,0.0,0.0,0.0,0.0,0.0,0.0,-2.1793,0.0,-2.3901,-2.5017,-2.581,-2.6479,-2.6563,-2.7359,-2.7959,-2.8014,-2.7687,-2.7404,-2.6807,-2.5031,-2.323,-2.2104,-2.1243,-2.0877,-2.1292,-2.1619,-2.2418,-2.3924,-2.4531,-2.5114,-2.6085,-2.6846,-2.7476,-2.8208,-2.8538,-2.9139,-2.9568,-2.9585,-2.9824,-3.0162,-3.1121,-3.1874,-3.244,-3.2613,-3.2954,-3.3524,-3.4207,-3.4725,-3.5097,-3.5427,-3.5773,-3.6097,-3.6057,-3.6303,-3.6829,-3.77,-3.8149,-3.8184,0.0,0.0,0.0,0.0,0.0,0.0,0.0,0.0,0.0,0.0,0.0,0.0,0.0,0.0,0.0,0.0,-1.0981,-1.1652,-1.26,-1.2592,0.0,0.0,0.0,-1.2041,-1.2305,-1.2048,-1.218,0.0,0.0,0.0,-1.4174,-1.4898,-1.6185,0.0,-1.849,0.0,0.0,0.0,0.0,0.0,-1.8002,-1.7439,-1.6875,-1.7168,-1.7026,-1.6593,-1.7026,0.0,0.0,0.0,0.0,0.0,0.0,0.0,0.0,0.0,0.0,0.0,0.0,0.0,0.0,-1.8539,-1.9391,-2.0184,0.0,0.0,-2.3981,0.0,-2.5681,-2.6102,-2.6056,-2.7138,-2.804,-2.7882,-2.8063,-2.8101,-2.746,-2.5862,-2.4316,-2.287,-2.1933,-2.1447,-2.1424,-2.2058,-2.2768,-2.3899,-2.4701,-2.5469,-2.6062,-2.6944,-2.7717,-2.833,-2.8772,-2.9377,-2.9986,-2.9841,-3.0034,-3.0681,-3.1236,-3.1772,-3.2501,-3.2501,-3.2938,-3.3651,-3.4661,-3.5177,-3.518,-3.579,-3.6164,-3.6183,-3.6333,-3.6368,-3.643,-3.7713,-3.7784,-3.7567,0.0,0.0,0.0,0.0,0.0,0.0,0.0,0.0,0.0,0.0,0.0,0.0,0.0,-1.124,-1.124,-1.0683,-1.0697,-1.1101,-1.2041,-1.2305,-1.2444,0.0,0.0,0.0,-1.2305,-1.2305,0.0,0.0,0.0,0.0,-1.4182,-1.4765,-1.5786,-1.7103,-1.8479,-1.9175,-1.8982,0.0,0.0,0.0,-1.8142,-1.758,-1.7308,0.0,0.0,0.0,0.0,0.0,0.0,0.0,0.0,0.0,0.0,0.0,0.0,0.0,0.0,0.0,0.0,-1.7046,0.0,-1.8311,-1.8863,0.0,0.0,0.0,-2.2976,-2.4219,-2.4705,-2.5143,-2.5517,-2.68,-2.7865,-2.8263,-2.8471,-2.8469,-2.7731,-2.6559,-2.5062,-2.326,-2.1866,-2.1235,-2.1542,-2.1872,-2.2499,-2.3776,-2.4829,-2.5659,-2.5841,-2.6629,-2.7515,-2.8587,-2.8297,-2.8873,-3.0251,-3.0579,-3.107,-3.1426,-3.1442,-3.1686,-3.238,-3.238,-3.2968,-3.3985,-3.4532,-3.4669,-3.4833,-3.5689,-3.5706,-3.5087,-3.5412,-3.5659,-3.5765,-3.6498,-3.7326,-3.7894,0.0,0.0,0.0,0.0,0.0,0.0,0.0,0.0,0.0,0.0,0.0,0.0,0.0,-1.1038,-1.0754,-1.0426,-1.0623,-1.0988,-1.1901,-1.2041,-1.2305,-1.2444,0.0,0.0,0.0,0.0,0.0,0.0,0.0,-1.2608,-1.3733,-1.4459,-1.547,-1.6489,-1.8026,-1.8765,-1.8993,-1.9401,0.0,0.0,-1.8703,-1.8057,-1.7106,0.0,0.0,0.0,0.0,0.0,0.0,0.0,0.0,0.0,0.0,0.0,0.0,0.0,0.0,0.0,0.0,0.0,0.0,-1.7786,-1.8619,-1.9703,-2.1038,-2.2286,-2.3563,-2.4446,-2.5286,-2.5974,-2.6132,-2.6842,-2.732,-2.7232,-2.7751,-2.798,-2.7621,-2.6339,-2.5109,-2.4502,-2.303,-2.2194,-2.2462,-2.2726,-2.3433,-2.4524,-2.5354,-2.5968,-2.62,-2.6979,-2.7635,-2.8313,-2.8696,-2.9252,-3.0315,-3.0852,-3.1195,-3.1022,-3.1245,-3.1788,-3.2412,-3.2729,-3.3435,-3.4318,-3.5261,-3.5543,-3.5477,-3.6457,-3.6328,-3.5703,-3.6143,-3.597,-3.5536,-3.6212,-3.6637,-3.7073,0.0,0.0,0.0,0.0,0.0,-1.3071,0.0,0.0,0.0,0.0,0.0,0.0,0.0,0.0,-1.0747,-1.0684,-1.0883,-1.1148,-1.1851,-1.2125,-1.2257,-1.2398,-1.239,0.0,0.0,0.0,0.0,0.0,0.0,0.0,0.0,0.0,-1.519,-1.6353,-1.7917,0.0,0.0,0.0,0.0,-1.9413,0.0,-1.8326,-1.7235,0.0,0.0,0.0,0.0,0.0,0.0,0.0,0.0,0.0,0.0,0.0,0.0,0.0,0.0,0.0,-1.6467,0.0,0.0,0.0,-1.8206,-1.9267,-2.0861,-2.2149,-2.3184,-2.4139,-2.511,-2.5855,-2.619,-2.6618,-2.7056,-2.6981,-2.7696,-2.818,-2.795,-2.6771,-2.5659,-2.5294,-2.3948,-2.2992,-2.3008,-2.3375,-2.3942,-2.4848,-2.5555,-2.6127,-2.6373,-2.7304,-2.8052,-2.8612,-2.9501,-3.0206,-3.0855,-3.1245,-3.1526,-3.122,-3.1331,-3.1744,-3.2412,-3.3016,-3.3774,-3.4493,-3.5891,-3.6258,-3.5856,-3.6877,-3.6765,-3.6097,-3.6558,-3.619,-3.5772,-3.6106,-3.6355,-3.6795,0.0,-1.2733,-1.2986,-1.275,-1.3061,-1.3181,0.0,0.0,0.0,0.0,0.0,0.0,0.0,0.0,0.0,-1.1394,-1.1394,-1.1592,-1.1895,-1.2435,-1.2562,-1.2435,-1.2562,0.0,0.0,0.0,0.0,0.0,0.0,0.0,0.0,0.0,-1.5247,0.0,-1.8149,-1.9085,-1.9715,0.0,-2.0356,-1.9982,0.0,-1.8573,-1.7851,0.0,0.0,0.0,-1.6178,-1.6178,0.0,0.0,0.0,0.0,0.0,0.0,0.0,0.0,0.0,0.0,0.0,0.0,0.0,0.0,-1.7622,-1.8314,-2.059,-2.1334,-2.2115,-2.339,-2.4242,-2.4842,-2.5374,-2.6085,-2.6784,-2.7515,-2.856,-2.9209,-2.8837,-2.7899,-2.6898,-2.5878,-2.4462,-2.3451,-2.3006,-2.3499,-2.4205,-2.4529,-2.5653,-2.6381,-2.6234,-2.7289,-2.8638,-2.975,-3.0862,-3.1554,-3.1919,-3.1903,-3.1903,-3.1903,-3.1554,-3.1744,-3.2412,-3.3242,-3.4,-3.4678,-3.6406,-3.6542,-3.5873,-3.6894,-3.6799,-3.6166,-3.6508,-3.6422,-3.62,-3.6423,-3.6778,-3.7045,-1.2524,-1.2785,-1.2768,-1.2507,-1.2783,-1.3225,0.0,0.0,0.0,0.0,0.0,0.0,0.0,0.0,0.0,-1.1553,-1.1291,-1.1219,-1.1776,-1.2201,-1.2149,-1.1767,-1.2022,-1.194,0.0,0.0,0.0,0.0,0.0,0.0,0.0,0.0,0.0,0.0,-1.8042,-1.9148,-2.0232,-2.1174,0.0,0.0,-2.0734,-1.9758,0.0,0.0,0.0,0.0,0.0,-1.6461,0.0,0.0,-1.6734,-1.6734,0.0,0.0,0.0,0.0,0.0,0.0,-1.5876,0.0,0.0,0.0,0.0,0.0,-1.9657,-2.0774,-2.1798,-2.3327,-2.4085,-2.4662,-2.5635,-2.629,-2.6725,-2.7223,-2.8051,-2.876,-2.9457,-2.8156,-2.7049,-2.6553,-2.4983,-2.3749,-2.3374,-2.3704,-2.419,-2.5119,-2.5674,-2.6234,-2.6546,-2.7748,-2.8908,-2.9639,-3.0599,-3.13,-3.1919,-3.1665,-3.1538,-3.1538,-3.1443,-3.1772,-3.2533,-3.3346,-3.3936,-3.4661,-3.6359,-3.661,-3.5929,-3.7386,-3.7587,-3.6902,-3.7005,-3.6816,-3.6508,-3.622,-3.6543,-3.6969,-1.254,-1.2657,-1.2606,-1.2488,-1.2747,-1.3155,0.0,0.0,0.0,0.0,0.0,0.0,0.0,0.0,0.0,-1.1475,-1.1347,-1.1439,-1.1795,-1.2226,-1.2298,-1.1589,-1.1847,-1.1738,0.0,0.0,0.0,0.0,0.0,0.0,0.0,0.0,0.0,0.0,-1.7865,0.0,0.0,0.0,0.0,0.0,-2.0983,0.0,0.0,-1.8704,-1.7903,0.0,0.0,0.0,-1.6434,-1.6773,-1.7157,0.0,0.0,0.0,0.0,0.0,0.0,0.0,0.0,0.0,0.0,0.0,0.0,0.0,-1.9244,-2.0221,-2.1106,-2.2653,-2.3625,-2.4268,-2.5128,-2.6076,-2.6709,-2.7075,-2.7861,-2.859,-2.9423,-2.842,-2.7433,-2.7001,-2.5692,-2.4555,-2.3708,-2.4074,-2.444,-2.5043,-2.5702,-2.6381,-2.7289,-2.8206,-2.9118,-2.993,-3.0851,-3.1633,-3.2348,-3.2142,-3.1967,-3.1824,-3.1967,-3.2299,-3.2997,-3.3963,-3.4539,-3.5119,-3.6342,-3.6408,-3.5719,-3.6808,-3.6997,-3.6457,-3.6805,-3.6833,-3.6662,-3.649,-3.6677,-3.6936,0.0,-1.2449,-1.2566,-1.2636,-1.2838,-1.2913,0.0,0.0,0.0,0.0,0.0,0.0,0.0,0.0,0.0,0.0,-1.1625,-1.1905,-1.1931,-1.2529,-1.2455,-1.1724,-1.1724,-1.1575,0.0,0.0,0.0,0.0,0.0,0.0,0.0,0.0,0.0,0.0,-1.7739,-1.8843,0.0,0.0,0.0,-2.1547,-2.0983,-2.0402,0.0,0.0,-1.8033,0.0,-1.6875,-1.6577,-1.6568,-1.7086,-1.7731,0.0,0.0,0.0,0.0,0.0,-1.6131,0.0,0.0,0.0,0.0,0.0,0.0,0.0,-1.9059,-1.9628,-2.0191,-2.1735,-2.2858,-2.3668,-2.4303,-2.5491,-2.6573,-2.7028,-2.7693,-2.8488,-2.9194,-2.868,-2.7984,-2.7283,-2.6631,-2.5587,-2.407,-2.4596,-2.4961,-2.4663,-2.5814,-2.6851,-2.7881,-2.8384,-2.9164,-3.0296,-3.1229,-3.2173,-3.2841,-3.2809,-3.2618,-3.2301,-3.2666,-3.3162,-3.3499,-3.4736,-3.5292,-3.5589,-3.6375,-3.6306,-3.5751,-3.5902,-3.5708,-3.5361,-3.6186,-3.6549,-3.6686,-3.6846,-3.6995,-3.7213,-1.2483,-1.2611,-1.2611,-1.2548,-1.2686,0.0,0.0,0.0,0.0,0.0,0.0,0.0,0.0,0.0,0.0,0.0,-1.1596,-1.1884,-1.2359,-1.2634,-1.2433,-1.1724,-1.1838,-1.1565,-1.0864,-1.0839,0.0,0.0,0.0,0.0,0.0,0.0,0.0,0.0,-1.7144,-1.8632,0.0,0.0,0.0,-2.209,-2.2105,0.0,-2.0344,-1.9872,-1.8877,-1.7721,-1.7308,-1.6773,-1.6377,0.0,-1.759,-1.8002,0.0,0.0,0.0,0.0,0.0,0.0,0.0,0.0,0.0,0.0,0.0,0.0,-1.7962,-1.8703,-1.9578,-2.1145,-2.1846,-2.2669,-2.3776,-2.4493,-2.5349,-2.6588,-2.7082,-2.7927,-2.9546,-2.9162,-2.8401,-2.7714,-2.7156,-2.6296,-2.455,-2.5227,-2.5682,-2.5249,-2.6178,-2.6949,-2.7614,-2.8313,-2.9064,-3.0192,-3.081,-3.1386,-3.211,-3.184,-3.1665,-3.1601,-3.1951,-3.2267,-3.277,-3.4259,-3.4801,-3.4909,-3.6425,-3.6517,-3.562,-3.6126,-3.6088,-3.5757,-3.5925,-3.6443,-3.6913,-3.6708,-3.7135,-3.7705,-1.224,-1.2298,-1.2491,-1.2409,0.0,0.0,0.0,0.0,0.0,0.0,0.0,0.0,0.0,0.0,0.0,0.0,0.0,0.0,0.0,0.0,0.0,-1.1724,-1.1504,-1.1269,-1.0839,-1.0907,0.0,0.0,0.0,0.0,0.0,0.0,0.0,0.0,0.0,0.0,0.0,0.0,-2.0748,-2.1637,-2.1834,0.0,-2.0971,-2.0117,-1.9346,-1.8282,-1.759,-1.7026,-1.6764,-1.7288,-1.7741,0.0,0.0,-1.7344,-1.6686,0.0,-1.6,-1.5517,0.0,0.0,0.0,-1.5643,0.0,0.0,0.0,-1.829,-1.9135,-2.0452,-2.1192,-2.1815,-2.2916,-2.3826,-2.4535,-2.5471,-2.6424,-2.7318,-2.8642,-2.8819,-2.8518,-2.7571,-2.7427,-2.6647,-2.4994,-2.5368,-2.574,-2.5641,-2.6414,-2.7021,-2.7481,-2.8372,-2.9168,-2.9819,-3.0793,-3.1606,-3.211,-3.2284,-3.2348,-3.2173,-3.2874,-3.3355,-3.3673,-3.4571,-3.5097,-3.5275,-3.5639,-3.558,-3.5033,-3.5354,-3.5629,-3.5782,-3.5771,-3.6256,-3.6775,-3.6616,-3.7144,-3.7788,-1.1811,-1.2087,-1.2242,-1.2258,0.0,0.0,0.0,0.0,0.0,0.0,0.0,0.0,0.0,0.0,0.0,0.0,0.0,0.0,0.0,0.0,0.0,-1.1913,-1.1365,-1.102,-1.0995,-1.1023,-1.1228,0.0,0.0,0.0,0.0,0.0,0.0,0.0,0.0,0.0,0.0,0.0,0.0,-2.1117,0.0,-2.1214,-2.1294,-2.0318,-1.9487,-1.8714,-1.759,-1.7168,-1.7188,-1.746,0.0,-1.7972,-1.7833,-1.7179,0.0,0.0,0.0,0.0,0.0,0.0,0.0,0.0,0.0,-1.6275,0.0,0.0,0.0,-1.9733,-2.0342,-2.0933,-2.2017,-2.3006,-2.3998,-2.439,-2.5626,-2.6698,-2.7393,-2.823,-2.8438,-2.7571,-2.7664,-2.7156,-2.5638,-2.5722,-2.5903,-2.6202,-2.6663,-2.7198,-2.7569,-2.8413,-2.9056,-2.9613,-3.0928,-3.1853,-3.2196,-3.2964,-3.3127,-3.2857,-3.3836,-3.4326,-3.4538,-3.4966,-3.536,-3.5689,-3.5141,-3.4783,-3.4811,-3.4747,-3.5093,-3.5725,-3.5613,-3.605,-3.6837,-3.6789,-3.72,-3.771,-1.165,-1.2018,-1.2266,-1.2305,0.0,0.0,0.0,0.0,0.0,0.0,0.0,0.0,0.0,0.0,0.0,0.0,0.0,0.0,-1.3388,0.0,0.0,-1.2359,-1.1917,0.0,-1.1145,-1.1274,-1.1489,-1.1931,0.0,0.0,0.0,0.0,0.0,0.0,-1.5753,0.0,0.0,0.0,-2.0156,0.0,-2.0899,-2.0923,0.0,-2.0163,-1.9346,-1.8293,-1.7157,-1.6734,-1.6846,0.0,-1.7302,-1.7496,0.0,-1.682,0.0,0.0,0.0,0.0,0.0,0.0,0.0,0.0,-1.5583,0.0,0.0,0.0,-1.7781,-1.8456,0.0,-1.9985,-2.104,0.0,0.0,-2.3956,-2.5035,-2.5944,-2.6777,-2.7062,-2.768,-2.8455,-2.8186,-2.7664,-2.6918,-2.6687,-2.6638,-2.6855,-2.7232,-2.7598,-2.7876,-2.8242,-2.8865,-2.9942,-3.0521,-3.1194,-3.1838,-3.2364,-3.2507,-3.2475,-3.2888,-3.3225,-3.3193,-3.4342,-3.4677,-3.4694,-3.5306,-3.5649,-3.5907,-3.5589,-3.5669,-3.5923,-3.5412,-3.6248,-3.7916,-3.6547,-3.7371,-3.8712,-1.0897,-1.156,-1.1949,-1.1747,0.0,-1.27,-1.2305,-1.261,0.0,0.0,0.0,0.0,0.0,0.0,0.0,0.0,0.0,-1.2663,0.0,0.0,0.0,0.0,0.0,0.0,0.0,-1.1355,-1.1712,-1.2514,-1.2514,0.0,0.0,0.0,0.0,0.0,-1.5424,0.0,-1.7825,0.0,0.0,0.0,0.0,0.0,0.0,-1.9904,-1.9041,-1.8002,-1.7298,-1.7157,-1.7429,0.0,-1.7548,0.0,0.0,0.0,0.0,0.0,0.0,0.0,0.0,0.0,0.0,0.0,0.0,0.0,-1.6104,0.0,-1.7336,0.0,0.0,0.0,0.0,0.0,0.0,0.0,-2.394,-2.494,-2.5501,-2.5977,-2.6608,-2.7628,-2.7486,-2.7008,-2.6535,-2.6957,-2.7123,-2.6773,-2.7435,-2.7896,-2.8236,-2.8739,-2.9472,-3.0604,-3.1097,-3.1678,-3.2383,-3.2869,-3.3031,-3.3031,-3.3515,-3.3579,-3.3595,-3.4439,-3.4747,-3.459,-3.5136,-3.538,-3.5494,-3.5558,-3.5844,-3.6114,-3.5636,-3.6176,-3.7348,-3.7031,-3.7517,-3.8282,-1.0371,0.0,0.0,0.0,0.0,-1.2584,-1.25,-1.2624,0.0,0.0,0.0,0.0,-1.2904,-1.233,0.0,0.0,0.0,-1.276,0.0,0.0,-1.2828,0.0,0.0,0.0,0.0,0.0,-1.1789,-1.2617,-1.261,0.0,0.0,0.0,0.0,0.0,0.0,-1.6202,-1.7058,0.0,0.0,-1.9637,-1.9637,-1.9618,-1.9569,-1.9426,-1.8735,-1.7861,-1.759,-1.758,-1.7851,-1.7928,-1.7919,0.0,-1.8947,0.0,0.0,0.0,0.0,0.0,-1.5308,0.0,0.0,0.0,0.0,0.0,0.0,0.0,0.0,0.0,0.0,0.0,0.0,0.0,0.0,0.0,0.0,-2.3966,-2.4512,-2.4936,-2.5753,-2.6877,-2.6836,-2.6628,-2.6336,-2.6894,-2.7152,-2.6707,-2.7446,-2.8296,-2.8701,-2.9273,-3.0136,-3.1296,-3.1631,-3.2118,-3.2819,-3.3312,-3.3492,-3.3492,-3.39,-3.4113,-3.4129,-3.4484,-3.4709,-3.4822,-3.4981,-3.4925,-3.5035,-3.5288,-3.5637,-3.6066,-3.5891,-3.6339,-3.7096,-3.7079,-3.7434,-3.7703,-1.0355,-1.0649,0.0,0.0,0.0,0.0,0.0,0.0,0.0,0.0,0.0,0.0,0.0,0.0,0.0,0.0,0.0,-1.3468,-1.3904,0.0,-1.3255,0.0,0.0,0.0,0.0,0.0,-1.1469,-1.2194,-1.2187,0.0,0.0,0.0,0.0,0.0,0.0,-1.6125,-1.6968,-1.7952,-1.8658,-1.8956,-1.9419,-1.9467,-1.9101,0.0,-1.8163,-1.7861,-1.7861,0.0,0.0,-1.8015,-1.82,0.0,0.0,0.0,0.0,0.0,0.0,0.0,0.0,0.0,0.0,-1.5062,0.0,0.0,0.0,0.0,-1.6104,0.0,0.0,0.0,0.0,0.0,0.0,0.0,0.0,0.0,0.0,-2.4405,-2.5124,-2.6487,-2.6942,-2.7049,-2.6775,-2.6625,-2.6618,-2.6634,-2.7583,-2.8339,-2.909,-2.9747,-3.0606,-3.176,-3.1791,-3.2118,-3.2819,-3.3312,-3.3492,-3.3492,-3.3826,-3.4001,-3.4001,-3.4334,-3.4668,-3.5002,-3.5033,-3.4878,-3.4859,-3.4875,-3.5077,-3.5551,-3.5889,-3.6852,-3.7792,-3.6913,-3.7051,-3.7702,-1.0615,0.0,0.0,0.0,0.0,0.0,0.0,-1.2601,0.0,0.0,0.0,0.0,0.0,0.0,-1.2783,0.0,0.0,-1.331,-1.3734,-1.3593,0.0,0.0,0.0,-1.2292,0.0,0.0,-1.1332,-1.2194,-1.218,0.0,0.0,0.0,0.0,0.0,0.0,-1.5984,0.0,0.0,0.0,0.0,0.0,-1.8917,-1.9101,0.0,0.0,-1.8153,-1.8002,-1.8002,0.0,-1.8615,-1.8418,-1.8347,-1.9469,-1.8944,-1.7719,-1.7475,-1.7113,0.0,0.0,0.0,-1.5332,-1.5062,0.0,0.0,0.0,0.0,0.0,0.0,0.0,0.0,0.0,0.0,0.0,0.0,0.0,-2.2609,0.0,-2.3583,-2.4158,-2.4906,-2.6307,-2.684,-2.6068,-2.6565,-2.6931,-2.6603,-2.7529,-2.8404,-2.9205,-3.005,-3.0934,-3.176,-3.1791,-3.2118,-3.2819,-3.3312,-3.3603,-3.3842,-3.4285,-3.4349,-3.4032,-3.435,-3.4573,-3.47,-3.4938,-3.502,-3.5218,-3.5218,-3.542,-3.5732,-3.5537,-3.6177,-3.7296,-3.7366,-3.744,-3.7565,-1.0707,0.0,0.0,0.0,0.0,0.0,0.0,0.0,0.0,0.0,-1.2655,0.0,-1.2602,0.0,-1.3005,0.0,-1.3263,-1.33,-1.3636,-1.3727,0.0,-1.287,-1.2889,0.0,0.0,0.0,0.0,-1.2051,0.0,-1.2323,0.0,0.0,0.0,0.0,0.0,0.0,0.0,0.0,-1.7578,0.0,0.0,-1.878,0.0,0.0,-1.8649,-1.8433,0.0,-1.8293,-1.8433,-1.8982,-1.8749,-1.8494,-1.9995,-1.9428,-1.8237,-1.7884,-1.7367,-1.6813,-1.5712,-1.5522,0.0,-1.4931,-1.467,0.0,-1.4539,0.0,0.0,0.0,0.0,0.0,0.0,0.0,0.0,0.0,0.0,-2.1782,0.0,-2.3207,-2.3683,-2.3947,-2.5534,-2.6296,-2.5381,-2.6129,-2.676,-2.6435,-2.7504,-2.8526,-2.9454,-3.0442,-3.1246,-3.1919,-3.1935,-3.2279,-3.2654,-3.3038,-3.354,-3.3683,-3.4183,-3.4478,-3.455,-3.4731,-3.5045,-3.5402,-3.5428,-3.5319,-3.5404,-3.5514,-3.5599,-3.5727,-3.553,-3.6095,-3.7107,-3.7178,-3.7249,-3.7211,-1.0596,0.0,0.0,0.0,-1.166,0.0,0.0,0.0,-1.2358,0.0,-1.2795,-1.2856,-1.2309,-1.3028,-1.3552,-1.3286,-1.3276,0.0,-1.3604,-1.3733,0.0,0.0,-1.3254,-1.294,-1.2253,0.0,0.0,0.0,0.0,0.0,0.0,0.0,0.0,0.0,-1.4662,0.0,-1.5471,-1.6733,-1.7426,-1.7559,-1.855,-1.8917,-1.9122,-1.9316,-1.8932,-1.8573,-1.8854,-1.8714,-1.8563,-1.9089,-1.905,-1.9002,-1.9787,-1.9338,-1.8406,-1.8228,-1.7324,-1.6343,-1.6359,-1.6136,-1.5714,-1.467,-1.4408,0.0,0.0,0.0,-1.4539,0.0,0.0,0.0,0.0,0.0,0.0,-2.0047,-2.055,-2.1208,-2.2528,-2.3185,-2.3563,-2.349,-2.4702,-2.5334,-2.4605,-2.5453,-2.5996,-2.6011,-2.7366,-2.8563,-2.9712,-3.075,-3.1681,-3.238,-3.2412,-3.2263,-3.2144,-3.267,-3.317,-3.3317,-3.3865,-3.4566,-3.5702,-3.5556,-3.6063,-3.6929,-3.6275,-3.5744,-3.5436,-3.5763,-3.5924,-3.5685,-3.5685,-3.6083,-3.69,-3.6573,-3.6498,-3.661,-1.1372,-1.1242,-1.1276,0.0,-1.1305,-1.1548,0.0,0.0,0.0,0.0,-1.2967,-1.2812,-1.2848,-1.3269,-1.3457,-1.3367,-1.3022,0.0,0.0,0.0,0.0,-1.3311,-1.2941,-1.2632,-1.2481,-1.1949,0.0,-1.145,0.0,0.0,-1.2617,0.0,0.0,0.0,0.0,0.0,-1.5514,-1.6483,-1.7264,-1.7854,-1.824,-1.8769,-1.9122,0.0,-1.9628,-1.9262,-1.9133,-1.8993,-1.8821,-1.9186,-1.9187,-1.931,-2.0086,-1.9674,-1.8806,-1.8097,-1.7477,-1.7012,-1.6306,-1.5894,-1.5593,-1.5332,-1.4931,-1.48,0.0,0.0,0.0,0.0,0.0,0.0,0.0,0.0,0.0,0.0,0.0,0.0,0.0,0.0,0.0,-2.2541,-2.3337,-2.4049,-2.4531,-2.4847,-2.5056,-2.5292,-2.6298,-2.744,-2.8532,-2.9931,-3.098,-3.1919,-3.1631,-3.1672,-3.2282,-3.252,-3.3021,-3.347,-3.4398,-3.4731,-3.4822,-3.5017,-3.5349,-3.5537,-3.5732,-3.5649,-3.5794,-3.6121,-3.6464,-3.6591,-3.585,-3.5675,-3.6148,-3.6073,-3.6299,-3.6531,-1.1298,0.0,0.0,-1.0929,0.0,0.0,-1.1849,0.0,0.0,-1.2142,-1.2316,0.0,-1.2673,-1.2948,-1.3142,-1.3368,-1.2998,0.0,0.0,0.0,0.0,-1.3112,-1.2938,-1.2759,-1.2292,-1.2201,0.0,-1.1573,0.0,0.0,-1.294,0.0,0.0,0.0,0.0,-1.5085,-1.5582,-1.6501,-1.7111,-1.7559,-1.82,-1.8704,0.0,-1.9858,-2.0144,-1.9959,-1.9401,-1.9194,-1.9082,-1.8924,-1.9016,-1.9201,-1.9698,-1.9658,-1.9136,-1.8197,-1.7765,-1.7389,-1.6494,-1.6114,-1.5854,-1.5332,-1.5062,-1.48,-1.4539,-1.4408,-1.4539,0.0,0.0,0.0,0.0,0.0,0.0,0.0,0.0,0.0,0.0,0.0,0.0,0.0,-2.2399,-2.3018,-2.3854,-2.4247,-2.4481,-2.4549,-2.5731,-2.6702,-2.7598,-2.9164,-3.0361,-3.1225,-3.1394,-3.1703,-3.2212,-3.2263,-3.2597,-3.3384,-3.3809,-3.4324,-3.4747,-3.5113,-3.5524,-3.5858,-3.5858,-3.6121,-3.6515,-3.6479,-3.6544,-3.656,-3.5952,-3.5643,-3.5764,-3.5912,-3.5986,-3.609,0.0,0.0,0.0,0.0,0.0,0.0,0.0,-1.1047,0.0,-1.1212,0.0,-1.1789,-1.2216,-1.2512,-1.2744,-1.3287,0.0,-1.2765,-1.2917,-1.3186,-1.3104,-1.284,-1.3104,-1.2913,-1.2127,-1.2419,0.0,0.0,0.0,0.0,0.0,0.0,0.0,0.0,0.0,0.0,0.0,-1.6348,-1.6806,-1.6959,-1.8035,-1.8669,-1.9122,-1.986,-2.0414,-2.0665,-1.9959,-1.9519,-1.9164,-1.8834,-1.8787,-1.9066,-1.9137,-1.9524,-1.9505,-1.8559,-1.7893,-1.7507,-1.6882,-1.6504,-1.6244,-1.5323,-1.5062,-1.48,-1.4268,-1.4006,-1.4137,-1.4408,-1.5052,-1.5574,0.0,0.0,0.0,0.0,0.0,0.0,0.0,0.0,0.0,0.0,0.0,0.0,-2.2706,-2.3465,-2.397,-2.3933,-2.5057,-2.6156,-2.6899,-2.8565,-2.9885,-3.0572,-3.1225,-3.1718,-3.2201,-3.1823,-3.2155,-3.3375,-3.3084,-3.3657,-3.5049,-3.5462,-3.6003,-3.6708,-3.6483,-3.6766,-3.6964,-3.6897,-3.6498,-3.6017,-3.602,-3.5794,-3.5734,-3.5817,-3.5774,-3.5449,0.0,0.0,0.0,0.0,0.0,-1.0652,-1.0494,-1.0974,-1.1283,-1.1607,-1.1674,-1.1888,-1.245,-1.2577,-1.2515,-1.2539,-1.2476,0.0,0.0,0.0,0.0,-1.3235,-1.3104,-1.2848,-1.2616,-1.2893,-1.2712,0.0,0.0,0.0,0.0,0.0,0.0,0.0,0.0,0.0,-1.5582,-1.605,0.0,-1.6806,-1.7426,-1.821,-1.9122,-1.9569,-2.0129,-2.0665,-2.011,-1.9807,-1.9562,-1.8936,-1.9061,-1.9422,-1.9848,-1.9749,-1.9584,-1.9328,-1.8419,-1.7529,-1.74,-1.6753,-1.6104,-1.6234,-1.5854,-1.5332,-1.5202,-1.4941,-1.48,-1.48,-1.5202,-1.5593,-1.5974,0.0,0.0,0.0,0.0,0.0,0.0,0.0,0.0,0.0,0.0,-2.1334,-2.1135,-2.2185,-2.3001,-2.3419,-2.4121,-2.5058,-2.6171,-2.76,-2.8925,-3.0221,-2.9927,-3.0604,-3.2443,-3.1496,-3.1827,-3.3629,-3.3903,-3.4345,-3.5049,-3.5716,-3.6031,-3.602,-3.6775,-3.6766,-3.6584,-3.6464,-3.6098,-3.566,-3.6086,-3.5941,-3.5457,-3.55,-3.5069,-3.4659,0.0,0.0,0.0,0.0,0.0,0.0,0.0,-1.026,0.0,-1.0711,-1.0946,-1.1286,-1.149,-1.1976,-1.2094,-1.1926,-1.2258,-1.2437,-1.2312,-1.2444,-1.2708,-1.3104,-1.284,0.0,-1.2568,-1.2789,-1.2696,-1.217,0.0,0.0,0.0,0.0,0.0,-1.444,0.0,-1.5658,0.0,0.0,0.0,-1.6806,-1.7416,-1.821,-1.9122,-1.9569,-2.0129,-2.0665,-2.0249,-1.9945,-1.9722,-1.931,-1.9276,-1.9434,-1.9844,-2.0093,-1.9966,-1.9456,-1.8944,-1.8431,-1.7658,-1.7141,-1.6753,-1.6504,-1.6114,-1.5724,-1.5593,-1.5071,-1.48,-1.5071,-1.5323,-1.5714,-1.6623,-1.7658,0.0,0.0,0.0,0.0,0.0,0.0,0.0,0.0,0.0,0.0,0.0,-2.1384,-2.1965,-2.2646,-2.3386,-2.4235,-2.5371,-2.6877,-2.8321,-2.9577,-2.9597,-3.058,-3.2377,-3.1407,-3.1572,-3.3238,-3.3075,-3.349,-3.4376,-3.5062,-3.5669,-3.6183,-3.6693,-3.6666,-3.6313,-3.5554,-3.5345,-3.5365,-3.5631,-3.5594,-3.5347,-3.5519,-3.5083,-3.4612,0.0,-1.1218,0.0,0.0,-1.0471,0.0,-0.9674,-0.9536,-0.9443,-0.9735,-1.0088,-1.0426,-1.0487,-1.1257,-1.1672,-1.1667,-1.2334,-1.2708,-1.2312,-1.2576,-1.284,-1.284,-1.284,-1.27,-1.2444,-1.2708,-1.2708,0.0,0.0,0.0,0.0,0.0,0.0,0.0,0.0,0.0,0.0,0.0,-1.6968,-1.6806,-1.7416,-1.821,-1.8966,-1.9424,-1.9986,-2.0665,-2.0388,-1.998,-1.9816,-1.9816,-1.9697,-1.9589,-2.0005,-2.0323,-2.0475,-1.9584,-1.9456,-1.9316,-1.8045,-1.7658,-1.74,-1.6882,-1.6364,-1.5974,-1.5854,-1.5192,-1.467,-1.5463,-1.5714,-1.6094,-1.7141,-1.7787,0.0,0.0,0.0,0.0,0.0,0.0,0.0,0.0,0.0,0.0,-2.1084,-2.0857,-2.1091,-2.1806,-2.2506,-2.343,-2.4676,-2.6171,-2.7416,-2.8724,-2.9137,-3.0071,-3.1695,0.0,-3.1286,-3.2763,-3.2419,-3.2765,-3.3618,-3.4464,-3.5239,-3.5943,-3.6544,-3.6545,-3.6017,-3.509,-3.5031,-3.5222,-3.5284,-3.5137,-3.5166,-3.5295,-3.521,-3.4612,0.0,0.0,0.0,0.0,0.0,0.0,-0.9281,-0.9023,-0.9088,-0.9596,-0.9664,-0.9943,-1.046,-1.1156,-1.1545,-1.166,-1.2334,-1.2708,-1.2312,-1.2576,-1.284,-1.284,-1.284,-1.284,-1.2708,-1.2832,-1.2832,0.0,0.0,-1.3368,0.0,0.0,0.0,0.0,0.0,0.0,0.0,-1.6203,-1.6357,-1.6357,-1.6806,-1.7752,-1.8966,-1.9122,-1.969,-2.0665,-2.0665,-2.0376,-2.0074,-2.0491,-2.0245,-1.9862,-2.0396,-2.0708,-2.0856,-2.0234,-1.9839,-1.9456,-1.8699,-1.8056,-1.7529,-1.7776,-1.6872,-1.6104,-1.6753,-1.5844,-1.5062,-1.5844,-1.6234,-1.6494,-1.7012,-1.7518,-1.7905,0.0,0.0,0.0,0.0,0.0,0.0,0.0,0.0,0.0,-2.017,-2.0379,-2.0634,-2.1289,-2.1874,-2.286,-2.4246,-2.4891,-2.5951,-2.7312,-2.7657,-2.8452,-3.0027,-2.9876,-3.0822,-3.2602,-3.2937,-3.3299,-3.3631,-3.4651,-3.4804,-3.4152,-3.5699,-3.5987,-3.5458,-3.6101,-3.5809,-3.5222,-3.5284,-3.4941,-3.4577,-3.4502,-3.4014,-3.3654,0.0,0.0,0.0,0.0,0.0,0.0,0.0,-0.869,-0.8424,-0.8973,-0.9206,-0.9343,-0.9583,-1.0642,-1.1235,-1.114,-1.2149,-1.2708,-1.2312,-1.2576,-1.284,-1.284,-1.284,-1.284,-1.284,-1.3104,-1.3104,0.0,0.0,0.0,0.0,0.0,0.0,0.0,0.0,-1.5776,-1.6348,-1.6501,-1.6501,-1.6653,-1.6968,-1.7911,-1.8966,-1.8966,-1.969,-2.0665,-2.0665,-2.0388,-2.0249,-2.0804,-2.0749,-2.0451,-2.0687,-2.1344,-2.1847,-2.0654,-2.0475,-2.0221,-1.92,-1.8571,-1.8056,-1.7787,-1.7012,-1.6364,-1.6623,-1.5714,-1.5192,-1.6104,-1.6623,-1.6882,-1.7001,-1.7518,-1.8033,-1.8185,0.0,0.0,0.0,0.0,0.0,0.0,0.0,0.0,0.0,-2.041,-2.0588,-2.1158,-2.1685,-2.2486,0.0,0.0,0.0,-2.6892,-2.7396,-2.8367,-2.9818,-2.9972,-3.0614,-3.2089,-3.2238,-3.2758,-3.3784,-3.4038,-3.4171,-3.4572,-3.5241,-3.5336,-3.4799,-3.4866,-3.4981,-3.5102,-3.4966,-3.4745,-3.4408,-3.4523,-3.4098,-3.3734,-1.3022,0.0,-1.1753,0.0,-1.0237,-0.9432,-0.9142,-0.8497,-0.7972,-0.8184,-0.8629,-0.8801,-0.8931,-1.0109,-1.0849,-1.0792,-1.1934,-1.2644,-1.2305,-1.2576,-1.284,-1.284,-1.284,0.0,-1.284,-1.3235,-1.3235,-1.2972,-1.3949,0.0,0.0,0.0,0.0,0.0,-1.5428,-1.5707,-1.6501,-1.6653,-1.6806,-1.6653,-1.7121,-1.7951,-1.8927,-1.8998,-1.9592,-2.0495,-2.069,-2.0388,-2.0249,-2.0804,-2.0946,-2.086,-2.1047,-2.1646,-2.1997,-2.0948,-2.0795,-2.0834,-1.9608,-1.9004,-1.8536,-1.8068,-1.7271,-1.6753,-1.6882,-1.6104,-1.5473,-1.6457,-1.6859,-1.7109,-1.7109,-1.7629,-1.8266,-1.8583,0.0,0.0,0.0,-2.0143,0.0,0.0,-1.9948,-1.9881,-2.0364,-2.0476,-2.0749,-2.1294,0.0,0.0,0.0,0.0,0.0,0.0,0.0,0.0,-2.9339,-2.9481,-3.0283,-3.1238,-3.1411,-3.1989,-3.3279,-3.3188,-3.3627,-3.4358,-3.4726,-3.4593,-3.4226,-3.4347,-3.4474,-3.4696,-3.4618,-3.4408,-3.4377,-3.4597,-3.4219,-3.3851,-1.4172,-1.3586,-1.2717,-1.1799,-1.0878,-0.9903,-0.8843,-0.8365,-0.8056,-0.7703,-0.791,-0.8307,-0.8931,-0.9928,-1.0614,-1.0777,-1.1954,-1.2515,-1.2297,-1.2576,-1.284,0.0,0.0,-1.284,-1.284,-1.3235,-1.3367,-1.3367,0.0,0.0,-1.4464,0.0,-1.4846,-1.5197,-1.5218,-1.5404,-1.5735,-1.6501,-1.651,-1.6203,-1.7121,-1.7898,-1.8874,-1.8916,-1.9415,-2.0037,-2.0483,-2.0388,-2.011,-2.0527,-2.0943,-2.1246,-2.1365,-2.1385,-2.1354,-2.0821,-2.0811,-2.0838,-1.9902,-1.9265,-1.9019,-1.9016,-1.8045,-1.713,-1.7776,-1.7001,-1.6165,-1.6786,-1.7103,-1.7378,-1.7378,-1.7895,-1.8473,-1.8618,0.0,0.0,0.0,0.0,0.0,-1.9422,-1.9719,-2.0092,-2.0377,-2.065,-2.1034,0.0,0.0,0.0,0.0,0.0,0.0,-2.5225,-2.6138,0.0,-2.8136,-2.8417,-2.9031,-3.0164,-3.0678,-3.1021,-3.1343,-3.2204,-3.2859,-3.3177,-3.4084,-3.4226,-3.3844,-3.4539,-3.4667,-3.4115,-3.4451,-3.4363,-3.4309,-3.4299,-3.391,-3.3537,-1.481,-1.4168,-1.3394,-1.2271,-1.094,-0.98,-0.9164,-0.8457,-0.8072,-0.7926,-0.8199,-0.843,-0.8922,-0.9916,-1.0586,0.0,-1.1934,-1.2644,0.0,-1.2576,-1.284,-1.284,-1.284,-1.284,-1.284,-1.3358,-1.3621,-1.3367,0.0,0.0,0.0,-1.4982,-1.5162,-1.5485,-1.524,-1.5445,-1.605,-1.6501,-1.6806,-1.6653,-1.7121,-1.7908,-1.8746,-1.8811,-1.9279,-1.9918,-2.0121,-2.0122,-2.011,-2.0527,-2.0804,-2.102,-2.1597,-2.1806,-2.1686,-2.1215,-2.1111,-2.089,-2.0023,-1.9671,-1.928,-1.8887,-1.8045,-1.74,-1.7658,-1.7272,-1.6928,-1.7036,-1.7615,-1.7872,-1.7615,-1.8271,-1.8792,-1.8841,-1.909,0.0,-1.9732,0.0,-1.9639,-2.0001,-2.0013,-1.999,-2.0257,-2.1071,-2.137,0.0,0.0,0.0,0.0,0.0,0.0,0.0,-2.5724,0.0,-2.7932,-2.8552,-2.9272,-3.024,-3.0945,-3.1343,-3.1665,-3.2591,-3.2897,-3.2813,-3.3879,-3.3943,-3.3547,-3.3821,-3.4017,-3.3821,-3.3945,-3.3891,-3.4017,-3.4402,-3.4201,-3.3824,-1.5701,-1.4866,-1.394,-1.2817,-1.1193,-0.9937,-0.9427,-0.8717,-0.8129,-0.8078,-0.8377,-0.8628,-0.8922,-1.0002,0.0,-1.0799,-1.1789,-1.2497,-1.2305,-1.2444,-1.2708,-1.284,-1.284,-1.284,-1.284,-1.349,0.0,-1.3761,-1.4948,-1.5353,-1.5201,-1.5062,-1.511,-1.5328,-1.5328,-1.5535,-1.605,-1.6653,-1.6959,-1.6806,-1.7273,-1.7796,-1.8571,-1.8787,-1.9169,-1.9615,-1.9855,-1.9968,-2.0099,-2.0423,-2.0527,-2.078,-2.1556,-2.1719,-2.1593,-2.1489,-2.1266,-2.0938,-2.031,-1.9891,-1.9567,-1.903,-1.8243,-1.768,-1.7521,-1.7599,-1.7705,-1.7548,-1.7998,-1.8259,-1.7863,-1.8676,-1.9217,-1.9232,-1.9352,-1.9664,-2.0158,0.0,-2.0039,0.0,0.0,0.0,0.0,-2.1346,-2.1517,0.0,0.0,0.0,0.0,0.0,-2.3243,-2.451,-2.5514,-2.6516,-2.7702,-2.8334,-2.8981,-2.9818,-3.0835,-3.1374,-3.1606,-3.2668,-3.2855,-3.2409,-3.3475,-3.3712,-3.3116,-3.3229,-3.3489,-3.3557,-3.36,-3.3788,-3.3858,-3.4124,-3.3875,-3.348,-1.6808,-1.5683,-1.4511,-1.3449,-1.176,-1.0322,-0.9647,-0.8934,-0.8364,-0.8067,-0.8558,-0.8891,-0.9032,-1.0297,-1.107,-1.0813,0.0,0.0,-1.2297,-1.2305,-1.2576,-1.284,-1.284,-1.284,-1.284,-1.349,-1.4137,-1.4408,-1.5625,-1.57,-1.501,-1.5008,-1.5102,-1.5007,-1.545,-1.5659,-1.5718,-1.6788,-1.7102,-1.6806,-1.7273,-1.7578,-1.8006,-1.856,-1.8777,-1.9001,-1.9559,-1.9798,-1.9895,-2.0064,-2.0388,-2.0804,-2.1496,-2.1582,-2.1314,-2.146,-2.1417,-2.1154,-2.0634,-2.0172,-1.9845,-1.9543,-1.8759,-1.8007,-1.7478,-1.785,-1.8361,-1.8226,-1.8407,-1.8545,-1.828,-1.9107,-1.9823,-1.9929,-2.0184,-2.0404,-2.0749,-2.0868,-2.0806,-2.0786,0.0,0.0,-2.1622,-2.162,-2.1877,0.0,0.0,0.0,0.0,0.0,-2.3235,-2.4467,-2.5298,-2.6273,-2.761,-2.7928,-2.8412,-2.9247,-3.0442,-3.1069,-3.1263,-3.2514,-3.2627,-3.2144,-3.28,-3.2935,-3.2572,-3.2656,-3.2961,-3.3293,-3.3263,-3.3473,-3.3771,-3.362,-3.3073,-3.2648,0.0,0.0,-1.5187,-1.3868,-1.2287,-1.095,-1.0297,-0.9385,-0.8706,-0.8646,-0.8828,-0.9029,-0.9156,-1.0587,-1.1629,-1.1463,-1.2149,-1.2529,-1.2305,-1.284,-1.3235,-1.3235,-1.3235,-1.3235,-1.3235,-1.3621,-1.4137,-1.48,-1.5883,-1.6099,-1.5428,-1.571,-1.5605,-1.525,-1.5395,-1.5615,-1.5824,-1.6437,-1.6972,-1.7273,-1.7426,-1.7578,-1.8016,-1.8431,-1.8761,-1.8874,-1.9176,-1.9526,-1.9895,-1.9772,-2.011,-2.0804,-2.1207,-2.1446,-2.1782,-2.1991,-2.1726,-2.1192,-2.0871,-2.0453,-2.0074,-1.9591,-1.9161,-1.853,-1.785,-1.809,-1.8661,-1.8953,-1.9323,-1.9464,-1.9182,-2.0028,-2.0575,-1.9823,-1.9929,-2.0227,-2.0416,-2.0403,-2.0561,0.0,-2.127,-2.1358,-2.1632,-2.2061,-2.2174,0.0,0.0,-2.2748,-2.2923,-2.302,-2.3265,-2.3806,-2.4914,-2.5971,-2.7109,-2.7583,-2.8614,-2.9834,-2.9935,-3.0447,-3.1015,-3.1495,-3.1592,-3.1282,-3.192,-3.1764,-3.1398,-3.1681,-3.1679,-3.1959,-3.2531,-3.2755,-3.2985,-3.326,-3.3073,-3.2648,-1.8764,-1.7324,-1.5909,-1.4459,-1.2639,-1.1198,-1.0568,-0.9701,-0.8968,-0.8997,-0.9059,-0.9307,-0.96,-1.0973,-1.1853,-1.1774,-1.2473,-1.2708,-1.2568,-1.2708,-1.3104,-1.3367,-1.3367,-1.3498,-1.3621,-1.4015,-1.4408,-1.5202,-1.6295,-1.6641,-1.6108,-1.6129,-1.6007,-1.5623,-1.5478,-1.5544,-1.5905,-1.6364,-1.6784,-1.7426,-1.7426,-1.7578,-1.7721,-1.8177,-1.8572,-1.8741,-1.8959,-1.9446,-2.0066,-1.9804,-2.0204,-2.0804,-2.1069,-2.1484,-2.1897,-2.2173,-2.2056,-2.1667,-2.1133,-2.0773,-2.0306,-1.9362,-1.935,-1.9346,-1.8134,-1.8479,-1.9172,-1.9413,-1.9645,-1.9821,-1.9647,-2.053,-2.1148,-2.0566,-2.0683,-2.0877,-2.1407,-2.1108,-2.1158,-2.1693,-2.1785,-2.1785,-2.2357,-2.2494,-2.2459,-2.2091,-2.2561,0.0,-2.3067,-2.3324,-2.3655,-2.3927,-2.4854,-2.558,-2.6223,-2.7293,-2.8322,-2.9305,-2.9596,-3.0064,-3.0344,-3.1205,-3.1295,-3.1171,-3.162,-3.1514,-3.1387,-3.1265,-3.1629,-3.2056,-3.2262,-3.24,-3.2648,-3.2648,-3.2447,-3.2234,-1.9657,-1.8108,-1.6587,-1.5178,-1.316,-1.155,-1.0759,-0.9935,-0.9396,-0.9202,-0.9401,-0.9724,-1.0328,-1.1404,-1.1996,-1.2063,-1.2612,-1.2955,-1.28,-1.2684,-1.2832,-1.3498,-1.3498,-1.3621,-1.4006,-1.4399,-1.4931,-1.5463,-1.6696,-1.7047,-1.6651,-1.6399,-1.6131,-1.5867,-1.5434,-1.55,-1.5861,-1.6169,-1.6756,-1.7426,-1.7426,-1.7426,-1.7426,-1.7873,-1.8177,-1.8623,-1.8849,-1.9517,-2.0172,-2.0032,-2.0239,-2.0774,-2.1106,-2.1521,-2.1961,-2.2186,-2.231,-2.2173,-2.1484,-2.1021,-2.0478,-1.9182,-1.9569,-1.987,-1.8364,-1.8816,-1.9481,-1.9491,-1.969,-1.9923,-1.9737,-2.0834,-2.1559,-2.1462,-2.1542,-2.1948,-2.2754,0.0,-2.1923,-2.2375,-2.2306,-2.2448,-2.3223,-2.2942,-2.288,-2.3265,-2.3047,-2.2949,-2.3222,-2.354,-2.3845,-2.4317,-2.4832,-2.5206,-2.5605,-2.705,-2.8005,-2.827,-2.9455,-2.9934,-3.0041,-3.1061,-3.1304,-3.1137,-3.1368,-3.1573,-3.1643,-3.1346,-3.1837,-3.2553,-3.2038,-3.1996,-3.2385,-3.2008,-3.1807,-3.1819,-2.0529,-1.8932,-1.7285,-1.5771,-1.3842,-1.2237,-1.118,-1.0458,-0.9922,-0.9876,-1.0082,-1.0317,-1.0699,-1.1909,-1.2553,-1.2242,-1.321,-1.3421,-1.2613,-1.3265,-1.3744,-1.3875,-1.4146,-1.4277,-1.4277,-1.4922,-1.5453,-1.5463,-1.6963,-1.7318,-1.6651,-1.6957,-1.6622,-1.5657,-1.523,-1.5307,-1.5807,-1.5807,-1.6469,-1.7426,-1.7426,-1.7426,-1.7426,-1.7873,-1.8177,-1.8623,-1.8849,-1.9478,-2.0106,-1.9946,-2.0329,-2.0971,-2.1077,-2.1647,-2.2205,-2.2238,-2.2585,-2.2585,-2.1897,-2.1021,-2.0131,-1.9403,-1.9426,-1.946,-1.8364,-1.8688,-1.9256,-1.957,-1.996,-2.0172,-2.0128,-2.1242,-2.1981,-2.151,-2.1701,-2.2174,-2.278,0.0,-2.171,-2.2649,-2.2434,-2.2525,-2.3497,-2.3663,-2.3766,-2.355,-2.3798,-2.3721,-2.3493,-2.3642,-2.362,-2.3738,-2.4413,-2.5126,-2.5879,-2.731,-2.827,-2.8536,-2.9159,-2.9829,-3.072,-3.0574,-3.0428,-3.0293,-3.0514,-3.0546,-3.0453,-3.0939,-3.1303,-3.1571,-3.1686,-3.1662,-3.1692,-3.1722,-3.1807,-3.1843,-2.1626,-1.9845,-1.798,-1.6473,-1.463,-1.3008,-1.2074,-1.1271,-1.0771,-1.0659,-1.0539,-1.0753,-1.1332,-1.2105,-1.2615,-1.254,-1.3248,-1.3282,-1.2701,-1.3257,-1.3752,-1.3875,-1.4277,-1.4539,-1.467,-1.5583,-1.6035,-1.5903,-1.7149,-1.7516,-1.7097,-1.7296,-1.6816,-1.5728,-1.5283,-1.5345,-1.5766,-1.5718,-1.6292,-1.7426,-1.7426,-1.7426,-1.7426,-1.7578,-1.8035,-1.8633,-1.8683,-1.9308,-2.0047,-2.0263,-2.0607,-2.0958,-2.1273,-2.1798,-2.2269,-2.225,-2.2448,-2.2448,-2.2173,-2.1396,-2.0622,-1.9933,-1.99,-1.9866,-1.8746,-1.9063,-1.9768,-2.0129,-2.05,-2.0874,-2.0694,-2.1578,-2.2174,-2.1921,-2.2202,-2.279,-2.3522,-2.2679,-2.2268,-2.3258,-2.2976,-2.2883,-2.3588,-2.4018,-2.4147,-2.3624,-2.4046,-2.4209,-2.3763,-2.3775,-2.3776,-2.393,-2.4563,-2.5302,-2.6348,-2.7233,-2.785,-2.8224,-2.8704,-2.9359,-2.9997,-2.9812,-3.0044,-3.0472,-3.057,-3.0574,-3.066,-3.1046,-3.1276,-3.1421,-3.1698,-3.1638,-3.1421,-3.171,-3.1593,-3.1403,-2.2716,-2.075,-1.8865,-1.7396,-1.5614,-1.406,-1.2972,-1.2079,-1.1618,-1.1561,-1.1224,-1.131,-1.2094,-1.2432,-1.2683,-1.2868,-1.3431,-1.343,-1.2767,-1.3413,-1.3752,-1.3875,-1.4277,-1.467,-1.5192,-1.5974,-1.6347,-1.6451,-1.7336,-1.7569,-1.7527,-1.7347,-1.6797,-1.5942,-1.5265,-1.5301,-1.5786,-1.5682,-1.6265,-1.7208,-1.7255,-1.7273,-1.7426,-1.7426,-1.8035,-1.8643,-1.8643,-1.9285,-2.0158,-2.0547,-2.0874,-2.1002,-2.1672,-2.1998,-2.2371,-2.2506,-2.2553,-2.2553,-2.2276,-2.181,-2.0955,-2.018,-2.0215,-2.0071,-1.9063,-1.9548,-2.0229,-2.0479,-2.0966,-2.1195,-2.1014,-2.1707,-2.2331,-2.2259,0.0,-2.34,-2.4063,-2.3235,-2.2937,-2.3718,-2.3339,-2.3228,-2.3797,-2.4266,-2.4379,-2.3878,-2.4269,-2.4304,-2.3785,-2.3835,-2.4114,-2.425,-2.4802,-2.5483,-2.6309,-2.7067,-2.7605,-2.7546,-2.8206,-2.8812,-2.9405,-2.9267,-2.9663,-3.072,-3.0623,-3.0648,-3.0898,-3.0891,-3.101,-3.1082,-3.1296,-3.1249,-3.1094,-3.1581,-3.1499,-3.1151,-2.347,-2.1947,-2.0209,-1.8368,-1.6792,-1.5133,-1.3391,-1.2699,-1.2355,-1.2238,-1.2143,-1.2247,-1.283,-1.3439,-1.35,-1.3046,-1.415,-1.4408,-1.335,-1.4268,-1.4539,-1.3875,-1.4539,-1.5192,-1.5844,-1.5974,-1.6347,-1.6838,-1.747,-1.7569,-1.7527,-1.7347,-1.6875,-1.616,-1.5328,-1.5158,-1.5487,-1.5251,-1.5747,-1.6551,-1.6733,-1.7121,-1.7426,-1.7873,-1.8187,-1.8643,-1.9098,-1.9531,-1.994,-2.0455,-2.082,-2.1221,-2.2174,-2.2586,-2.2678,-2.31,-2.3287,-2.3147,-2.2434,-2.1685,-2.0992,-2.0121,-1.9918,-1.9787,-1.8921,-1.926,-1.9792,-2.0036,-2.0819,-2.1184,-2.0703,-2.1697,-2.2549,-2.2295,0.0,0.0,-2.409,-2.3235,-2.2857,-2.3562,-2.331,-2.3382,-2.4357,-2.4683,-2.4829,-2.4634,-2.4381,-2.4008,-2.331,-2.3503,-2.4074,-2.4667,-2.534,-2.5494,-2.5365,-2.7041,-2.7464,-2.6834,-2.7498,-2.8416,-2.9417,-2.8661,-2.9332,-3.0871,-2.9894,-2.9839,-3.0517,-3.0129,-3.0055,-3.0274,-3.0297,-3.0285,-3.0297,-3.0971,-3.1445,-3.1691,-2.4386,-2.2739,-2.0921,-1.9055,-1.7669,-1.6229,-1.4932,-1.4037,-1.3466,-1.3125,-1.2815,-1.2855,-1.3214,-1.3533,-1.3833,-1.4042,-1.4346,-1.4539,-1.4286,-1.4539,-1.467,-1.4941,-1.5323,-1.5643,-1.5913,-1.6308,-1.6757,-1.6984,-1.7633,-1.7792,-1.7327,-1.7268,-1.6816,-1.5989,-1.5274,-1.523,-1.5453,-1.5483,-1.5878,-1.6533,-1.7037,-1.7416,-1.7721,-1.7873,-1.8329,-1.8946,-1.9098,-1.9542,-1.9984,-2.0647,-2.098,-2.1302,-2.2117,-2.2589,-2.296,-2.3403,-2.3607,-2.3492,-2.3236,-2.2653,-2.1894,-2.0983,-2.0561,-2.0241,-1.9376,-1.9856,-2.066,-2.0751,-2.1359,-2.1739,-2.1231,-2.1977,-2.2621,-2.2512,0.0,-2.3903,-2.4369,-2.3637,-2.3318,-2.3715,-2.3735,-2.3779,-2.4147,-2.4739,-2.4803,-2.4147,-2.434,-2.4105,-2.3202,-2.3402,-2.3922,-2.4764,-2.4996,-2.5447,-2.6188,-2.7001,-2.7486,-2.764,-2.7656,-2.8049,-2.906,-2.8704,-2.9144,-3.0129,-3.0107,-3.0129,-3.0159,-2.9945,-3.0002,-3.0105,-3.0254,-3.0219,-3.0128,-3.0757,-3.0767,-3.0639,-2.5147,-2.3513,-2.1755,-2.0062,-1.867,-1.741,-1.6212,-1.539,-1.4574,-1.3926,-1.3738,-1.3558,-1.3586,-1.3929,-1.4307,-1.4567,-1.4695,-1.48,-1.4931,-1.48,-1.4941,-1.5463,-1.5652,-1.5883,-1.6175,-1.6645,-1.6996,-1.7389,-1.7813,-1.7791,-1.7308,-1.7308,-1.6806,-1.5971,-1.5265,-1.5186,-1.5355,-1.5448,-1.5842,-1.6292,-1.7009,-1.7569,-1.8025,-1.8177,-1.8633,-1.9239,-1.939,-1.9693,-1.9995,-2.0759,-2.1071,-2.1337,-2.2189,-2.2815,-2.3284,-2.3681,-2.3758,-2.3968,-2.3971,-2.3456,-2.2563,-2.1595,-2.1132,-2.0672,-1.9647,-2.043,-2.1222,-2.1071,-2.1731,-2.1987,-2.1555,-2.2107,-2.2589,-2.2657,-2.3252,-2.3907,-2.438,-2.3896,-2.3438,-2.36,-2.3542,-2.3593,-2.3985,-2.4418,-2.4535,-2.4097,-2.422,-2.3862,-2.3159,-2.3379,-2.3903,-2.4775,-2.4807,-2.5376,-2.6573,-2.6937,-2.7124,-2.7558,-2.7471,-2.7919,-2.8525,-2.845,-2.8718,-2.9717,-2.9785,-2.9922,-2.9868,-2.9653,-2.9653,-2.9675,-2.9695,-2.9739,-2.9717,-3.0339,-3.0343,-3.021,-2.6008,-2.4395,-2.2805,-2.1391,-2.004,-1.8672,-1.6954,-1.6471,-1.5873,-1.4708,-1.4681,-1.4549,-1.383,-1.4426,-1.4692,-1.4307,-1.508,-1.5332,-1.4931,-1.5332,-1.5463,-1.5473,-1.5262,-1.5766,-1.6849,-1.6665,-1.7025,-1.8099,-1.8099,-1.7791,-1.7308,-1.7308,-1.6885,-1.6178,-1.5337,-1.5052,-1.4927,-1.5027,-1.5319,-1.5789,-1.6491,-1.7264,-1.8025,-1.8491,-1.8795,-1.9239,-1.9693,-1.9844,-1.9995,-2.0759,-2.1071,-2.1372,-2.2558,-2.326,-2.3614,-2.3614,-2.3918,-2.4262,-2.4556,-2.4044,-2.3078,-2.1614,-2.1273,-2.099,-1.9796,-2.0579,-2.1522,-2.1222,-2.1569,-2.1884,-2.1437,-2.1939,-2.2484,-2.2541,-2.3252,-2.392,-2.3935,-2.36,-2.3302,-2.3017,-2.279,-2.3059,-2.4252,-2.3766,-2.383,-2.4689,-2.3845,-2.3257,-2.3343,-2.3623,-2.4075,-2.4775,-2.4807,-2.527,-2.6229,-2.6816,-2.6827,-2.6239,-2.7322,-2.7758,-2.778,-2.7643,-2.8412,-2.9728,-2.8693,-2.8792,-2.9211,-2.8576,-2.836,-2.8393,-2.8619,-2.8845,-2.9114,-2.9998,-3.0476,-3.0687,-2.7131,-2.5806,-2.4298,-2.245,-2.1306,-2.0101,-1.86,-1.7488,-1.6476,-1.5499,-1.523,-1.4887,-1.4189,-1.4781,-1.5057,-1.5057,-1.5337,-1.5332,-1.4931,-1.5332,-1.54,-1.5271,-1.5471,-1.6057,-1.6919,-1.697,-1.7251,-1.7907,-1.8197,-1.7949,-1.7308,-1.7308,-1.6885,-1.6178,-1.5337,-1.5052,-1.4927,-1.5027,-1.5319,-1.5798,-1.6802,-1.7731,-1.8491,-1.8946,-1.9249,-1.9693,-1.9844,-1.9693,-1.9552,-2.0759,-2.091,-2.0898,-2.2408,-2.3091,-2.3472,-2.3767,-2.4209,-2.4382,-2.4166,-2.3748,-2.3129,-2.215,-2.1692,-2.1244,-2.0047,-2.0853,-2.1569,-2.144,-2.1989,-2.2307,-2.2061,-2.2647,-2.314,-2.32,-2.3823,-2.4649,-2.4987,-2.4492,-2.4023,-2.3884,-2.3816,-2.3692,-2.3622,-2.4037,-2.411,-2.4139,-2.3744,-2.3609,-2.3375,-2.3784,-2.4063,-2.422,-2.4779,-2.5249,-2.5629,-2.6229,-2.6715,-2.7091,-2.7382,-2.7611,-2.8035,-2.8313,-2.8666,-2.8693,-2.8963,-2.8781,-2.8576,-2.836,-2.8457,-2.863,-2.8877,-2.9103,-2.934,-2.9802,-2.9932,-2.9987,-2.791,-2.6548,-2.5053,-2.3512,-2.2105,-2.0877,-1.9842,-1.8548,-1.736,-1.6587,-1.5942,-1.5351,-1.4771,-1.5024,-1.5297,-1.5297,-1.5465,-1.5332,-1.4931,-1.5071,-1.5327,-1.5347,-1.5635,-1.6069,-1.6975,-1.7056,-1.7446,-1.8153,-1.8153,-1.7872,-1.7308,-1.7168,-1.6744,-1.6178,-1.547,-1.5186,-1.5079,-1.5173,-1.5476,-1.5798,-1.6802,-1.7731,-1.8643,-1.8946,-1.939,-1.9844,-1.9844,-1.9693,-1.9542,-2.0609,-2.0898,-2.1048,-2.2259,-2.3005,-2.3438,-2.3735,-2.4044,-2.4341,-2.4044,-2.36,-2.3005,-2.2097,-2.196,-2.166,-2.0447,-2.1128,-2.2011,-2.186,-2.2212,-2.2602,-2.2291,-2.2665,-2.3127,-2.343,-2.3971,-2.4778,-2.5225,-2.4739,-2.4278,-2.4124,-2.3585,-2.3442,-2.343,-2.378,-2.3901,-2.3746,-2.381,-2.3765,-2.3386,-2.3946,-2.4234,-2.4031,-2.4854,-2.5324,-2.5429,-2.604,-2.6602,-2.7141,-2.7415,-2.7643,-2.7874,-2.8142,-2.8435,-2.836,-2.8565,-2.8565,-2.8371,-2.8457,-2.8576,-2.8727,-2.9071,-2.9308,-2.9448,-2.9685,-2.9771,-2.9771,-2.8688,-2.6883,-2.5313,-2.4298,-2.2686,-2.1296,-2.0751,-1.9459,-1.8293,-1.7751,-1.6791,-1.5963,-1.5257,-1.5276,-1.5297,-1.5182,-1.5337,-1.5332,-1.4931,-1.495,-1.5139,-1.5545,-1.5574,-1.6089,-1.6985,-1.7197,-1.759,-1.8433,-1.8142,-1.7721,-1.7308,-1.7017,-1.6593,-1.6178,-1.5744,-1.5328,-1.5079,-1.5465,-1.5624,-1.5798,-1.6491,-1.7569,-1.8643,-1.8643,-1.9098,-1.9844,-1.9844,-1.9844,-1.9844,-2.0296,-2.1048,-2.181,-2.2109,-2.2707,-2.3302,-2.3438,-2.3587,-2.3896,-2.3896,-2.3464,-2.2744,-2.1845,-2.2031,-2.2055,-2.0793,-2.158,-2.2541,-2.2259,-2.2494,-2.2677,-2.2383,-2.2542,-2.3016,-2.3308,-2.3885,-2.4508,-2.497,-2.4662,-2.4354,-2.3891,-2.302,-2.2542,-2.3308,-2.3143,-2.3184,-2.3687,-2.3883,-2.3952,-2.3461,-2.4118,-2.4405,-2.3872,-2.4695,-2.5345,-2.5429,-2.6029,-2.6476,-2.6961,-2.7424,-2.765,-2.7661,-2.7492,-2.7702,-2.836,-2.7702,-2.7713,-2.8187,-2.8619,-2.8727,-2.8813,-2.9243,-2.9448,-2.948,-2.9685,-2.9771,-2.9771,-2.9489,-2.8212,-2.6842,-2.5053,-2.3843,-2.2695,-2.1474,-2.0223,-1.9098,-1.8328,-1.7407,-1.6328,-1.5268,-1.5248,-1.5047,-1.4558,-1.4823,-1.4931,-1.4931,-1.5082,-1.5281,-1.5545,-1.5706,-1.6312,-1.7228,-1.7278,-1.759,-1.8433,-1.8714,-1.8422,-1.7721,-1.7721,-1.7298,-1.6593,-1.5886,-1.5328,-1.5079,-1.5465,-1.5624,-1.5798,-1.6802,-1.7731,-1.8643,-1.8946,-1.939,-1.9844,-1.9844,-1.9693,-1.939,-1.9844,-2.0748,-2.166,-2.181,-2.2408,-2.3005,-2.329,-2.3438,-2.36,-2.36,-2.3304,-2.2863,-2.1802,-2.2117,-2.2303,-2.1142,-2.1693,-2.2555,-2.2612,-2.2753,-2.2723,-2.2613,-2.2808,-2.3117,-2.3277,-2.4184,-2.5097,-2.557,-2.5557,-2.5255,-2.4794,-2.405,-2.3277,-2.2797,-2.3096,-2.3268,-2.3425,-2.4148,-2.4274,-2.3388,-2.4255,-2.4272,-2.3163,-2.4542,-2.531,-2.4829,-2.5829,-2.6476,-2.6961,-2.7424,-2.765,-2.7661,-2.7492,-2.7486,-2.7702,-2.7486,-2.7373,-2.731,-2.7809,-2.827,-2.8607,-2.8723,-2.9084,-2.9706,-2.9739,-2.9771,-2.9771,-3.0261,-2.8953,-2.7447,-2.5977,-2.4632,-2.3559,-2.2692,-2.1063,-1.9832,-1.9394,-1.7852,-1.6517,-1.5817,-1.5523,-1.5137,-1.4591,-1.4808,-1.4969,-1.5073,-1.5177,-1.5375,-1.5971,-1.5939,-1.638,-1.758,-1.7449,-1.759,-1.8433,-1.8573,-1.8573,-1.8153,-1.8142,-1.7851,-1.7298,-1.6734,-1.6037,-1.5355,-1.5749,-1.5762,-1.5798,-1.6793,-1.7731,-1.8643,-1.8795,-1.939,-1.9844,-1.9844,-1.9693,-1.9542,-1.9995,-2.0748,-2.151,-2.166,-2.2259,-2.2856,-2.3154,-2.3154,-2.3179,-2.3304,-2.3141,-2.2705,-2.2044,-2.2245,-2.2395,-2.1579,-2.205,-2.28,-2.2823,-2.2929,-2.2887,-2.2384,-2.282,-2.3352,-2.3222,-2.4431,-2.5442,-2.5766,-2.5753,-2.5594,-2.513,-2.4172,-2.3305,-2.2735,-2.2819,-2.3225,-2.3487,-2.4174,-2.4261,-2.3719,-2.4292,-2.408,-2.3242,-2.4341,-2.4877,-2.4628,-2.5534,-2.6382,-2.6961,-2.7424,-2.765,-2.7661,-2.7277,-2.727,-2.7486,-2.6949,-2.6852,-2.6984,-2.7407,-2.7865,-2.8081,-2.8194,-2.8759,-2.9307,-2.9307,-2.9608,-2.9932,-3.1058,-2.9319,-2.7833,-2.6667,-2.5288,-2.419,-2.3745,-2.1885,-2.039,-2.02,-1.8199,-1.6669,-1.6453,-1.5697,-1.514,-1.4903,-1.4969,-1.5054,-1.5224,-1.53,-1.5634,-1.6402,-1.6173,-1.6549,-1.7861,-1.7449,-1.759,-1.8433,-1.8573,-1.8573,-1.8433,-1.8563,-1.8412,-1.8002,-1.7449,-1.6744,-1.5772,-1.6177,-1.6057,-1.5789,-1.6642,-1.7569,-1.8643,-1.8643,-1.9098,-1.9844,-1.9844,-1.9844,-1.9995,-2.0296,-2.0759,-2.1222,-2.1569,-2.2181,-2.293,-2.298,-2.2992,-2.3054,-2.3314,-2.3096,-2.2769,-2.2349,-2.2476,-2.251,-2.193,-2.2475,-2.3038,-2.2941,-2.2898,-2.274,-2.2128,-2.2796,-2.3353,-2.3143,-2.4417,-2.5435,-2.5633,-2.5792,-2.5646,-2.513,-2.3852,-2.2924,-2.2588,-2.2677,-2.2999,-2.3556,-2.4252,-2.4277,-2.3977,-2.443,-2.4214,-2.3435,-2.4072,-2.4406,-2.4628,-2.5447,-2.6113,-2.6809,-2.7445,-2.765,-2.745,-2.6858,-2.6847,-2.7063,-2.6405,-2.6304,-2.6594,-2.7225,-2.7416,-2.7466,-2.7657,-2.8192,-2.8864,-2.8864,-2.9238,-2.9897,-3.1537,-3.0106,-2.8691,-2.7206,-2.6151,-2.4915,-2.3561,-2.2214,-2.0988,-1.9998,-1.8377,-1.7174,-1.6485,-1.5701,-1.5051,-1.4912,-1.5092,-1.5205,-1.5233,-1.5574,-1.5939,-1.6421,-1.6187,-1.6715,-1.7861,-1.7449,-1.759,-1.8433,-1.9133,-1.9262,-1.8993,-1.9262,-1.8982,-1.8293,-1.759,-1.6885,-1.6207,-1.6477,-1.6508,-1.6241,-1.6954,-1.7883,-1.8643,-1.8643,-1.9098,-1.9844,-1.9844,-1.9844,-1.9844,-1.9995,-2.0458,-2.1106,-2.1475,-2.2141,-2.2797,-2.3322,-2.3243,-2.315,-2.3741,-2.3658,-2.3151,-2.2866,-2.2853,-2.2701,-2.2307,-2.2341,-2.2482,-2.305,-2.2545,-2.214,-2.2678,-2.2583,-2.2594,-2.2887,-2.3726,-2.4628,-2.5168,-2.5801,-2.5866,-2.5155,-2.3692,-2.2599,-2.2088,-2.2664,-2.3093,-2.3466,-2.4338,-2.4529,-2.3841,-2.4514,-2.4406,-2.2857,-2.4268,-2.4604,-2.4016,-2.5245,-2.5983,-2.6629,-2.7311,-2.7439,-2.6828,-2.6643,-2.6413,-2.5989,-2.5977,-2.5961,-2.57,-2.6603,-2.6828,-2.7004,-2.7033,-2.7489,-2.8192,-2.8626,-2.901,-2.9448,-3.2017,-3.057,-2.916,-2.8077,-2.6881,-2.5847,-2.4758,-2.3308,-2.179,-2.0458,-1.9128,-1.7863,-1.6782,-1.5867,-1.5267,-1.5073,-1.5186,-1.5328,-1.5846,-1.6038,-1.647,-1.7147,-1.6977,-1.7308,-1.8153,-1.7872,-1.7872,-1.8433,-1.8993,-1.9122,-1.8993,-1.9549,-1.9476,-1.8921,-1.8059,-1.7358,-1.6663,-1.6825,-1.6508,-1.6241,-1.7246,-1.8035,-1.8643,-1.8795,-1.9401,-1.9865,-2.0005,-2.0134,-2.0253,-2.0253,-2.0857,-2.1494,-2.1608,-2.2259,-2.3052,-2.3316,-2.3198,-2.3104,-2.3538,-2.3611,-2.3258,-2.297,-2.2933,-2.2758,-2.2113,-2.1949,-2.2047,-2.2774,-2.2508,-2.2155,-2.2583,-2.2665,-2.281,-2.3161,-2.3915,-2.4931,-2.5476,-2.6027,-2.5989,-2.4752,-2.3454,-2.2436,-2.2099,-2.2251,-2.2718,-2.3157,-2.3914,-2.4084,-2.3498,-2.4152,-2.3952,-2.2867,-2.3592,-2.4127,-2.4227,-2.5175,-2.5923,-2.6879,-2.7531,-2.7503,-2.7016,-2.6704,-2.6413,-2.5781,-2.5874,-2.5643,-2.5534,-2.6072,-2.6509,-2.6586,-2.6586,-2.6815,-2.7509,-2.8325,-2.8728,-2.8954]}]]